GFSFLT1_sfc_wetblb_000.txt.gz
Wetbulb
67.44 65.65 64.88 64.47 64.18 63.98 63.94 64.85 64.24 64.21 64.57 64.46 64.88 64.61 62.31 60.94 54.83 58.22 60.32 61.25 64.16 65.03 64.31 64.53 64.94 64.63 64.71 63.34 61.62 61.65 61.69 61.75 62.82
68.04 66.16 64.97 64.64 64.62 64.35 64.26 64.04 64.32 64.70 64.62 64.67 64.62 64.92 63.20 55.52 53.45 56.26 58.42 58.74 64.47 65.05 64.44 63.84 63.88 63.60 63.27 63.24 62.10 61.66 61.38 61.63 61.85
67.43 66.11 65.52 65.07 64.80 64.95 65.03 64.70 64.12 63.81 64.36 64.67 64.56 64.97 64.07 57.53 52.75 53.78 57.03 60.08 64.53 65.68 65.09 64.08 63.80 63.57 62.85 62.93 62.59 61.88 61.49 61.58 61.59
66.51 66.68 66.35 65.64 65.39 65.18 65.80 65.79 65.37 64.51 64.10 64.05 64.41 65.09 65.02 56.15 53.56 53.79 56.09 61.09 64.95 65.81 65.24 64.84 64.55 63.86 63.28 62.61 63.18 62.64 61.90 61.46 61.17
67.22 67.36 67.08 66.02 65.91 65.52 65.71 65.87 65.50 64.89 64.08 63.73 63.90 64.84 64.55 58.84 55.78 53.82 53.20 62.16 64.85 65.72 65.30 65.22 64.69 64.45 64.06 63.43 62.74 63.02 62.64 62.20 61.80
62.83 64.37 65.98 66.26 65.75 65.76 65.37 65.64 65.47 65.26 64.45 64.27 64.07 64.31 59.49 57.70 56.58 54.46 58.08 61.38 64.74 65.38 65.81 65.53 65.30 64.60 64.30 64.01 63.48 62.77 62.88 62.81 62.65
61.79 62.36 64.64 65.86 66.02 66.21 65.51 65.41 65.73 64.46 57.80 55.78 59.14 57.46 57.53 57.16 56.35 55.94 61.22 62.37 63.22 64.58 65.12 65.47 65.54 65.12 64.38 64.28 64.16 63.80 63.13 62.87 62.72
58.84 58.66 58.87 59.24 61.75 60.70 61.67 60.62 59.34 57.73 56.17 54.84 54.02 53.86 53.55 54.38 56.18 57.91 61.58 63.15 63.50 63.85 64.54 65.22 66.90 65.89 65.20 64.32 64.18 64.05 63.60 63.48 63.25
57.43 57.17 57.37 57.29 58.19 58.40 58.61 58.22 57.76 56.60 55.82 54.22 53.07 52.65 52.14 52.26 52.85 54.48 58.98 61.03 62.86 63.10 63.59 64.73 66.36 67.45 66.54 65.75 64.59 65.14 65.20 64.17 64.23
57.48 57.16 56.75 56.76 57.37 57.48 57.77 57.57 57.76 56.93 56.18 55.49 53.80 53.73 52.79 51.74 51.96 52.39 55.93 58.35 60.18 62.18 63.05 63.48 65.01 65.84 68.16 67.70 67.00 66.27 65.93 65.81 65.43
57.85 57.34 57.05 56.45 57.26 57.98 57.79 57.74 57.58 57.08 55.97 55.80 54.62 54.26 53.64 52.88 51.92 52.09 52.24 57.23 59.18 61.16 62.95 63.97 63.40 64.58 66.12 68.63 67.81 67.40 66.73 66.50 66.20
58.69 57.78 57.76 57.82 57.17 57.32 57.34 56.90 56.43 56.20 56.00 55.19 55.52 55.02 53.80 53.02 52.02 51.53 52.28 53.28 57.77 59.65 62.21 63.17 63.87 64.62 64.46 66.12 68.17 67.60 66.93 66.47 66.50
57.87 58.23 58.54 58.64 56.23 55.92 55.92 55.74 54.81 54.41 54.51 54.51 54.59 54.41 54.33 53.85 52.89 52.45 52.16 51.84 51.67 54.56 58.46 60.96 62.69 64.60 65.38 65.00 67.00 67.52 67.05 66.67 66.25
57.68 58.10 58.23 57.65 56.17 55.10 55.26 55.49 53.70 55.09 55.24 53.47 53.62 53.70 52.91 53.34 54.33 53.29 52.85 52.58 52.96 52.47 54.35 57.58 59.46 61.68 63.85 64.53 65.55 66.81 66.59 66.17 66.22
56.55 57.04 57.04 56.79 55.74 56.06 55.11 54.34 56.21 55.79 55.43 56.03 56.29 56.58 55.80 54.14 53.64 54.38 54.69 54.49 53.90 52.70 52.73 53.64 54.52 57.88 60.30 62.52 64.72 66.37 66.43 65.81 65.58
56.71 56.11 56.29 56.48 55.71 56.79 57.26 56.22 55.30 55.58 55.46 54.11 54.82 55.67 55.89 55.57 55.68 55.60 55.05 55.25 55.01 54.23 53.51 53.67 53.68 53.90 58.61 60.08 61.62 63.59 65.27 65.94 65.85
56.97 57.07 57.10 57.18 56.99 56.99 56.45 56.29 56.96 57.48 57.81 54.73 55.41 53.06 54.69 55.02 56.15 56.03 55.43 55.32 56.13 55.64 54.98 54.63 53.21 53.40 53.73 54.43 58.44 60.68 62.21 63.56 64.49
50.35 50.57 51.09 52.45 54.77 55.52 56.47 56.69 57.19 56.64 57.89 57.98 55.45 52.84 52.24 55.56 56.31 53.94 54.67 55.01 55.31 55.46 55.54 55.42 54.87 54.15 53.62 54.86 55.53 57.44 59.16 61.25 63.42
48.73 48.48 48.07 47.81 49.31 48.72 50.29 51.49 53.74 54.75 54.07 56.54 58.25 58.09 56.64 53.19 52.41 56.45 55.36 53.99 54.68 55.13 55.38 55.37 55.35 55.22 54.87 55.02 55.13 55.81 57.25 59.74 62.25
47.53 47.16 46.70 46.61 47.31 47.25 47.46 48.05 48.51 49.57 50.71 51.04 52.82 53.12 53.61 54.03 52.35 49.50 52.26 55.11 56.82 57.58 56.15 55.96 55.89 56.10 55.85 55.32 55.17 56.80 58.68 60.75 62.55

GFSFLT1_sfc_wetblb_003.txt.gz
Wetbulb
67.12 66.99 65.46 64.45 64.45 64.35 64.35 64.29 65.34 65.23 65.12 65.66 65.53 65.29 64.45 62.71 62.37 63.03 64.57 65.41 64.70 65.64 65.51 65.39 66.03 66.15 66.00 65.66 64.13 62.71 62.76 62.10 63.23
68.15 67.21 65.70 64.85 64.75 64.71 64.62 64.67 64.65 64.53 65.11 65.44 65.48 65.06 65.51 63.00 61.64 61.10 63.95 64.83 66.05 65.84 65.24 65.12 64.87 65.60 65.16 64.94 64.28 62.88 62.54 62.12 62.63
68.98 67.89 66.10 65.41 64.96 64.89 65.05 65.30 65.39 64.96 64.66 64.56 64.91 64.83 64.69 62.05 62.15 60.41 61.16 63.63 65.66 65.16 65.77 65.48 64.78 64.58 64.51 63.97 64.06 63.28 62.45 62.35 62.54
67.32 67.25 66.70 66.02 65.99 65.64 65.04 66.57 66.67 66.00 65.45 64.94 64.57 65.11 65.07 64.04 63.64 61.27 59.76 60.75 65.04 65.95 65.84 66.08 65.80 65.30 64.78 64.38 63.69 63.99 63.27 62.70 62.54
67.20 67.60 66.92 66.99 66.46 66.01 65.40 65.61 66.54 66.04 65.51 64.99 65.20 64.94 64.89 63.53 63.75 63.30 62.26 60.87 62.86 65.73 65.94 66.19 66.05 65.78 65.28 64.85 64.21 63.70 64.11 63.49 63.01
65.62 65.38 65.96 66.53 66.41 65.86 65.51 65.67 65.84 65.84 65.48 64.72 64.29 63.80 61.59 62.13 62.32 62.98 62.97 63.76 63.86 63.82 65.30 65.77 66.29 66.28 65.82 65.13 64.95 64.50 63.91 64.04 63.76
64.59 63.84 64.49 65.59 66.03 66.31 65.89 65.53 65.87 65.57 64.44 63.78 61.81 61.89 61.25 60.66 60.79 61.28 62.62 64.34 65.19 64.41 63.97 64.72 65.53 66.00 67.10 65.83 65.17 65.00 64.80 64.12 63.88
64.70 64.57 64.57 65.02 63.38 64.48 64.35 64.15 63.89 63.80 63.67 63.16 62.45 61.66 60.96 60.27 59.99 60.36 61.42 62.93 64.03 64.76 64.41 64.00 64.71 65.24 66.49 67.56 66.07 65.44 65.47 65.01 64.48
63.75 63.79 64.16 63.85 64.06 63.63 63.61 63.17 63.13 63.03 62.87 62.81 62.12 61.49 60.85 60.27 59.55 59.58 59.47 61.19 62.32 62.79 63.69 64.22 63.80 64.42 65.88 66.95 67.93 67.37 66.58 66.46 66.20
63.51 63.57 63.58 63.45 63.57 63.10 62.82 62.68 62.37 62.11 62.03 61.97 61.56 61.14 60.88 60.46 59.91 59.48 58.79 59.09 61.36 62.46 62.43 63.01 63.89 63.97 64.52 66.61 68.12 68.18 67.83 66.97 66.43
63.11 63.18 63.00 62.85 62.94 63.00 62.53 62.24 61.99 61.85 61.88 61.24 61.41 60.70 60.84 60.48 60.05 59.73 59.58 58.60 59.95 61.78 63.21 63.51 63.77 64.53 64.94 65.24 67.28 67.76 68.40 67.76 67.28
63.30 62.98 62.68 62.90 62.93 62.16 62.01 61.65 61.38 60.70 60.91 60.42 60.57 60.58 60.63 60.43 60.10 59.85 59.12 59.24 58.45 59.49 62.53 63.93 64.54 64.55 64.96 65.48 66.55 66.79 67.32 67.82 67.62
62.60 62.17 62.27 62.78 62.35 61.68 61.04 60.78 60.12 60.03 59.22 58.53 59.05 60.07 60.08 60.01 60.17 60.07 59.83 59.03 58.57 59.08 59.49 61.63 63.57 64.56 65.11 65.48 66.09 66.97 66.40 66.18 67.06
61.47 61.54 61.80 62.04 61.38 60.98 60.41 60.08 59.56 58.82 59.59 59.69 60.03 60.25 59.28 59.58 59.14 59.26 59.44 59.21 58.67 59.27 58.95 58.39 60.03 62.22 64.54 65.28 65.96 67.32 66.83 66.24 66.35
60.92 60.81 60.62 60.65 60.30 60.27 60.39 59.73 59.48 58.27 58.14 57.50 57.58 59.75 60.75 61.02 59.81 59.09 59.51 59.54 59.15 59.02 58.77 59.20 58.74 58.33 59.89 62.50 64.56 66.71 67.15 66.63 66.37
55.21 55.38 55.02 55.84 56.27 56.53 57.14 58.21 58.18 58.45 59.90 56.90 56.49 58.15 59.88 60.75 61.14 61.29 60.25 59.73 59.75 59.85 59.63 59.18 59.14 59.14 59.45 60.23 61.48 63.17 64.98 66.69 66.74
51.37 51.36 51.39 51.90 52.36 52.14 52.87 53.30 52.89 54.09 56.01 55.65 55.20 53.56 56.00 59.82 59.85 60.86 59.95 60.71 60.38 59.31 60.04 59.91 59.51 59.31 59.49 59.17 59.44 60.75 62.50 64.15 65.25
49.67 49.78 49.65 49.86 50.46 49.76 50.80 51.25 50.76 49.49 51.80 53.45 51.90 50.23 48.80 51.05 55.08 58.20 60.19 60.25 59.76 60.07 60.00 58.91 59.49 59.43 59.81 59.27 58.61 57.93 59.38 61.60 64.03
47.45 47.97 48.08 48.21 48.69 48.45 49.12 49.67 49.77 49.43 48.28 50.62 51.88 52.29 52.03 47.62 47.46 52.37 54.79 56.58 57.85 58.16 59.47 59.44 59.93 59.70 59.42 59.14 57.70 57.84 58.79 60.49 62.66
44.96 45.60 45.89 45.76 46.46 47.14 47.58 47.51 47.94 48.87 47.92 48.12 48.71 49.23 50.38 50.66 48.81 45.94 48.52 52.24 53.28 55.24 57.03 58.57 59.38 59.87 60.72 60.80 59.91 58.63 59.12 61.13 63.03

GFSFLT1_sfc_wetblb_006.txt.gz
Wetbulb
67.51 66.71 65.62 64.51 64.44 64.49 64.47 64.36 64.43 65.07 65.45 65.62 66.13 65.42 65.31 63.84 64.76 63.05 63.95 65.15 65.56 65.11 65.55 65.91 65.56 66.33 66.90 66.43 66.09 65.17 63.93 63.59 63.20
67.89 67.79 66.18 64.66 64.52 64.76 64.70 64.91 64.99 65.01 64.72 64.79 65.05 65.36 65.56 63.87 64.97 63.50 62.48 64.05 65.13 66.49 66.35 65.77 65.72 65.55 66.05 66.19 65.80 65.42 64.01 63.48 62.97
69.19 68.08 66.39 65.15 65.05 65.03 64.50 65.66 66.13 65.94 65.73 65.34 64.90 64.88 65.15 62.65 63.82 64.20 63.01 63.56 64.51 66.19 66.58 65.54 66.10 65.63 65.27 65.30 65.15 65.16 64.68 63.69 63.22
68.15 67.63 66.34 66.27 66.07 65.74 65.91 65.89 66.35 66.73 66.36 65.84 65.25 65.50 65.10 63.48 63.55 63.64 63.85 63.98 62.96 65.06 65.82 66.08 66.38 66.76 66.18 65.54 65.28 64.79 64.74 64.32 63.55
66.18 66.90 66.51 66.58 66.92 66.48 65.63 65.61 65.64 65.82 66.24 65.58 65.30 65.19 64.77 62.96 63.39 63.48 63.50 63.93 64.11 64.27 64.49 65.91 66.37 66.45 66.44 66.09 65.71 65.25 64.53 64.83 64.36
65.90 65.88 65.63 65.92 66.10 66.15 65.98 65.76 65.63 66.55 66.01 65.99 65.57 64.31 63.49 62.64 62.12 62.21 63.83 63.53 64.98 65.21 64.62 64.75 65.93 66.32 66.38 67.74 66.38 65.67 65.50 64.79 64.83
65.75 64.58 64.59 65.52 66.02 66.10 66.13 66.00 65.70 65.66 65.40 65.31 64.60 64.41 64.02 63.42 62.73 62.01 63.80 62.97 64.36 64.50 64.88 64.71 64.67 65.43 65.97 66.87 67.09 66.46 65.74 65.62 65.02
66.09 65.80 65.55 65.99 64.19 65.62 65.96 65.82 65.54 64.97 64.97 64.96 65.00 64.84 64.53 64.07 63.62 63.38 63.66 62.67 64.25 64.46 63.82 64.52 64.93 64.62 65.07 65.71 66.48 67.69 67.68 66.91 66.65
65.67 65.44 65.83 65.75 65.89 65.69 66.05 65.77 65.78 65.57 65.38 65.18 64.79 64.78 64.65 64.46 64.22 64.02 62.86 62.44 63.49 64.67 64.58 63.71 63.85 64.88 64.95 65.17 66.19 67.40 67.78 67.65 67.09
66.28 66.09 66.25 66.39 66.39 66.18 65.99 66.01 65.85 65.69 65.67 65.57 65.22 64.99 65.12 65.17 64.96 64.82 62.09 62.34 62.18 63.60 64.95 65.09 64.57 63.94 64.53 64.93 66.06 66.89 67.69 68.10 67.78
66.55 66.45 66.48 66.54 66.67 66.61 66.19 65.86 65.52 65.37 65.57 65.25 65.46 65.24 65.40 65.36 65.14 65.15 64.99 63.02 62.30 62.36 64.17 65.44 65.60 65.57 65.03 64.60 66.15 66.26 67.01 67.76 68.31
66.43 66.14 66.18 66.62 66.71 66.21 66.11 65.78 65.60 65.07 65.04 64.59 64.85 64.87 64.90 64.73 64.81 65.07 65.03 64.76 61.93 61.85 63.02 64.84 65.69 65.77 66.10 66.12 66.05 66.77 66.63 66.59 67.34
65.92 65.81 65.94 66.15 65.78 65.33 64.69 64.10 63.37 63.36 63.17 62.89 63.24 63.42 63.91 64.13 64.12 64.32 64.52 64.42 64.12 63.52 62.48 62.41 63.52 65.27 66.18 66.79 66.90 67.58 66.76 66.52 66.29
65.42 64.51 63.36 62.89 62.85 62.67 62.30 62.10 61.91 60.72 60.86 60.23 61.03 61.60 61.83 62.89 63.73 63.95 63.70 63.82 63.65 63.75 62.41 61.78 61.45 61.90 62.96 65.41 66.67 67.63 67.29 66.65 66.52
59.55 58.35 57.36 58.08 57.86 57.16 56.89 56.89 57.59 57.53 58.08 57.10 57.78 59.56 60.30 61.36 62.19 62.83 63.37 64.21 63.94 63.83 63.63 63.31 62.76 60.28 60.73 61.84 63.52 65.13 66.72 66.76 66.26
55.21 55.14 54.81 54.80 54.53 54.08 54.17 54.08 53.37 53.64 54.74 52.82 53.62 54.33 57.02 59.23 58.38 60.75 59.79 60.46 61.89 63.26 63.98 64.18 62.95 62.37 62.08 62.18 62.03 62.54 63.92 64.97 65.83
52.89 52.93 52.72 52.84 52.62 52.50 52.40 52.42 51.21 51.70 52.43 50.24 50.48 48.16 51.59 54.31 54.82 55.23 55.65 56.35 57.99 60.68 62.23 62.43 62.39 62.55 62.92 61.85 61.70 62.28 62.69 63.83 64.67
50.73 50.72 50.58 50.45 50.69 49.74 50.00 49.74 49.06 47.56 49.46 50.52 48.39 46.03 44.64 48.98 51.35 52.44 53.57 54.63 54.91 56.03 57.28 57.80 58.65 59.88 60.78 60.95 60.33 59.71 60.82 62.12 63.71
47.38 47.68 47.69 47.60 47.95 47.30 47.41 47.36 47.47 47.50 45.59 47.56 48.63 48.92 47.81 44.97 44.58 49.56 50.42 51.55 51.98 52.65 54.24 54.80 55.16 56.21 57.29 58.87 58.34 58.99 60.00 62.05 63.04
44.75 44.84 45.28 44.96 45.19 45.27 45.28 45.06 45.63 46.24 44.81 44.63 45.30 46.17 47.01 46.89 44.54 41.72 43.88 47.16 48.06 49.22 50.99 52.68 54.45 54.73 56.25 58.19 57.96 57.15 57.96 59.38 60.71

GFSFLT1_sfc_wetblb_009.txt.gz
Wetbulb
67.65 67.19 66.40 65.04 64.62 64.77 64.65 64.45 64.46 64.34 64.52 65.11 65.49 65.70 65.92 65.39 64.04 64.31 63.33 62.79 65.06 65.22 65.38 65.60 66.12 65.93 66.33 67.26 66.85 66.62 65.78 65.01 64.22
68.70 67.73 66.80 65.41 64.57 64.49 64.43 64.85 65.61 65.60 65.25 65.12 64.93 64.73 65.94 63.21 62.72 63.27 64.40 62.92 64.60 65.52 66.08 66.36 66.18 66.48 66.05 65.91 66.64 66.17 66.18 65.39 64.13
68.65 68.41 66.92 66.14 65.31 65.22 65.04 65.57 65.87 66.69 66.78 66.49 65.76 65.34 65.60 62.90 61.88 62.73 64.09 65.70 63.53 64.53 65.62 65.87 66.35 66.23 66.51 65.76 65.74 65.72 65.59 65.67 64.81
67.97 68.02 66.43 66.17 66.40 66.67 65.94 65.61 65.82 65.95 66.25 66.61 66.03 66.21 65.69 63.29 62.37 62.63 63.67 65.98 64.95 64.31 64.44 65.62 66.50 66.46 66.89 67.10 66.05 65.73 65.62 65.37 65.34
66.25 66.44 66.73 66.08 66.42 66.30 66.16 66.01 65.73 65.93 66.21 66.14 66.74 66.09 65.49 62.80 62.66 62.96 63.31 66.48 65.11 65.28 64.62 64.84 65.47 66.29 66.96 67.27 67.40 66.36 65.97 65.68 65.35
66.24 66.03 66.36 65.50 66.02 66.19 66.39 66.43 66.27 66.54 66.22 66.29 66.13 65.77 63.91 63.23 63.14 62.38 64.72 65.43 64.84 65.34 65.42 65.40 65.38 65.70 66.32 67.79 68.08 67.98 66.55 66.11 65.78
65.76 64.39 65.32 65.94 66.26 66.41 66.42 66.48 66.70 66.01 64.91 65.46 65.69 64.24 64.65 64.35 63.97 63.81 65.54 64.46 64.43 64.85 64.96 65.01 65.24 65.48 65.55 66.19 67.31 67.56 67.79 67.29 67.12
65.82 65.77 65.84 66.14 64.46 65.54 66.34 66.31 65.87 65.53 65.34 65.18 64.94 65.02 64.86 64.93 64.82 64.91 66.14 65.64 64.96 65.21 65.37 65.28 64.73 65.05 65.59 65.57 65.75 67.45 67.94 68.31 68.24
65.80 65.69 66.23 66.37 66.20 65.80 66.40 66.06 66.12 66.04 65.82 65.73 65.32 65.25 65.24 65.43 65.34 65.38 64.71 66.16 65.47 65.64 65.67 66.09 65.90 65.29 64.92 65.64 65.90 66.83 67.41 67.75 68.09
66.84 66.63 66.72 66.74 66.99 66.42 66.23 66.22 66.15 65.99 66.05 65.99 65.61 65.39 65.49 65.63 65.84 66.13 63.74 64.96 66.03 65.51 65.79 66.01 66.78 66.75 66.28 65.49 66.41 67.02 67.07 67.40 67.65
66.86 66.81 66.83 66.64 66.79 65.92 65.36 65.12 64.59 64.87 65.10 64.51 64.89 64.82 65.12 65.13 65.35 65.64 65.86 64.79 65.39 66.00 65.98 66.32 66.38 67.35 67.67 67.20 67.40 66.73 66.94 67.15 67.22
66.82 66.59 65.94 65.46 65.58 65.28 64.75 64.25 64.01 63.63 63.35 62.63 63.14 63.42 63.28 63.69 63.79 64.27 64.86 65.16 63.61 64.86 66.48 66.49 66.19 66.00 67.03 67.89 67.98 68.02 67.16 66.67 66.86
66.34 65.23 64.07 63.56 63.55 62.77 61.71 60.98 60.24 60.09 59.76 59.67 60.54 60.75 61.19 61.20 61.65 62.64 63.64 64.32 64.22 64.42 65.41 65.89 65.79 65.59 65.68 66.21 67.20 67.80 67.32 67.00 66.73
62.20 59.57 58.23 58.71 58.42 57.40 56.83 56.24 56.05 55.28 55.68 56.03 56.55 56.37 58.35 59.28 59.51 60.32 61.89 62.97 63.83 63.90 63.53 63.15 63.68 64.53 64.79 65.24 65.59 65.67 66.63 66.77 66.58
57.17 56.36 55.69 55.54 55.72 55.06 54.77 53.77 54.70 54.10 54.11 52.91 52.98 55.05 55.20 55.88 56.79 59.18 57.09 56.39 56.09 56.58 58.20 61.57 62.91 62.15 63.87 64.66 65.07 65.12 64.78 64.86 65.72
54.20 54.25 53.87 53.86 53.27 52.87 52.34 51.89 50.99 51.14 52.06 50.27 50.69 50.88 53.90 52.40 54.17 52.95 53.02 54.34 55.93 54.89 56.73 58.57 58.15 60.36 62.31 63.41 63.74 63.72 64.33 64.31 64.06
51.78 51.15 51.12 50.72 50.79 50.25 49.56 49.22 47.86 48.62 49.21 46.80 46.22 44.22 47.15 49.85 49.82 50.89 52.02 51.24 53.91 52.40 54.65 54.32 53.82 54.63 55.48 56.69 59.02 62.22 63.16 63.40 62.96
48.46 48.45 47.95 47.97 48.70 47.80 47.68 47.23 46.64 45.14 47.19 47.35 44.12 41.39 39.88 43.84 47.94 47.93 49.54 48.20 48.18 50.49 49.44 51.03 51.48 51.88 52.05 53.15 54.11 57.29 58.86 59.48 61.08
45.77 45.82 45.98 45.68 46.16 45.39 45.90 45.31 45.62 45.82 43.73 45.31 44.99 45.10 44.22 40.50 39.32 45.24 45.76 46.61 45.71 46.07 47.62 47.22 47.94 49.13 51.44 52.57 52.89 56.08 55.78 56.10 57.23
44.63 44.46 44.62 44.23 44.35 44.11 43.81 44.20 44.04 45.12 43.43 42.42 42.63 42.77 43.93 43.60 39.37 36.32 39.45 42.33 43.67 45.25 45.47 46.47 47.32 48.89 50.03 52.18 51.68 53.86 52.95 54.14 55.00

GFSFLT1_sfc_wetblb_012.txt.gz
Wetbulb
68.02 67.26 66.74 65.86 65.10 64.59 64.20 64.13 64.43 64.71 64.61 64.48 64.23 64.66 65.03 65.77 60.29 59.63 61.03 60.26 63.67 65.71 65.56 65.88 65.70 66.01 66.05 66.69 67.18 67.24 66.71 66.00 65.31
68.99 67.85 66.92 66.27 65.34 64.59 64.05 64.06 65.01 65.97 66.29 65.88 65.87 65.30 65.61 62.13 59.01 58.84 59.21 60.21 64.40 65.07 66.16 66.22 66.33 66.48 66.57 66.30 66.27 66.67 66.90 66.32 66.11
68.92 68.66 67.51 66.28 65.98 65.50 65.33 65.37 65.69 66.04 66.66 67.08 66.85 66.81 65.98 62.68 58.92 58.25 58.83 62.58 66.16 65.33 64.92 65.74 66.14 66.63 66.14 66.78 66.52 66.03 66.25 66.21 66.22
68.40 68.95 67.54 66.65 66.45 66.44 66.67 66.36 65.92 65.66 66.17 66.25 67.09 67.16 66.13 61.87 59.94 60.11 58.64 64.10 66.85 66.53 65.91 65.12 65.54 66.30 66.92 66.52 67.48 67.11 66.27 66.19 66.01
67.89 67.97 68.04 66.94 66.52 66.50 66.04 66.18 66.40 66.36 66.15 66.54 67.31 66.79 66.19 61.99 60.62 60.04 59.45 65.32 65.97 66.28 65.98 65.59 65.41 65.70 66.16 67.31 68.12 67.89 67.57 66.65 66.30
64.60 65.33 66.66 66.22 65.83 66.20 66.44 66.60 66.82 67.31 66.69 66.66 66.28 65.76 62.43 60.56 60.21 59.20 63.28 66.99 65.94 65.79 65.91 65.97 66.08 65.86 65.77 66.04 67.59 68.34 67.89 67.79 67.62
63.35 63.25 64.96 66.18 66.75 66.97 66.63 67.19 67.63 66.65 63.93 62.98 64.49 63.17 61.93 61.27 60.59 59.81 65.88 67.39 66.27 65.81 66.27 66.20 65.82 66.09 65.88 65.86 66.02 66.46 68.18 68.36 68.65
60.91 61.60 62.13 61.62 63.47 62.65 64.20 64.63 64.78 63.31 62.99 61.70 61.29 61.31 61.24 60.61 60.55 62.43 66.33 68.36 67.53 67.10 67.39 67.31 66.19 66.36 66.35 65.93 66.07 66.49 67.57 68.21 68.29
61.06 61.18 61.96 62.00 62.19 61.71 62.16 62.17 62.82 63.21 63.44 63.11 62.53 62.26 61.55 61.47 62.01 62.54 64.92 67.49 68.78 67.97 68.05 68.11 67.52 66.89 66.97 67.20 66.74 67.22 67.48 67.47 67.50
62.69 62.62 62.79 63.97 64.26 63.90 63.45 63.29 63.39 63.33 63.47 63.31 62.77 62.76 62.73 62.68 62.93 63.48 63.28 65.64 67.94 68.90 68.09 67.93 67.75 67.62 67.23 67.43 67.73 67.92 67.40 67.45 67.49
63.10 63.28 64.23 63.83 63.93 63.87 63.27 62.91 62.22 61.64 61.28 60.36 59.28 58.77 58.89 58.71 59.23 60.21 60.45 63.81 65.94 67.96 68.19 68.00 67.95 67.93 67.87 67.32 67.35 67.78 67.85 67.68 67.51
63.47 63.50 62.89 62.57 62.26 60.95 58.31 57.50 57.06 55.98 56.40 55.65 57.00 57.13 56.99 57.30 57.34 57.67 58.19 60.05 62.22 65.04 67.70 68.05 67.29 67.34 67.22 67.31 66.89 67.29 67.31 67.04 67.52
60.84 58.14 54.64 55.18 54.26 53.01 51.53 51.07 50.87 50.25 49.93 50.05 50.72 50.85 52.02 52.73 54.30 55.00 55.93 56.69 56.09 58.61 61.94 65.18 66.23 66.50 66.76 66.62 66.47 66.28 66.67 66.66 66.66
53.66 52.21 50.93 51.09 51.45 50.40 50.06 49.13 48.96 48.03 48.71 49.46 48.61 49.26 49.75 50.09 52.52 51.14 49.99 50.45 51.67 52.44 56.52 58.64 59.83 61.79 63.57 63.60 64.86 64.98 65.35 65.40 65.76
50.67 50.28 49.50 49.59 49.30 48.50 46.90 45.78 46.32 45.97 45.71 46.89 47.51 46.73 47.36 48.53 47.05 46.84 47.91 48.87 50.32 50.17 50.77 50.48 53.29 57.04 58.50 58.83 59.64 60.75 61.51 62.72 64.52
47.48 47.55 47.11 46.75 46.24 45.14 44.95 43.91 42.96 42.81 43.26 42.24 42.30 42.82 44.30 44.64 44.78 45.99 47.10 47.61 47.91 46.93 47.73 48.82 47.36 49.06 54.85 55.72 55.61 56.26 56.96 58.13 60.59
45.72 43.92 43.79 43.37 43.79 42.82 42.24 41.51 41.28 41.69 42.22 39.26 39.05 36.49 39.53 41.25 43.68 44.73 45.22 43.98 44.62 45.10 45.87 44.29 44.72 46.13 45.72 47.52 53.73 54.78 56.53 57.74 59.06
42.86 42.38 41.80 41.34 41.72 40.65 40.25 39.86 39.54 39.14 40.22 40.15 37.27 34.36 33.49 37.44 40.56 41.79 41.73 41.32 42.52 41.39 42.41 43.04 43.88 44.25 44.45 47.50 48.49 51.66 54.91 55.68 56.91
41.77 41.48 40.84 40.05 40.39 38.78 38.84 40.89 38.84 39.00 37.53 38.90 41.18 37.76 36.62 34.41 33.95 37.89 39.51 38.93 40.27 40.09 40.56 41.99 42.77 43.27 44.13 47.65 49.70 52.00 49.48 51.91 53.12
40.70 40.47 39.50 38.80 39.09 38.09 37.79 37.45 37.13 38.29 37.20 36.90 36.52 36.02 35.82 35.85 33.80 31.89 33.97 37.28 38.37 39.52 40.51 40.94 41.61 42.04 41.88 40.36 44.84 48.29 47.83 49.83 51.17

GFSFLT1_sfc_wetblb_015.txt.gz
Wetbulb
69.32 68.03 66.98 66.19 65.62 64.61 64.11 64.08 64.31 64.71 65.03 65.12 64.97 64.58 64.54 66.09 59.49 58.14 58.95 60.21 63.86 64.58 66.28 66.09 66.23 66.06 66.27 66.47 67.12 67.75 67.68 67.07 66.18
69.16 68.39 67.27 66.70 66.08 65.23 64.17 63.98 64.63 65.45 66.20 66.88 66.48 66.12 66.26 62.22 59.39 58.06 58.05 58.25 65.10 66.11 65.72 66.56 66.53 66.64 66.66 66.80 66.69 66.65 67.14 67.35 66.56
69.32 68.49 67.32 66.67 65.90 65.48 65.69 65.60 65.83 65.41 66.06 66.60 67.04 67.50 66.81 63.22 59.99 59.12 57.63 60.91 65.41 66.86 66.39 65.73 65.87 66.58 66.77 67.15 66.85 67.06 66.66 66.56 66.76
68.09 69.58 68.15 66.84 66.22 66.44 66.77 66.86 66.34 66.19 65.97 66.14 67.18 67.36 66.90 63.25 61.12 60.88 58.81 62.20 65.31 66.46 67.38 66.85 66.29 65.90 66.04 66.69 67.23 67.03 67.50 67.05 66.60
68.70 69.02 68.64 67.22 66.91 66.88 66.54 66.04 66.48 66.76 66.77 66.66 67.30 67.01 66.70 63.40 61.81 60.97 59.79 64.49 66.25 66.64 66.62 66.77 66.57 66.35 65.89 65.84 66.29 67.10 67.18 67.10 67.81
63.88 65.74 66.09 67.68 66.46 66.30 66.52 66.81 67.17 67.69 67.19 67.28 66.98 66.13 62.90 61.75 61.15 60.47 62.75 65.46 66.91 67.23 68.08 68.00 66.36 66.66 66.70 66.43 66.15 66.15 66.54 67.57 67.57
63.24 63.04 65.65 66.64 66.90 67.12 67.08 67.49 68.24 67.11 63.96 62.86 64.14 62.23 62.33 61.39 60.91 60.72 64.15 66.35 67.70 68.31 68.92 68.12 67.80 66.44 66.67 66.76 66.81 66.70 66.44 66.43 68.00
59.80 59.41 60.66 60.31 62.06 61.90 63.02 62.48 63.49 63.56 63.53 63.14 62.52 61.92 62.20 61.54 61.64 62.70 65.47 67.78 68.37 69.08 69.69 68.97 68.70 68.27 67.60 67.29 67.39 67.43 66.96 67.17 67.58
59.19 59.29 60.15 60.41 61.16 62.02 62.39 62.88 63.04 62.94 62.99 62.51 62.02 61.94 61.36 61.48 61.89 62.27 64.19 66.68 67.14 67.82 69.40 68.70 68.57 68.36 68.11 67.81 68.38 68.60 67.72 67.79 67.87
61.60 61.60 62.13 63.32 62.86 63.13 62.59 62.40 62.20 59.95 59.28 58.31 56.89 56.93 57.18 57.16 57.86 57.85 60.93 63.55 65.40 66.09 66.39 67.83 68.94 68.79 68.18 67.77 67.74 68.04 67.88 67.15 67.67
62.02 62.73 62.14 61.83 61.34 58.58 55.92 53.13 52.77 51.84 51.99 51.44 52.73 53.55 53.48 52.98 53.89 56.29 56.82 61.42 62.51 61.80 62.43 64.46 66.06 66.19 66.26 66.56 66.51 66.95 67.53 67.53 67.27
61.75 56.17 54.62 55.24 52.71 50.74 50.15 49.75 49.72 49.33 50.06 48.72 49.54 49.37 48.20 49.05 49.71 51.10 51.75 52.30 55.45 58.72 59.55 60.05 60.77 61.86 62.68 64.28 65.00 65.84 65.77 65.67 65.57
53.84 51.21 49.11 49.88 49.47 48.54 47.78 47.31 46.57 46.29 46.28 45.65 45.15 45.48 47.37 47.24 46.72 48.23 45.86 46.26 48.85 52.99 55.96 55.57 58.12 58.30 58.63 59.87 60.86 61.15 61.35 63.33 62.17
49.91 48.14 47.23 47.85 47.49 45.88 45.55 44.46 43.26 42.95 42.99 43.49 43.71 43.48 42.99 44.61 47.11 43.71 44.20 45.35 47.24 46.77 51.52 53.54 53.24 53.06 54.52 56.19 57.15 57.46 57.08 56.95 57.64
47.14 45.93 44.81 45.47 44.73 43.12 42.30 41.13 41.42 41.37 40.79 44.23 42.86 41.26 42.29 42.48 40.95 40.95 44.53 45.14 44.76 44.34 44.27 44.63 44.63 50.72 51.44 52.95 53.88 54.66 55.06 55.24 56.74
43.12 43.24 42.56 42.89 42.06 40.55 40.95 40.43 39.94 40.02 40.41 39.03 38.37 39.73 41.35 39.77 40.61 41.56 42.31 42.73 43.07 42.17 42.68 41.97 42.17 42.54 48.57 49.89 51.35 52.68 52.79 54.66 55.39
42.45 40.84 40.38 40.16 40.22 38.96 38.42 38.07 38.03 39.14 39.14 36.34 35.57 33.93 35.92 37.95 40.18 39.49 40.74 39.30 40.42 41.11 40.97 40.67 41.16 40.56 41.24 43.86 47.42 49.44 51.81 54.31 54.26
40.63 39.95 39.15 38.83 38.64 37.29 36.71 36.77 36.48 36.28 37.46 37.28 35.07 31.55 30.40 34.30 36.99 37.64 37.53 38.10 38.22 38.52 38.96 40.40 40.66 40.86 40.82 42.15 43.65 46.24 47.69 50.84 52.41
40.02 39.47 38.44 37.81 37.80 36.10 36.33 38.09 35.92 35.80 34.52 36.30 38.98 35.11 33.70 30.75 29.69 34.71 36.27 36.78 38.00 37.48 38.17 39.05 39.90 40.32 39.57 41.42 42.56 44.78 46.28 48.54 50.46
39.01 38.33 37.25 36.67 36.73 35.51 35.32 34.77 34.35 34.94 34.25 34.11 34.44 32.92 33.06 32.30 30.10 28.45 30.44 35.44 36.24 37.24 37.28 37.53 38.41 37.75 38.36 37.77 40.36 43.73 45.40 47.64 48.93

GFSFLT1_sfc_wetblb_018.txt.gz
Wetbulb
67.80 68.09 67.28 66.31 65.37 64.34 63.90 64.01 64.19 64.82 65.38 65.73 65.74 65.76 65.46 65.57 59.75 57.95 58.14 59.38 63.25 65.99 65.28 66.63 66.27 66.42 66.37 66.57 66.97 67.67 68.20 67.97 67.47
69.49 69.27 67.29 66.56 65.71 64.97 64.15 64.08 64.63 65.34 65.83 66.45 66.89 66.83 66.90 62.81 59.67 58.46 57.45 57.66 64.80 65.82 66.70 65.85 66.95 66.72 66.60 66.70 66.73 67.02 67.13 67.34 67.42
69.39 68.43 67.23 66.57 65.77 65.46 65.53 65.78 66.14 66.09 65.65 66.02 66.49 67.30 67.17 64.12 60.53 59.79 58.60 60.85 64.52 65.79 66.65 67.08 66.19 65.83 66.20 66.77 66.83 67.14 66.90 67.04 66.84
68.74 68.97 67.87 67.16 66.36 66.46 66.60 66.87 66.43 66.26 66.52 66.51 66.42 67.38 66.95 63.72 61.60 61.53 60.00 62.73 65.68 65.78 66.23 66.92 67.18 66.82 66.41 66.03 66.14 66.38 67.15 66.72 67.30
68.81 69.58 69.10 67.67 67.26 67.15 67.14 66.33 66.31 66.77 67.07 67.18 67.73 67.20 66.49 63.30 62.14 61.79 60.85 64.94 66.86 67.29 67.07 67.00 66.98 67.09 67.05 66.87 66.51 66.14 66.13 66.40 67.00
63.45 66.33 66.67 68.11 67.67 67.10 66.72 66.99 67.39 68.03 67.37 67.46 67.22 66.33 63.12 61.22 61.29 60.93 63.27 65.90 67.66 67.72 67.75 68.49 68.25 67.44 68.16 68.17 67.23 67.12 66.96 66.63 66.48
62.15 62.77 65.70 67.40 67.72 67.44 67.42 67.82 68.38 67.07 64.10 63.05 64.69 62.93 62.51 62.17 61.74 61.39 64.27 66.40 68.32 68.61 69.63 69.22 69.03 68.82 68.32 68.30 67.20 67.47 67.58 67.63 67.22
60.37 59.64 60.26 60.75 61.22 60.75 62.15 61.72 61.36 63.24 63.45 62.71 61.95 61.15 60.46 60.32 60.33 61.99 65.16 65.78 66.17 65.94 66.25 68.34 68.63 68.20 68.11 67.63 67.53 67.95 67.70 67.71 67.71
58.03 58.43 59.16 59.68 61.43 60.42 62.11 62.23 60.39 57.49 56.73 56.08 54.99 55.77 56.08 56.53 57.54 58.42 61.21 62.22 63.29 63.96 64.70 65.72 67.17 68.35 67.95 67.43 67.47 67.63 67.37 67.39 67.20
60.75 61.06 61.06 61.87 61.11 58.32 54.57 53.85 52.06 50.27 50.51 49.90 50.13 50.22 49.00 48.77 50.96 51.63 58.48 58.75 58.17 60.23 61.64 62.73 63.41 64.15 64.84 65.08 65.71 66.08 65.99 66.00 66.34
60.22 56.93 56.07 54.09 53.49 52.50 50.35 48.37 47.50 46.77 47.04 47.49 47.15 46.10 45.78 46.40 46.64 48.99 48.71 54.95 56.06 56.25 58.78 59.56 60.59 62.52 62.14 62.54 62.14 62.16 62.27 62.56 62.93
53.28 52.65 52.21 51.37 49.07 47.55 46.35 45.48 45.21 44.91 45.31 43.39 44.27 44.49 43.61 44.56 44.48 45.23 43.98 45.67 52.33 54.28 55.66 55.73 57.53 56.77 57.79 58.72 59.07 59.22 59.05 58.69 58.68
51.05 49.40 47.30 46.89 45.46 44.86 43.93 43.00 42.55 41.96 41.49 40.59 41.52 40.89 41.85 42.82 43.35 42.66 41.44 43.46 46.32 48.02 51.33 52.79 52.11 52.59 53.56 55.32 56.36 56.40 56.21 56.19 56.34
46.83 45.19 45.12 44.69 43.16 42.12 42.22 40.75 40.60 39.37 39.45 41.26 41.85 39.28 39.77 41.99 41.81 38.19 40.05 42.72 42.38 42.71 46.76 47.51 47.09 49.22 51.27 52.80 53.76 54.18 54.33 54.32 54.10
43.93 42.38 42.67 42.61 41.14 40.05 39.42 38.48 38.79 38.90 38.11 42.15 40.86 38.11 39.67 38.53 37.20 37.47 40.97 40.87 40.87 39.74 40.72 38.64 41.16 47.32 49.16 49.82 51.43 52.49 52.13 52.12 52.91
41.35 40.78 40.61 40.83 39.09 37.72 38.22 37.83 37.41 37.80 37.72 36.29 36.16 37.38 38.27 36.05 37.91 37.59 36.68 38.55 38.50 38.77 38.49 39.48 39.67 40.00 46.03 47.38 48.98 49.58 50.01 50.94 50.68
40.86 39.21 38.73 38.60 37.78 36.59 36.11 35.80 35.76 36.91 36.88 34.13 33.66 31.72 33.87 35.54 37.36 36.29 37.26 35.22 37.30 37.75 38.90 37.82 38.77 38.23 38.62 41.35 45.78 46.15 47.47 49.20 50.68
39.35 38.40 37.75 37.21 36.54 35.27 35.04 34.81 34.43 33.73 35.17 34.94 33.19 29.21 27.99 31.96 34.22 35.55 34.47 36.30 34.97 36.02 37.28 37.80 38.30 38.22 37.51 39.43 40.39 43.61 45.44 47.12 49.18
38.66 37.98 36.96 36.17 35.85 34.43 34.72 36.27 33.92 33.22 32.12 34.08 36.87 33.53 32.15 28.11 27.41 32.38 34.92 33.50 35.13 34.57 34.19 35.58 36.46 37.56 37.80 39.49 41.40 42.68 43.83 46.06 48.36
37.49 36.78 35.73 35.14 35.07 33.87 33.45 33.12 32.32 32.91 32.09 31.93 32.07 30.89 31.20 30.69 28.66 26.88 28.28 32.88 34.46 35.36 35.29 33.91 35.69 36.21 36.35 35.40 37.91 42.07 43.58 45.97 47.18

GFSFLT1_sfc_wetblb_021.txt.gz
Wetbulb
67.69 67.76 67.10 66.10 65.05 64.36 63.87 63.87 63.88 64.23 65.12 65.79 66.22 65.97 65.85 65.93 59.31 58.01 57.96 58.85 62.47 65.08 66.12 66.07 66.60 66.59 66.80 66.59 66.52 67.11 67.88 68.45 68.18
68.56 68.90 67.33 66.43 65.35 64.76 64.07 64.04 64.60 64.94 65.40 65.82 66.25 66.43 67.48 63.51 60.27 59.26 58.24 57.52 64.11 65.15 66.12 66.83 66.06 67.19 67.17 66.38 66.35 66.42 66.54 67.00 67.12
69.17 68.45 67.33 66.63 65.96 65.66 65.49 65.78 66.09 66.29 66.26 66.00 65.97 67.13 66.87 64.37 61.22 60.24 59.41 61.59 65.52 65.73 65.98 66.61 67.26 66.71 66.30 66.02 66.31 66.32 66.94 67.06 67.12
69.25 68.58 67.61 67.30 66.74 66.54 66.53 66.79 66.69 66.26 66.56 66.92 67.08 67.36 66.82 63.87 61.88 61.83 60.83 63.34 66.45 66.97 66.48 66.70 67.19 67.58 67.44 67.04 66.62 66.35 66.38 66.42 67.18
68.16 69.25 68.95 68.07 67.34 67.18 67.22 67.05 66.69 66.99 67.32 67.47 68.01 67.39 66.75 62.96 61.67 61.48 61.21 65.38 67.39 68.18 68.03 68.07 67.98 67.56 68.10 68.41 67.47 67.28 67.08 66.63 66.43
62.66 66.43 67.05 68.28 67.78 67.56 67.31 67.29 67.68 67.95 67.22 67.13 66.77 66.05 62.79 62.42 60.83 60.68 63.42 65.95 67.58 68.41 68.74 68.59 68.29 68.37 69.00 68.68 68.64 67.49 67.69 67.67 67.56
61.64 62.35 65.39 66.77 67.36 67.55 66.68 66.92 66.68 64.11 62.53 62.57 63.66 61.33 60.25 60.34 60.26 60.37 63.93 65.15 66.11 66.40 66.06 66.64 66.89 67.59 67.89 67.81 68.07 68.13 68.03 67.93 67.86
59.03 58.86 59.12 59.90 60.64 59.44 61.19 61.64 61.81 59.19 57.47 56.19 53.94 54.75 54.33 53.76 55.75 57.06 61.34 62.34 63.42 63.58 63.97 64.86 66.16 67.05 67.52 67.42 67.54 67.55 67.54 67.64 67.73
57.41 57.72 58.32 59.33 61.88 60.77 58.19 55.29 53.88 51.42 49.91 49.47 49.29 49.25 48.60 48.82 50.49 52.36 58.05 58.58 60.65 61.46 62.43 63.06 63.31 64.32 64.87 65.30 65.55 65.03 65.20 65.41 65.68
59.67 60.90 58.13 55.28 54.11 53.32 52.17 50.63 47.42 46.46 46.85 46.68 45.16 44.59 44.20 44.55 46.94 46.35 53.93 56.24 55.92 58.43 60.30 59.75 61.96 61.15 61.19 61.62 61.63 61.76 61.92 61.93 61.83
55.53 54.14 52.93 51.83 51.48 50.35 46.95 44.91 44.23 42.96 42.87 42.73 42.67 41.71 40.75 42.35 43.47 41.89 42.54 52.94 53.76 54.77 56.20 58.04 57.15 57.17 57.23 57.68 58.64 58.80 58.79 58.56 58.49
52.87 51.95 50.35 49.03 46.75 44.71 42.89 42.21 42.18 40.86 41.74 39.84 41.40 40.62 39.73 42.07 39.29 39.84 41.01 44.43 48.94 50.57 53.94 53.24 53.15 53.37 54.43 55.77 56.00 56.28 56.28 56.43 56.68
50.49 48.71 45.55 43.76 42.65 41.99 40.57 40.49 40.28 38.64 38.52 38.05 39.78 38.28 39.17 41.14 37.68 38.14 39.54 41.56 41.87 44.43 48.90 48.86 49.44 50.58 52.19 53.33 53.84 54.27 54.17 54.07 53.88
47.38 44.57 42.61 41.42 40.48 39.69 39.61 38.48 38.66 36.83 37.51 39.07 39.94 37.19 37.36 38.89 38.22 36.30 38.30 39.28 38.92 38.66 43.85 45.28 45.65 47.51 49.38 50.57 52.08 52.56 52.58 52.16 52.12
42.07 41.35 40.47 39.99 39.00 37.87 37.02 36.69 36.80 37.01 35.85 39.43 39.03 36.24 37.83 35.87 34.54 35.46 37.66 37.49 36.76 36.88 37.31 36.15 38.33 45.06 46.61 48.09 49.48 50.66 50.29 50.15 50.52
39.74 39.64 39.28 38.51 37.30 35.92 36.25 35.78 35.25 35.95 35.89 34.26 34.89 35.73 36.26 34.80 34.75 35.44 34.43 35.24 35.73 36.23 36.36 37.27 37.00 37.36 44.26 45.38 46.37 47.74 48.46 48.93 49.65
39.49 38.30 37.58 36.85 36.05 35.14 34.37 33.98 33.95 34.40 35.26 32.69 32.11 29.80 31.99 34.09 36.57 34.48 35.06 33.54 34.67 35.80 36.52 35.20 36.13 35.77 35.71 39.11 44.26 44.93 46.45 47.92 48.86
38.10 37.35 36.74 35.75 35.15 33.97 33.31 33.18 32.62 31.69 32.92 33.56 30.76 27.09 26.14 29.72 32.02 32.62 32.97 34.23 32.62 33.45 34.83 35.64 35.89 35.66 35.49 38.10 38.94 42.76 44.10 46.06 48.14
37.56 36.83 35.80 34.93 34.45 33.21 33.26 34.40 32.09 31.55 30.51 32.38 34.80 31.81 30.58 26.96 25.81 30.58 32.86 31.60 33.22 31.58 32.19 33.54 34.26 35.17 34.90 38.10 40.82 41.69 42.88 45.29 47.20
36.07 35.58 34.51 34.04 33.87 32.60 32.07 31.53 30.70 31.33 30.18 30.07 30.20 29.26 29.75 28.85 26.59 25.45 27.11 31.42 32.10 32.74 33.17 31.92 32.38 33.71 34.16 34.15 36.26 41.22 42.87 44.58 46.11

GFSFLT1_sfc_wetblb_024.txt.gz
Wetbulb
67.72 66.98 66.66 66.08 64.84 64.32 63.92 63.94 63.84 64.11 64.72 65.46 65.98 65.96 65.62 66.40 59.55 58.79 58.91 59.30 62.17 64.08 65.45 66.16 66.49 66.76 66.81 66.93 66.67 66.57 67.11 68.06 68.54
68.69 68.38 67.14 66.34 65.20 64.54 64.14 64.11 64.63 65.01 65.34 65.71 66.17 66.55 67.50 63.60 60.83 59.88 59.29 58.68 64.95 65.44 65.28 66.25 66.88 66.59 67.24 67.99 66.06 66.19 66.61 66.57 66.64
69.31 68.61 67.46 66.59 65.76 65.42 65.28 65.88 66.16 66.42 66.45 66.70 66.60 66.98 66.93 64.05 61.24 60.61 59.88 62.33 66.35 67.00 66.42 66.18 66.86 67.38 67.13 66.65 66.54 66.53 66.72 66.97 67.54
69.10 68.46 67.55 66.95 66.54 66.39 66.34 66.80 67.06 66.68 66.84 67.27 67.54 67.78 67.02 63.69 61.84 61.79 61.08 63.80 66.96 67.97 67.93 67.53 67.35 67.61 67.84 68.26 67.82 67.43 67.18 67.06 66.77
67.39 69.07 68.66 67.81 67.13 67.07 67.25 67.29 67.22 67.48 67.53 67.59 67.95 67.15 66.28 61.66 60.99 60.75 60.74 65.72 67.68 68.38 68.61 68.66 68.50 68.70 68.55 69.14 68.99 68.27 67.90 67.74 67.51
61.88 65.93 67.44 68.00 67.64 67.50 67.37 67.42 67.67 66.90 65.25 65.36 65.00 64.07 60.68 60.09 60.49 59.70 63.27 65.15 66.74 67.36 67.36 66.78 67.14 67.55 68.22 68.53 68.28 68.39 68.36 67.97 68.27
60.96 61.74 63.96 65.41 65.76 65.30 64.99 65.44 64.77 62.78 60.11 57.13 57.37 54.56 53.31 54.08 55.18 55.85 62.14 63.31 64.42 64.47 64.47 65.15 66.10 66.83 67.60 67.68 67.63 67.64 67.77 67.87 68.05
58.27 58.20 58.30 58.38 60.41 59.22 61.48 56.96 54.18 52.38 50.47 49.94 48.98 48.53 48.70 47.38 50.28 54.31 58.86 60.83 62.38 62.69 63.10 63.47 63.86 65.21 65.47 66.17 65.53 65.08 65.25 65.59 65.61
56.93 57.41 58.73 59.32 60.17 53.96 53.43 51.78 48.80 46.90 46.81 45.76 44.79 44.42 44.65 44.52 46.76 47.14 57.22 56.99 59.02 61.14 60.77 61.23 62.28 61.57 61.70 62.06 61.99 62.19 62.29 62.21 61.91
59.21 58.33 54.18 53.06 52.47 51.60 49.22 46.11 44.31 43.03 42.90 42.38 42.24 39.72 40.49 42.76 42.21 40.57 54.46 54.37 55.62 56.96 58.59 59.44 58.62 57.81 57.83 58.40 59.30 59.19 59.13 59.10 59.01
54.57 52.66 51.60 50.41 49.50 45.86 43.61 42.26 40.75 39.66 39.79 39.99 40.74 37.83 40.23 39.41 38.07 39.32 42.18 51.05 51.70 54.86 55.24 55.54 54.95 55.44 56.37 57.02 56.67 56.54 56.83 56.83 57.14
52.71 50.64 48.51 47.29 44.71 41.70 40.73 40.42 39.10 38.31 39.23 37.49 39.44 37.86 38.51 37.71 36.06 38.15 39.43 42.00 47.17 50.64 51.67 52.18 51.94 52.63 53.59 54.72 54.72 55.00 55.08 55.18 54.87
50.11 47.40 45.00 41.75 40.60 39.61 38.65 38.96 37.92 36.49 35.98 35.28 37.31 36.41 37.71 37.22 35.07 37.13 37.39 39.31 38.26 42.50 47.74 48.07 48.42 49.49 50.72 51.88 52.95 53.45 53.45 53.12 52.94
47.12 44.79 41.53 39.34 38.35 37.58 37.98 36.62 37.18 35.13 35.27 36.51 37.41 35.29 35.52 35.82 36.67 35.39 35.89 36.73 35.79 36.71 42.36 43.96 44.52 46.34 48.06 49.79 51.32 51.55 51.60 51.65 51.56
42.68 39.81 38.48 38.35 37.30 36.07 35.66 35.19 35.04 35.61 34.23 37.28 36.69 34.95 36.78 34.42 33.34 34.87 35.91 35.35 34.74 35.63 35.75 34.48 36.55 43.87 45.38 47.11 48.58 49.10 49.85 49.97 50.43
39.38 38.34 37.33 36.92 35.90 34.38 34.81 33.98 33.43 34.07 34.26 32.96 33.59 34.09 34.56 34.78 34.23 34.09 32.96 34.00 34.23 34.74 34.62 35.38 35.07 35.59 42.93 44.10 45.20 46.92 47.89 48.67 49.33
38.68 37.05 36.05 35.59 34.94 33.89 33.16 32.63 32.38 32.27 33.12 30.47 30.31 28.11 30.60 32.75 35.11 32.88 33.78 31.79 33.34 34.06 35.08 33.10 34.69 34.45 34.22 37.92 43.59 43.86 45.88 47.47 48.49
37.13 36.31 35.47 34.59 34.40 33.14 32.38 32.01 31.61 30.49 31.45 32.19 29.43 26.01 24.60 28.06 30.89 31.73 32.22 31.32 31.73 31.55 32.82 33.50 34.32 34.06 33.26 37.38 37.59 41.70 43.77 45.67 47.64
36.45 35.72 34.83 34.06 33.69 32.39 32.92 32.92 30.94 30.45 29.27 30.56 33.27 30.17 29.41 25.52 24.61 28.98 31.26 30.02 32.30 30.05 29.41 31.99 32.69 32.94 34.00 36.78 39.65 41.42 42.37 44.96 47.10
35.17 34.60 33.80 33.28 33.06 31.66 31.23 30.36 29.65 30.21 28.81 28.76 28.74 27.73 28.23 27.01 25.13 24.09 25.63 30.07 31.05 31.26 30.27 29.85 31.22 32.26 32.58 32.39 35.40 40.55 42.71 44.61 45.88

GFSFLT1_sfc_wetblb_027.txt.gz
Wetbulb
67.45 67.07 66.60 65.60 64.92 64.51 64.34 64.45 64.34 64.78 65.23 65.66 66.16 66.16 66.05 66.12 66.14 65.47 64.78 64.85 63.87 65.38 64.95 65.99 66.54 67.27 67.32 67.04 67.08 66.95 66.85 67.25 68.44
68.28 67.92 67.01 66.10 65.24 64.72 64.55 65.14 65.65 65.96 66.12 66.04 66.00 66.29 67.20 66.08 65.95 65.65 65.38 65.05 65.84 66.77 66.44 66.06 66.71 67.12 66.88 67.42 68.22 66.40 66.49 66.74 67.05
68.84 68.68 67.56 66.55 65.61 65.51 65.54 66.36 66.72 66.79 66.61 66.82 67.01 67.28 67.14 65.69 65.75 65.70 65.66 64.94 66.53 67.70 67.55 67.25 66.97 67.40 67.90 67.53 67.07 67.11 66.97 67.10 67.17
69.83 69.07 67.89 66.93 66.44 66.42 66.34 67.11 67.40 67.29 67.45 67.71 67.75 67.85 67.00 66.91 66.62 65.49 65.85 64.38 67.23 68.35 68.41 68.67 68.52 68.26 68.14 68.34 68.74 68.55 68.04 67.82 67.77
67.77 68.64 68.56 67.37 67.19 67.06 67.37 67.58 67.98 67.80 67.40 66.76 65.90 65.45 64.20 65.28 64.95 64.86 64.51 65.73 67.29 68.02 68.02 67.49 67.44 68.14 68.58 68.85 68.64 68.57 68.26 68.30 68.27
64.69 66.30 67.55 67.23 67.03 67.02 66.93 66.70 66.23 64.69 62.89 61.73 60.44 60.72 61.06 61.49 60.81 61.73 63.46 64.23 65.53 65.97 65.67 65.98 66.60 67.13 67.55 67.99 67.83 67.79 68.00 68.17 68.35
63.49 62.81 63.44 63.85 64.52 64.10 65.09 62.54 58.60 56.87 56.30 56.81 56.16 55.85 55.50 56.12 57.41 58.84 60.62 62.28 63.64 64.00 64.34 64.18 64.59 65.91 66.63 66.62 66.48 66.50 66.73 66.88 66.74
63.23 63.63 63.75 64.33 62.49 64.14 57.11 54.69 53.37 54.41 54.54 53.64 52.78 52.28 52.60 54.57 53.10 57.34 59.14 59.62 60.80 61.88 61.78 63.13 63.03 62.98 63.06 63.14 63.25 63.30 63.34 63.18 62.75
62.76 63.19 63.91 60.71 56.29 54.05 53.19 51.76 51.72 50.84 50.27 50.26 48.76 47.85 50.47 50.88 50.23 55.20 55.81 58.08 59.68 59.44 61.50 60.66 59.59 59.18 59.30 60.00 60.57 60.23 60.19 60.14 60.07
63.68 57.91 54.63 53.63 52.83 51.47 51.13 50.28 48.41 47.79 47.39 48.21 47.29 47.18 49.80 47.51 48.49 51.10 53.69 53.82 55.89 58.14 58.17 57.30 57.22 57.55 58.00 58.43 57.74 57.60 58.00 58.12 58.33
55.69 53.63 52.07 50.59 49.15 48.08 49.06 46.97 46.19 45.58 45.53 46.28 46.50 45.74 47.93 44.85 46.74 47.11 49.70 51.59 53.73 54.13 54.37 54.58 54.39 54.89 55.59 56.18 55.80 55.86 56.40 56.54 56.49
53.39 51.12 49.29 47.93 46.10 47.11 47.34 46.20 45.31 44.69 44.15 43.93 46.14 44.93 47.48 44.06 44.60 45.70 46.40 45.57 47.82 50.25 51.26 51.16 51.17 51.58 52.75 53.88 54.10 54.34 54.40 54.62 54.45
50.91 48.38 46.18 45.05 46.39 45.94 45.23 45.52 44.80 43.45 43.10 43.44 44.84 44.47 45.84 43.19 43.59 43.96 45.22 44.01 44.06 45.35 47.22 46.87 47.80 48.65 50.06 51.62 52.48 52.72 52.59 52.76 53.26
47.92 46.70 45.43 44.94 44.47 44.35 44.11 43.11 44.08 42.08 42.50 42.76 43.96 43.20 44.39 43.12 42.83 42.54 43.52 42.80 42.93 43.81 42.67 43.19 43.40 45.13 47.05 49.08 50.63 51.22 50.78 51.18 51.77
44.58 44.79 44.10 43.97 43.14 42.43 42.63 41.74 42.18 41.44 40.69 40.93 41.41 43.56 45.13 42.96 43.13 42.91 41.71 42.48 41.42 42.20 41.69 41.26 40.93 42.67 44.61 46.23 47.52 48.76 49.40 49.46 50.32
43.03 43.45 42.75 42.64 41.61 41.08 41.09 41.49 40.19 39.98 40.46 40.42 41.06 42.28 41.89 43.01 43.51 41.43 41.66 41.20 40.53 41.07 40.80 40.50 40.05 40.11 42.55 43.13 44.30 46.39 47.51 48.17 49.13
42.93 42.69 41.66 41.45 40.92 40.46 39.89 40.09 39.84 39.17 39.29 37.31 37.65 36.21 39.45 40.91 40.82 41.05 40.54 40.03 40.15 40.01 39.81 39.08 38.86 39.40 39.62 40.19 42.72 43.48 45.15 47.11 48.62
41.97 41.53 41.08 40.89 41.00 39.54 39.00 39.13 38.85 37.34 38.00 38.29 37.12 35.12 33.83 34.62 38.95 39.27 39.45 38.90 38.33 38.46 38.25 37.82 38.12 38.19 38.57 39.45 39.95 41.23 43.16 45.49 47.58
40.76 40.69 40.49 40.07 39.63 39.17 38.56 38.25 38.13 38.23 35.93 37.78 37.04 37.56 36.35 32.75 31.67 36.88 37.55 37.38 36.15 36.52 36.77 36.86 36.97 37.45 37.81 38.58 39.31 40.43 42.03 44.84 47.15
39.96 39.90 39.46 38.89 38.54 37.93 37.73 37.05 37.02 37.06 36.40 35.99 35.68 35.15 35.38 34.65 31.78 29.65 32.79 34.93 36.21 36.17 36.01 35.93 36.30 36.93 37.38 37.50 37.92 40.17 42.20 44.32 45.96

GFSFLT1_sfc_wetblb_030.txt.gz
Wetbulb
67.31 67.32 66.57 65.55 65.21 64.99 65.18 65.01 65.18 65.47 65.52 65.81 66.20 66.95 66.77 66.49 66.89 66.88 66.48 66.21 65.49 66.39 65.87 65.61 66.42 66.85 67.92 67.81 67.20 67.29 67.15 67.33 67.71
68.12 67.75 66.98 65.83 65.38 65.14 65.30 65.89 65.92 66.16 66.40 66.53 66.42 66.17 66.31 66.69 67.19 67.03 67.04 66.89 65.96 67.33 67.29 67.06 66.57 67.00 67.41 67.31 67.66 68.08 67.34 66.80 66.88
68.94 68.50 67.45 66.54 65.75 65.66 65.80 66.58 66.95 66.87 66.67 67.10 67.35 67.23 67.22 66.99 67.72 67.68 67.86 66.46 66.75 68.19 68.47 68.05 68.10 67.63 67.82 68.25 68.26 67.61 67.51 67.36 67.51
69.64 69.02 67.88 67.02 66.45 66.45 66.58 67.24 67.54 67.61 67.63 67.67 67.43 66.92 66.50 67.51 67.56 67.23 67.37 65.87 68.02 68.92 68.58 68.85 68.70 68.78 68.90 68.70 68.53 68.95 68.99 68.56 68.31
69.50 68.74 68.35 67.37 67.21 67.21 67.58 67.54 67.35 67.00 66.45 65.26 64.32 63.74 64.58 66.51 66.59 66.43 64.78 64.95 66.72 67.41 66.60 66.85 67.05 67.64 67.92 68.10 67.92 68.18 68.67 68.75 68.61
67.04 67.19 67.64 66.84 66.79 66.96 66.08 66.13 64.90 62.98 61.01 59.51 58.29 60.73 63.85 64.08 63.51 64.21 61.78 64.16 65.24 64.95 65.28 64.87 65.41 66.73 67.23 67.10 67.26 67.49 67.67 67.55 67.57
65.64 64.99 64.48 64.19 64.28 64.53 63.12 59.81 57.80 60.23 62.79 61.32 60.21 60.90 60.10 60.83 60.96 61.53 61.31 62.58 62.88 63.62 62.69 65.12 64.22 64.01 64.14 64.21 64.42 64.58 64.63 64.46 63.99
65.90 66.48 66.02 67.21 63.36 66.52 60.41 58.26 60.42 59.23 59.28 59.01 58.06 56.42 57.03 58.52 57.66 58.41 58.45 60.64 62.59 61.44 63.40 62.18 61.01 60.75 60.92 61.51 61.80 61.48 61.52 61.51 61.43
65.74 66.22 67.14 65.51 63.32 58.74 55.87 58.62 57.54 56.08 54.51 54.17 52.92 52.28 53.78 54.00 54.99 56.28 55.64 56.85 58.59 60.59 60.73 59.02 58.98 58.96 59.36 59.76 59.23 58.92 59.28 59.61 59.58
66.09 65.23 62.54 58.88 55.73 55.40 58.70 57.00 55.00 53.07 51.48 51.80 50.83 50.62 52.67 51.86 53.32 54.51 53.43 55.19 56.94 57.13 57.01 56.71 56.50 56.61 56.99 57.41 57.15 56.92 57.63 57.89 57.99
62.97 56.23 54.64 52.59 54.01 53.10 55.52 53.26 51.86 51.01 49.97 49.69 50.02 49.04 51.85 50.62 51.75 52.14 52.09 52.63 53.22 54.02 53.84 53.36 53.22 53.65 54.32 54.87 55.12 55.22 55.83 55.87 56.17
57.44 54.48 53.02 50.26 50.03 51.97 52.75 51.09 51.01 50.49 48.97 48.25 49.05 48.87 49.89 49.73 49.48 50.54 50.08 49.07 49.19 50.28 50.29 49.94 50.16 50.71 51.77 52.76 53.38 53.62 54.00 54.04 54.10
54.24 51.86 50.48 51.16 50.47 51.42 50.89 51.00 50.35 48.89 48.25 48.14 49.09 48.53 47.96 48.38 48.24 49.03 48.83 47.98 47.68 47.12 46.06 46.25 46.85 47.98 49.30 50.71 51.77 52.18 52.40 52.35 52.46
52.64 50.92 50.88 50.89 50.14 49.87 48.60 48.47 48.19 47.16 46.92 46.54 47.34 47.81 48.07 48.12 46.60 46.83 47.29 46.59 46.61 46.48 43.79 43.10 43.54 44.70 46.84 48.52 49.61 50.27 50.75 50.63 51.19
49.73 50.60 48.68 49.51 48.91 47.84 47.58 46.55 46.27 45.31 45.13 44.77 45.59 48.42 49.36 47.84 47.25 46.96 45.50 46.26 45.48 45.39 44.94 44.95 44.57 44.03 44.47 45.85 46.98 48.10 48.97 49.44 49.91
46.65 49.39 48.58 48.68 47.58 46.47 46.21 45.62 44.94 44.36 44.55 44.89 46.23 46.67 46.17 46.07 47.13 47.00 45.46 44.73 44.19 44.29 44.06 43.58 43.19 43.04 43.97 44.24 44.42 46.19 47.21 47.96 48.69
46.23 48.72 47.78 47.07 46.21 45.46 44.95 45.22 44.57 43.88 43.61 41.88 42.96 42.15 43.55 44.96 45.11 45.16 44.53 43.55 44.03 43.03 42.61 42.38 42.11 42.12 42.09 42.48 42.99 43.34 45.16 46.81 48.14
47.21 46.12 47.16 46.74 46.41 44.70 44.17 44.19 43.37 43.09 43.03 42.12 40.90 40.03 39.79 39.66 43.43 43.18 42.57 42.72 41.93 41.87 41.77 41.40 41.27 41.16 41.20 41.56 41.65 41.72 42.80 45.12 47.53
44.36 46.03 46.43 45.86 45.18 44.21 43.15 43.10 43.00 43.27 41.43 42.79 40.86 40.96 39.58 37.10 36.53 41.44 41.34 41.57 40.00 40.76 40.86 40.49 40.50 40.52 40.60 40.71 40.63 40.58 41.81 44.49 46.64
44.72 45.68 45.21 44.49 44.22 43.32 42.47 42.04 41.94 42.14 41.49 40.77 40.31 39.84 39.47 38.90 35.98 34.34 37.79 39.71 40.75 40.59 39.90 39.76 39.68 40.11 40.22 40.07 39.93 40.42 41.87 43.90 45.39

GFSFLT1_sfc_wetblb_033.txt.gz
Wetbulb
67.87 67.36 66.00 65.73 65.58 65.68 65.89 66.00 66.25 66.22 66.13 66.07 66.18 66.46 66.63 67.02 67.03 66.63 66.63 66.63 66.25 67.17 66.86 66.21 65.88 66.83 67.39 68.22 68.07 67.71 67.48 67.20 67.48
67.87 67.62 66.49 65.93 65.76 65.78 66.36 66.60 66.65 66.65 66.67 66.83 66.86 66.59 66.67 66.15 66.94 66.85 67.00 67.35 66.96 67.96 68.30 67.85 67.81 67.24 67.41 67.64 67.79 67.79 68.11 68.24 67.11
68.66 68.23 67.26 66.40 66.13 66.15 66.32 67.16 67.41 67.20 67.11 67.47 67.61 67.50 67.57 66.55 66.37 66.11 66.14 66.92 67.65 68.75 68.97 68.83 68.97 68.90 68.68 68.28 68.37 68.74 68.19 67.97 67.83
69.61 68.91 67.82 67.01 66.73 66.81 67.23 67.71 68.10 67.82 67.89 67.29 66.36 66.24 66.69 66.20 66.21 66.27 65.66 66.40 67.67 68.27 67.74 67.88 67.86 68.27 68.31 68.61 68.38 68.59 69.15 69.24 69.11
69.99 69.16 68.38 67.60 67.38 67.58 67.44 67.27 66.85 66.67 65.72 64.11 63.15 63.82 65.49 65.80 65.37 64.96 62.50 65.67 66.59 66.49 66.67 66.16 66.60 67.80 67.75 67.83 68.05 68.12 68.28 68.27 68.10
67.53 67.30 68.31 67.64 67.07 66.46 66.31 65.13 64.86 62.93 61.70 59.43 59.59 60.99 62.91 62.85 62.76 62.69 62.94 63.93 64.76 65.59 64.40 66.23 66.11 65.54 65.48 65.39 65.58 65.81 65.74 65.56 65.22
66.73 66.13 66.33 66.03 65.56 65.33 62.45 59.71 59.15 60.12 62.84 61.73 60.57 61.17 60.70 60.59 60.23 58.92 60.30 61.64 62.26 63.28 64.02 63.63 62.74 62.40 62.47 63.08 63.10 63.00 63.02 63.09 62.92
64.79 65.44 64.72 65.57 63.67 64.53 62.14 61.04 61.41 60.47 59.79 59.81 58.92 56.42 56.42 56.88 56.63 56.93 58.31 60.37 60.72 61.87 62.58 60.90 60.55 60.60 60.79 61.15 60.67 60.49 60.72 61.10 61.02
64.51 65.11 66.14 66.08 65.12 62.17 60.11 60.49 59.16 57.87 56.39 55.06 53.63 52.88 54.16 54.03 54.22 54.01 55.28 56.97 59.87 61.04 59.34 58.76 58.41 58.38 58.84 59.11 58.54 58.28 58.64 59.07 59.19
65.37 65.80 65.07 62.51 61.07 59.63 60.21 59.00 57.28 55.00 52.77 52.44 52.01 51.06 52.33 51.84 52.24 53.82 56.04 56.43 56.79 57.18 56.71 55.98 55.64 55.63 55.85 56.10 56.35 56.18 56.45 57.07 57.07
66.08 63.59 60.87 58.08 57.83 57.89 57.82 55.42 53.16 51.91 51.00 50.49 50.51 50.02 50.77 50.13 50.95 51.58 51.64 52.94 53.51 53.77 53.26 52.76 52.53 52.61 53.21 53.88 54.25 54.37 54.71 55.39 55.54
64.01 60.63 57.50 55.80 55.51 54.92 54.67 52.38 51.54 51.17 50.48 49.99 49.60 49.70 49.02 49.68 49.25 50.15 51.03 49.57 50.27 50.10 49.56 49.41 49.81 50.44 51.53 52.50 52.99 53.38 53.42 53.85 54.18
61.67 57.81 54.81 54.81 54.25 54.30 52.29 51.47 50.86 50.07 49.52 48.76 49.64 49.07 49.14 48.97 48.22 48.84 48.97 48.94 47.93 47.76 46.16 45.83 46.98 47.24 49.12 51.02 51.91 52.07 52.08 52.33 52.39
58.80 55.72 55.31 54.39 53.14 52.01 50.39 49.53 48.89 48.43 48.53 47.73 48.25 49.08 48.74 49.47 47.59 47.41 47.54 47.34 47.11 46.92 46.02 43.74 45.92 45.65 47.20 48.56 50.09 50.61 50.73 50.85 51.39
57.63 54.97 53.47 52.69 51.50 50.11 49.57 48.49 47.88 46.72 46.30 45.80 46.83 48.85 48.87 49.51 48.37 47.25 46.48 46.56 45.92 46.26 46.45 46.04 45.84 46.44 46.09 46.93 47.65 47.97 49.33 49.52 49.69
53.50 51.48 50.41 51.74 50.64 49.62 48.90 47.56 47.01 45.79 45.69 46.51 47.65 48.04 46.88 46.33 47.39 47.97 46.88 46.60 45.88 45.36 45.34 44.32 43.80 43.45 45.31 45.49 45.14 46.74 47.03 48.09 48.80
50.70 50.10 48.63 50.17 48.84 48.05 47.55 47.58 45.84 45.07 44.88 42.47 44.76 43.53 44.55 45.37 46.29 46.69 44.70 44.36 45.15 44.34 43.75 42.85 42.69 42.69 42.34 43.11 44.22 44.01 45.14 47.04 48.04
50.15 49.86 49.73 49.63 49.48 47.62 47.26 46.63 45.77 44.34 44.13 43.25 41.00 41.15 40.63 40.20 45.20 44.61 44.51 43.46 43.75 43.08 42.95 42.50 42.22 41.93 41.45 42.17 42.27 42.68 43.37 45.15 47.53
48.33 48.00 47.64 48.38 48.11 46.62 45.75 45.26 44.76 44.65 42.33 43.48 41.71 41.44 39.99 37.10 36.44 43.12 42.92 43.43 40.90 41.97 42.23 41.72 41.34 41.20 41.07 41.90 42.29 42.57 42.41 44.57 46.82
46.74 47.07 47.50 47.21 47.25 45.58 44.31 43.99 43.34 42.90 41.68 41.14 40.66 40.63 40.54 39.80 36.95 34.46 38.22 40.72 41.57 41.60 41.46 40.85 40.73 40.55 40.67 40.25 40.75 41.85 42.49 44.51 45.83

GFSFLT1_sfc_wetblb_036.txt.gz
Wetbulb
68.10 66.50 66.21 66.22 66.30 66.38 66.62 66.78 66.89 66.99 66.95 66.61 66.38 66.26 66.60 67.74 64.32 63.08 64.66 63.96 67.35 67.89 67.87 67.06 66.50 66.33 66.90 67.56 68.17 67.78 67.78 67.71 67.05
68.32 67.05 66.44 66.38 66.47 66.90 67.48 67.73 67.73 67.46 67.36 67.49 67.29 67.08 67.60 65.02 64.86 64.45 65.65 66.27 68.09 68.29 68.25 68.11 68.33 68.46 67.86 67.59 67.96 68.46 67.82 67.75 68.12
68.69 67.77 66.91 66.75 66.94 67.12 67.67 68.05 67.97 67.67 67.64 67.77 67.73 67.99 67.55 65.05 64.55 64.42 63.77 67.62 68.68 69.06 68.78 68.58 68.57 68.71 69.02 69.00 68.69 68.46 68.82 68.85 68.32
69.54 68.32 67.57 67.18 67.36 67.61 67.92 68.23 68.11 67.98 67.73 66.68 66.02 66.56 66.32 63.79 63.74 62.40 61.79 67.41 67.60 67.67 67.60 67.36 68.14 68.60 68.55 68.67 68.68 68.64 68.96 68.91 68.79
69.92 68.80 68.36 67.77 67.79 68.03 67.48 67.26 66.98 66.76 65.39 63.30 62.87 64.04 64.28 61.72 60.07 59.53 61.66 65.60 65.96 66.51 66.07 67.28 67.07 66.67 66.28 66.49 66.67 66.52 66.44 66.23 66.14
67.14 66.99 68.06 68.60 67.65 66.75 66.70 65.86 65.65 64.55 63.49 62.18 62.03 61.69 57.13 56.85 58.17 57.12 62.55 63.34 64.19 64.18 65.98 65.10 64.30 63.78 63.80 64.18 63.98 63.90 64.02 64.14 64.06
66.67 65.82 66.80 67.61 66.75 66.40 63.85 62.10 62.49 62.73 57.98 56.39 59.83 53.70 53.20 54.38 54.97 56.64 61.34 63.49 63.97 64.12 63.23 62.40 62.09 61.99 62.49 61.91 61.66 61.59 61.92 62.13 62.00
63.64 62.81 62.87 62.38 63.34 60.91 59.90 57.50 57.24 55.48 54.67 53.21 50.81 49.81 49.70 49.42 53.23 55.82 58.39 59.12 59.90 63.43 61.30 60.51 60.12 60.10 60.57 60.28 59.75 59.38 59.67 60.22 60.22
59.99 61.96 61.52 63.03 62.70 57.98 56.18 55.31 54.42 53.01 50.52 48.73 47.91 47.03 47.98 47.36 50.33 53.14 58.22 59.33 60.77 60.54 59.02 58.33 57.65 57.65 57.61 57.57 57.61 57.46 57.40 58.10 58.01
60.33 61.35 61.09 57.80 57.00 56.35 55.42 53.38 51.43 48.00 47.25 46.81 46.28 44.98 45.06 44.73 47.31 50.49 57.49 56.91 57.21 57.44 56.40 55.82 55.22 54.81 54.90 54.95 55.23 55.28 55.79 56.08 56.42
61.22 59.59 57.66 55.93 55.17 53.97 51.50 49.03 47.01 45.49 45.22 45.33 44.83 43.87 43.53 43.83 45.21 47.93 50.34 54.41 54.38 54.12 53.23 52.61 52.45 52.76 53.44 53.93 54.06 54.20 54.62 54.99 55.49
59.07 56.07 53.68 52.41 52.08 51.32 49.01 47.03 46.15 45.46 45.69 43.94 44.26 44.02 42.77 43.83 43.19 44.88 45.36 47.85 52.30 50.48 49.43 49.51 49.92 50.24 51.38 52.73 53.58 53.60 53.48 53.33 53.85
57.26 54.40 51.65 49.98 49.70 49.25 47.00 45.87 44.96 43.77 43.12 42.13 42.61 42.74 43.30 42.77 42.69 44.15 43.20 43.54 44.81 47.48 47.39 46.63 47.91 48.21 49.36 50.85 52.10 52.36 52.33 52.30 52.54
55.77 51.99 51.39 50.32 48.47 46.86 45.88 43.50 42.95 41.73 41.61 42.35 41.18 41.96 42.96 43.28 44.05 41.95 42.70 42.26 42.04 41.43 45.94 45.38 47.57 47.58 48.52 49.29 50.49 50.72 50.65 51.19 51.42
53.01 51.89 50.18 48.58 47.04 45.03 44.34 42.37 41.91 40.79 40.35 43.60 43.34 41.82 42.08 42.59 41.15 41.19 42.92 41.44 41.38 40.64 40.71 39.77 40.26 46.60 47.27 48.28 48.91 48.49 49.62 49.50 50.08
51.22 48.87 48.03 47.43 45.70 44.43 43.40 42.69 41.69 39.46 39.68 39.68 40.22 40.94 40.49 40.80 41.07 41.41 40.95 40.48 40.89 39.91 39.54 37.92 37.67 38.32 44.99 45.36 46.28 47.43 47.58 48.38 49.34
48.47 47.02 46.48 46.38 46.13 44.94 42.41 42.16 40.58 39.40 38.83 36.38 36.94 36.06 37.88 39.23 40.45 40.57 39.80 38.11 38.78 39.03 38.98 37.45 37.60 36.56 36.52 39.41 44.86 45.20 46.10 47.46 48.43
48.03 47.13 46.65 46.15 45.45 43.94 42.63 41.35 40.78 38.50 38.01 37.29 35.42 33.36 32.87 33.30 37.57 38.35 37.82 37.33 36.89 36.38 37.56 38.15 37.89 36.95 35.90 39.11 39.87 43.02 44.38 46.17 47.91
48.42 48.24 48.05 46.05 44.53 42.11 41.14 41.94 39.48 38.80 36.92 37.42 39.17 35.69 34.23 31.02 29.93 35.32 35.81 36.86 36.22 35.57 35.55 36.05 36.59 36.59 35.82 39.64 41.82 42.83 43.78 45.38 47.34
47.20 46.82 46.52 45.70 44.72 41.39 40.11 39.13 38.19 37.49 36.52 35.93 35.19 34.15 34.26 33.73 30.88 28.60 31.14 33.96 35.17 35.37 35.54 34.86 34.81 35.93 35.85 35.27 38.07 42.17 43.61 45.20 46.58

GFSFLT1_sfc_wetblb_039.txt.gz
Wetbulb
66.88 66.67 66.56 66.51 66.63 66.74 66.96 67.09 67.15 67.29 67.07 66.76 66.30 66.00 66.30 67.46 63.81 63.57 66.15 63.91 67.80 68.03 67.60 67.31 67.09 66.18 66.38 66.73 67.25 67.66 67.31 67.70 67.20
67.13 66.78 66.73 66.87 67.35 67.68 67.96 68.05 67.91 67.71 67.77 67.71 67.21 67.08 67.65 64.52 64.49 65.06 65.79 66.53 68.87 68.49 67.93 68.87 68.69 68.88 68.67 67.82 67.28 67.99 68.58 67.53 67.69
67.93 66.97 67.03 67.18 67.46 67.99 68.29 68.33 68.15 68.13 68.08 67.88 67.53 67.69 67.14 64.65 63.43 62.38 63.75 68.62 68.53 68.67 68.29 68.59 68.94 69.02 68.91 69.39 68.88 68.82 69.05 69.02 68.96
68.63 67.68 67.33 67.75 67.80 68.20 68.47 68.55 68.31 68.35 67.42 66.12 65.36 65.96 65.41 61.82 60.28 61.47 61.81 68.18 67.89 67.35 66.50 68.35 67.94 67.34 67.52 67.82 67.48 67.21 66.81 67.11 67.65
69.58 68.64 68.27 67.94 68.24 68.25 67.93 67.69 67.67 67.34 65.71 63.46 63.82 62.74 61.66 58.40 58.28 59.61 62.56 66.22 67.01 66.02 67.27 66.62 65.34 65.12 65.41 65.40 64.90 64.76 65.18 65.36 65.46
67.35 66.58 67.84 68.76 68.29 67.48 67.24 67.01 66.44 65.39 64.06 62.98 61.86 59.90 53.67 55.80 55.76 57.82 64.55 63.36 64.68 65.88 64.64 63.76 63.58 63.97 63.85 63.01 62.84 62.94 63.23 63.33 63.34
66.26 65.61 67.33 68.47 67.68 67.44 65.78 64.80 64.76 62.66 57.20 55.55 56.82 50.12 49.50 53.36 54.62 56.71 62.95 63.86 63.69 64.19 62.87 62.08 61.81 62.35 61.86 61.19 60.66 60.74 61.03 61.30 61.39
64.17 63.78 64.31 63.39 63.60 61.22 60.99 57.72 56.29 53.68 52.69 49.54 47.51 47.86 47.99 51.19 52.07 56.34 59.66 59.96 62.19 62.30 60.90 60.18 59.63 59.68 59.68 59.01 58.92 58.69 58.79 59.12 59.11
62.09 61.59 60.86 60.43 60.87 57.98 55.48 53.85 52.57 49.90 47.68 46.87 45.51 44.66 45.91 48.37 48.91 55.78 60.82 60.83 61.65 60.39 58.93 58.11 57.56 57.12 56.72 56.62 56.37 56.24 56.33 56.58 56.99
59.77 59.99 60.13 60.08 58.89 55.44 53.89 51.03 48.49 45.67 44.80 44.38 44.06 42.92 42.69 45.20 48.65 51.80 58.43 58.34 58.56 57.43 56.61 55.62 54.73 54.80 54.93 54.95 54.91 54.87 55.25 55.49 55.66
58.32 58.51 57.13 55.15 54.65 53.24 50.97 47.53 45.42 43.91 43.46 43.61 42.78 41.95 42.05 42.10 46.73 48.69 51.61 56.34 55.87 54.42 53.48 52.81 52.53 52.64 53.15 53.81 54.28 54.40 54.34 54.34 54.61
58.40 56.32 54.08 52.45 51.89 48.18 45.72 45.32 44.55 43.52 43.63 41.92 42.36 42.02 41.06 41.69 42.80 45.41 45.36 48.76 53.99 50.64 50.15 49.98 50.39 50.68 51.24 52.46 53.15 53.45 53.38 53.42 53.55
56.24 53.90 51.37 49.49 48.93 47.40 45.46 44.81 42.60 41.68 41.33 40.31 40.50 40.81 41.87 41.14 41.04 42.78 42.99 43.26 44.23 48.01 47.96 47.56 48.74 49.23 49.92 51.43 52.05 52.28 52.00 52.25 52.37
55.55 52.25 49.56 48.82 46.93 45.25 44.76 41.81 41.47 39.67 39.71 40.86 39.78 40.54 41.39 41.89 42.47 40.15 40.47 40.60 40.46 40.72 46.54 46.43 47.64 47.49 48.86 50.01 51.22 50.86 50.34 50.98 51.01
53.09 51.08 49.30 47.75 45.25 43.55 42.64 40.79 39.78 39.05 38.54 42.08 42.01 40.38 41.02 41.23 39.28 39.84 41.45 40.40 40.06 39.26 39.33 38.48 38.89 45.62 46.40 47.39 48.26 49.29 49.64 49.40 49.92
52.60 50.44 47.46 45.99 44.67 42.93 42.04 40.77 39.68 38.18 37.68 38.25 38.35 39.73 38.86 39.75 39.78 39.78 39.24 39.55 39.41 38.73 37.92 36.67 36.32 37.16 44.01 44.25 45.90 47.72 48.26 48.51 49.05
51.53 48.85 45.92 45.05 43.74 42.28 41.96 42.55 41.21 38.12 37.15 36.22 36.19 34.97 36.85 37.95 38.47 38.86 38.80 36.59 37.64 37.94 37.75 36.22 36.41 35.45 35.35 38.09 44.89 44.66 45.75 47.61 48.81
49.63 46.81 45.64 43.83 43.15 41.93 41.18 41.57 40.61 39.19 37.56 35.67 36.02 33.46 33.06 32.07 35.86 36.63 36.13 35.56 35.24 34.91 35.53 36.62 36.64 35.77 34.74 38.22 39.12 43.07 44.33 46.47 48.32
49.94 46.06 45.43 44.59 44.52 43.51 42.12 40.91 39.77 39.63 37.14 36.90 37.87 34.30 33.38 31.29 30.37 33.94 34.27 34.60 35.24 33.69 33.66 33.97 34.82 35.12 34.76 38.62 41.98 43.46 43.87 45.78 47.68
49.24 47.57 48.43 46.13 45.23 43.06 42.05 39.00 38.48 38.66 37.57 36.78 34.93 33.24 32.95 31.84 30.24 28.52 30.47 32.12 33.23 33.68 33.12 33.10 33.12 33.92 34.38 33.99 37.08 43.33 43.84 45.57 46.90

GFSFLT1_sfc_wetblb_042.txt.gz
Wetbulb
66.52 66.31 66.53 66.79 66.73 66.89 67.07 66.88 66.87 66.79 66.71 66.63 66.12 66.06 67.03 65.97 63.43 63.34 64.12 63.41 67.48 67.65 66.61 67.38 67.28 67.00 66.50 66.08 67.32 67.54 66.96 66.94 67.49
66.88 66.71 66.63 66.83 66.97 67.17 67.47 67.67 67.77 67.76 67.76 67.40 67.06 67.20 67.39 63.04 62.83 64.01 65.59 66.65 69.26 68.68 69.16 69.00 69.03 69.24 68.96 67.89 66.74 67.50 68.34 67.86 67.04
66.99 66.90 67.10 67.48 67.89 68.20 68.36 68.23 68.06 68.07 67.84 67.53 67.19 66.69 66.08 62.33 61.28 62.56 62.41 68.51 68.49 68.37 68.43 68.55 68.67 68.91 69.03 68.94 68.33 67.95 68.51 68.89 68.77
67.22 67.09 67.35 67.67 68.11 68.40 68.46 68.27 68.28 68.25 67.10 65.89 65.05 64.66 64.81 58.78 59.37 61.50 62.20 68.28 67.52 66.62 68.36 67.39 66.88 67.01 66.45 66.18 65.58 65.77 66.05 66.81 67.40
68.66 67.99 68.22 67.96 68.28 68.40 68.34 68.06 68.12 67.29 65.25 63.69 63.65 62.50 61.72 57.25 58.35 59.55 62.70 67.32 66.03 67.45 66.24 65.33 64.98 64.78 64.08 64.43 64.36 64.03 64.05 64.44 64.61
66.82 66.34 67.60 68.64 68.45 68.00 67.62 67.37 66.83 65.20 62.59 62.29 60.76 58.41 55.55 54.62 56.40 58.49 64.89 64.69 65.57 65.29 64.14 63.65 63.75 63.39 62.83 62.17 61.83 61.93 62.23 62.40 62.57
66.18 64.93 67.04 68.59 68.38 67.96 66.96 66.44 64.91 61.40 56.15 52.90 53.71 48.52 53.15 53.84 54.41 57.00 64.11 63.07 65.67 63.63 62.53 61.78 61.96 61.75 60.99 60.27 60.03 60.00 60.20 60.51 60.47
64.25 63.98 65.01 64.20 64.12 62.26 61.92 58.17 55.29 52.53 50.76 46.90 45.72 46.96 50.84 50.70 51.36 57.21 61.92 60.68 64.05 61.52 60.55 59.68 59.29 59.07 58.69 58.35 57.70 57.55 57.62 58.06 58.06
62.39 63.27 62.03 61.29 60.88 58.32 55.26 53.53 51.12 47.48 46.14 44.57 42.89 44.43 47.20 47.34 49.62 57.29 61.80 62.89 62.15 60.27 58.84 57.83 56.90 56.30 55.98 55.95 55.77 55.73 56.02 56.21 56.34
62.52 61.18 59.98 59.78 59.72 56.09 53.17 50.47 46.61 44.27 43.73 43.22 42.27 41.65 43.54 45.57 50.46 52.36 59.09 60.33 59.39 57.87 56.65 55.43 55.07 54.71 54.55 54.86 55.07 55.03 55.09 55.31 55.49
61.02 59.15 59.48 58.68 58.21 54.33 51.43 46.23 44.26 43.01 42.30 42.27 41.50 40.47 40.66 45.42 48.20 49.06 53.15 58.10 56.43 55.10 53.83 52.81 52.29 52.38 52.90 53.62 54.02 54.17 54.29 54.41 54.42
58.75 58.52 56.76 55.32 53.72 50.12 45.34 43.80 43.22 42.57 42.37 40.63 40.93 40.53 39.74 43.25 44.96 46.30 46.35 51.10 54.82 51.64 51.30 50.43 50.71 50.67 51.58 52.74 53.05 53.08 53.20 53.11 53.34
57.62 56.22 54.67 51.86 48.44 45.64 44.39 43.41 41.85 40.60 40.18 39.08 39.03 40.05 40.11 39.42 42.58 42.81 43.33 43.68 44.53 49.10 48.93 48.37 48.59 48.97 50.59 51.51 52.55 52.47 51.37 51.73 51.89
56.70 54.84 51.95 49.01 47.10 44.85 44.34 41.59 41.18 38.92 38.78 39.90 38.81 39.41 40.00 40.11 41.69 39.94 41.05 40.75 41.25 40.59 47.37 47.57 46.81 46.66 47.88 49.27 50.09 50.54 50.50 50.75 50.42
55.49 52.64 49.79 47.76 45.16 43.14 42.12 40.69 38.87 38.32 37.83 41.37 40.82 39.18 39.73 38.69 38.14 38.77 40.30 39.49 38.99 38.35 38.28 37.73 39.09 45.00 45.66 46.25 47.31 48.64 49.43 49.46 49.47
54.58 51.87 48.50 46.09 45.12 42.95 41.52 39.95 38.62 37.37 36.96 38.12 38.80 39.72 38.54 38.65 38.41 38.31 37.49 38.79 38.39 37.53 37.11 35.87 35.58 36.30 43.96 43.89 45.10 46.98 47.60 48.01 48.78
55.01 51.15 48.19 45.77 43.23 41.70 41.08 41.06 38.84 37.86 36.33 36.43 36.58 35.91 38.46 38.79 37.77 38.15 38.41 36.07 37.18 37.03 36.47 34.96 35.14 34.65 34.44 37.35 45.00 44.89 45.73 46.94 48.32
55.36 50.47 48.76 45.03 44.26 42.41 41.15 40.65 40.51 37.45 36.08 35.74 37.43 34.94 34.95 33.18 36.08 35.97 35.29 34.95 34.78 34.18 35.06 35.17 35.09 34.51 33.64 37.40 38.47 43.75 44.34 45.97 48.04
52.16 49.07 47.21 47.49 43.85 41.64 41.00 41.80 42.06 38.53 36.07 35.76 37.53 34.78 34.52 32.40 31.81 34.60 34.71 34.18 34.60 33.21 32.99 33.32 33.67 33.26 33.17 36.95 40.21 43.45 44.71 46.15 47.83
51.77 48.78 46.61 46.47 44.89 45.14 44.59 43.10 42.12 39.79 37.82 36.30 34.22 33.14 32.87 31.78 30.86 29.43 30.87 32.66 32.86 32.98 32.86 32.61 31.69 32.42 32.35 32.97 37.55 43.47 44.55 46.14 47.04

GFSFLT1_sfc_wetblb_045.txt.gz
Wetbulb
66.53 67.45 67.96 67.66 67.25 67.42 67.36 67.08 66.68 66.25 66.68 66.65 66.43 67.11 67.20 65.29 62.23 60.53 61.38 63.08 67.62 67.51 66.98 67.31 67.48 68.32 66.88 66.11 67.39 67.33 67.41 66.87 67.33
66.37 66.52 66.80 66.73 66.82 66.86 66.93 67.10 67.30 67.38 67.45 67.51 67.66 67.38 66.24 61.99 61.45 63.21 63.83 65.33 69.38 69.30 69.11 69.34 69.15 69.32 69.49 67.96 67.96 68.26 68.45 68.28 67.48
66.86 66.67 66.79 66.91 67.12 67.41 67.71 67.88 68.04 67.95 67.76 67.61 66.66 65.90 64.51 61.43 60.80 61.66 62.87 68.42 68.37 68.04 68.62 68.11 68.16 67.92 67.89 67.50 67.34 67.61 68.15 68.51 68.81
67.14 67.13 67.35 67.64 67.92 68.19 68.25 68.12 68.06 67.85 66.73 65.51 64.01 64.90 63.32 58.39 59.97 61.79 62.43 68.03 67.24 68.36 67.26 66.58 66.27 66.08 65.24 65.12 64.92 65.42 65.93 66.09 66.55
67.86 67.79 68.05 67.88 68.24 68.45 68.40 68.13 68.11 66.87 64.25 63.02 63.89 63.82 61.67 57.56 58.60 59.47 64.12 66.54 67.70 66.75 65.63 65.09 64.98 63.79 63.55 63.53 63.43 63.41 63.30 63.21 63.37
65.75 65.82 67.40 68.51 68.46 68.36 67.91 67.65 67.18 64.10 62.57 61.79 62.20 59.20 54.57 55.04 56.96 59.03 65.38 65.60 66.23 65.02 64.01 63.80 63.30 62.38 61.91 61.42 61.45 61.80 61.96 61.98 61.74
65.89 64.45 66.65 68.61 68.58 68.24 67.51 66.95 65.02 59.05 53.54 50.60 52.62 52.37 52.98 53.44 54.64 56.85 64.70 64.41 64.80 63.11 62.14 62.02 62.00 61.13 60.33 59.83 59.61 59.46 59.66 59.56 59.47
64.03 62.97 64.23 64.49 64.73 63.41 62.46 58.55 54.90 52.50 47.90 45.64 45.51 50.16 50.53 50.05 50.79 56.10 62.43 64.45 63.15 61.21 60.16 59.71 59.22 58.74 58.03 57.36 56.93 57.07 57.21 57.19 57.10
62.43 62.36 62.39 62.01 61.43 58.85 55.60 53.07 49.82 46.91 45.12 43.14 43.20 46.44 47.78 46.99 51.46 56.66 62.68 63.91 61.80 60.11 58.79 57.52 56.95 56.58 56.25 56.21 56.14 55.97 56.15 56.44 56.51
61.62 61.51 61.06 60.20 59.30 57.15 53.25 50.27 45.61 43.54 43.08 42.23 41.41 42.25 45.05 47.41 50.39 52.06 60.01 61.83 59.79 58.31 56.85 56.03 55.11 54.46 54.57 55.03 55.26 55.17 55.28 55.36 55.39
62.18 60.25 59.91 58.75 58.78 55.32 52.18 47.40 43.51 42.06 41.75 40.92 40.23 40.01 43.59 46.47 48.63 50.01 53.99 59.25 57.38 55.89 54.58 53.11 52.77 52.59 53.33 53.78 53.97 53.85 54.16 54.16 54.28
61.67 60.11 58.77 58.10 57.52 53.28 46.53 43.03 42.13 41.70 41.64 39.72 39.73 39.58 40.55 44.67 45.83 47.11 48.21 51.64 55.45 53.11 52.04 51.48 51.31 51.03 52.15 53.03 53.28 53.15 52.50 52.62 52.83
59.65 58.95 57.37 55.62 53.38 48.25 43.85 42.60 41.21 40.43 39.93 38.40 38.63 39.06 38.88 41.13 43.23 43.56 44.57 44.03 44.68 49.54 49.82 48.85 48.84 49.75 49.97 51.06 51.49 51.87 51.28 51.19 51.32
58.53 57.22 55.61 52.29 47.83 44.64 43.99 41.29 41.10 39.55 38.35 38.86 37.80 38.36 38.63 38.25 42.96 40.42 41.16 41.20 41.60 40.72 47.29 47.90 47.18 46.80 47.72 48.90 49.56 49.99 50.47 50.51 50.36
57.22 55.12 52.55 50.05 45.75 43.39 42.33 40.76 38.74 38.60 37.83 40.84 39.70 38.28 38.78 37.53 37.95 38.83 40.34 39.44 38.86 37.95 38.37 37.63 38.18 45.86 46.25 46.23 47.51 48.70 49.43 49.44 49.66
57.24 54.36 50.46 48.79 46.68 44.67 42.06 39.68 38.81 37.26 36.68 37.78 37.62 38.20 37.39 37.42 37.35 38.03 37.86 38.58 37.96 37.44 36.96 35.59 35.28 35.76 44.34 45.77 45.80 47.26 48.19 48.48 48.89
56.49 53.72 50.85 48.95 44.46 41.93 40.89 40.65 38.42 37.15 36.33 36.96 36.12 35.35 36.36 36.83 36.60 36.97 38.15 36.67 37.35 36.85 36.22 35.16 35.15 34.47 34.29 37.59 45.08 46.13 47.11 47.64 48.57
57.59 54.13 51.81 48.51 47.12 44.56 42.47 41.03 40.38 37.35 35.32 35.44 38.07 33.81 34.44 32.92 34.17 34.62 34.53 34.62 34.59 33.90 34.51 34.70 34.85 34.33 33.72 35.97 37.56 43.16 45.41 47.10 48.61
57.24 55.22 51.31 49.69 48.63 45.22 46.01 44.78 42.75 39.90 37.11 37.46 36.97 33.88 34.53 33.98 31.16 32.80 32.97 32.73 33.81 32.80 33.00 33.11 32.84 32.71 32.82 37.21 41.13 43.86 44.75 46.57 48.38
55.41 53.05 51.82 50.14 48.72 48.53 47.12 45.83 44.03 41.97 39.58 38.92 36.37 35.01 33.67 33.72 30.78 29.59 30.18 32.11 32.37 32.35 32.38 31.63 31.28 31.96 32.27 32.97 37.58 42.32 43.83 45.96 47.06

GFSFLT1_sfc_wetblb_048.txt.gz
Wetbulb
67.75 68.71 68.98 68.85 68.22 68.37 68.10 67.57 66.90 66.81 67.16 67.17 67.71 67.75 66.76 64.64 61.27 59.34 61.16 63.34 67.62 68.41 68.94 67.70 69.29 68.97 66.89 67.33 67.43 67.33 67.48 66.60 66.81
67.36 68.04 67.92 67.41 67.25 67.43 67.31 66.98 66.89 67.14 67.52 67.82 67.95 66.81 65.50 61.15 61.13 62.47 63.32 64.73 69.28 69.57 69.59 69.27 69.34 69.56 68.84 68.88 68.89 69.12 69.04 68.98 67.96
66.83 67.08 67.05 66.98 66.97 67.14 67.33 67.76 68.12 68.11 68.10 67.48 66.42 65.74 64.77 61.54 61.24 62.05 63.23 68.23 68.11 68.75 68.51 67.98 67.35 67.18 67.10 67.09 66.92 66.98 67.43 68.14 68.58
66.94 66.99 67.08 67.26 67.49 67.85 68.10 68.18 68.21 67.78 66.48 65.30 64.81 64.84 63.20 59.22 60.42 62.02 62.98 68.04 68.39 67.76 66.76 66.18 65.59 65.21 64.62 64.50 64.54 64.49 64.72 65.04 65.71
67.88 67.94 68.05 67.92 68.22 68.42 68.26 68.19 67.97 65.63 63.81 64.50 65.21 63.78 61.56 57.68 58.55 60.67 63.23 67.82 67.17 65.86 65.48 65.18 64.14 63.83 63.19 63.02 63.18 63.24 63.30 63.17 63.05
65.12 65.60 67.28 68.42 68.62 68.53 68.21 68.21 66.51 63.03 63.39 64.03 61.89 58.89 54.72 55.69 57.53 58.79 66.42 66.49 65.75 64.57 64.30 63.91 62.91 62.34 61.57 61.12 61.11 61.32 61.28 61.29 61.04
64.62 64.01 66.49 68.28 68.41 68.45 67.78 67.56 63.50 57.65 51.04 50.61 56.19 52.76 52.96 53.88 54.30 56.24 64.65 65.52 64.54 63.08 62.46 62.51 61.84 60.78 59.83 59.26 58.90 58.88 59.17 59.00 58.71
63.57 62.20 63.47 64.08 64.88 63.52 63.11 58.09 54.57 53.03 46.67 45.54 48.73 50.81 50.35 49.47 50.53 56.22 62.62 64.56 63.15 61.67 60.57 60.07 59.45 58.57 57.78 57.48 57.48 57.47 57.63 57.61 57.44
62.33 61.65 61.77 62.17 61.90 59.57 56.57 52.88 48.79 46.03 43.76 43.26 45.52 48.06 47.47 47.09 52.40 56.03 63.71 63.71 61.99 60.63 58.90 57.92 57.59 56.91 56.79 56.79 56.57 56.29 56.38 56.38 56.45
61.59 61.38 61.29 60.83 59.76 57.78 53.83 50.22 44.89 43.29 42.42 41.52 42.49 45.14 44.77 48.81 50.56 52.33 61.36 62.49 60.38 58.90 57.56 56.69 55.59 55.06 55.35 55.74 55.56 55.34 55.62 55.69 55.62
62.16 60.99 60.45 59.63 58.86 56.58 52.56 47.40 42.98 41.80 41.27 40.60 39.93 41.89 43.99 46.99 48.34 50.84 54.86 60.05 58.54 56.97 55.59 54.05 53.66 53.67 54.06 54.47 54.26 54.17 54.33 54.23 54.24
62.35 61.33 59.69 59.17 57.97 54.47 48.78 43.38 41.53 40.94 41.04 39.37 38.82 39.33 42.85 45.69 46.34 48.21 49.66 51.26 56.33 54.88 53.26 52.88 52.10 51.69 53.14 53.11 53.22 53.16 52.25 52.29 52.61
61.18 60.75 60.02 58.28 56.67 51.76 45.41 42.55 40.91 40.06 39.82 38.47 38.01 38.01 39.82 43.03 43.84 44.67 45.86 43.66 44.47 50.75 51.16 49.96 50.41 50.53 50.22 50.88 51.51 51.18 51.38 51.14 51.51
60.82 59.94 59.36 56.91 54.27 48.65 44.73 41.16 40.94 39.42 38.48 38.61 37.32 37.56 37.51 38.49 43.38 41.21 41.97 41.53 41.86 40.94 48.57 48.78 48.05 47.48 48.07 48.76 49.46 49.90 50.37 50.28 50.59
59.86 58.54 57.60 55.14 51.27 45.78 42.65 40.95 38.72 38.96 38.56 40.16 38.87 37.62 38.16 37.47 39.22 39.29 40.75 39.64 39.26 38.15 38.95 37.38 37.86 46.17 46.98 46.82 47.55 48.55 49.17 49.29 49.41
58.98 58.04 56.03 53.53 51.56 48.18 44.21 39.99 38.87 37.30 37.65 37.65 37.20 37.43 36.75 36.21 36.49 37.06 37.08 37.75 37.42 36.62 36.26 34.94 34.88 35.74 43.50 44.94 46.10 47.38 48.57 48.82 49.09
58.47 57.80 55.04 52.93 49.59 44.19 42.88 41.07 38.81 37.88 37.79 37.70 36.49 35.25 36.24 36.06 36.04 36.09 36.98 35.70 36.31 36.06 35.42 34.00 34.20 33.95 34.12 37.43 44.30 45.05 46.47 48.12 49.02
58.65 56.74 55.05 52.14 50.12 46.79 44.42 42.96 42.45 39.27 35.74 35.99 38.68 33.83 35.06 33.31 33.46 34.02 34.20 33.52 33.79 33.23 33.73 33.86 33.77 32.93 32.66 35.57 37.73 43.65 44.95 46.75 48.69
58.33 56.84 55.19 52.71 50.72 48.98 46.44 46.38 47.16 47.90 41.73 37.76 36.84 34.27 36.79 36.49 31.80 32.34 32.56 32.36 32.90 31.82 31.80 32.03 32.29 32.10 32.54 37.41 41.05 43.11 44.06 46.23 48.18
58.40 56.89 54.71 51.61 49.59 49.56 47.95 46.40 45.74 46.73 43.39 41.26 39.54 37.30 35.21 33.72 33.90 30.97 32.56 31.51 31.56 31.25 31.11 30.70 30.56 31.08 31.42 32.22 37.17 41.79 43.22 45.26 46.88

GFSFLT1_sfc_wetblb_051.txt.gz
Wetbulb
68.74 69.77 70.16 69.72 69.48 69.18 68.70 68.13 67.34 67.18 67.98 68.05 68.33 67.78 66.86 65.65 65.06 65.97 67.15 68.65 68.19 69.79 68.67 69.21 69.68 68.12 67.76 68.52 67.59 67.40 67.59 67.24 67.24
68.38 68.45 69.40 68.31 68.36 68.24 67.71 67.16 67.33 67.45 67.88 68.36 67.74 66.85 65.21 66.27 66.71 67.93 68.59 68.65 69.27 69.86 69.45 69.24 69.50 69.26 68.90 68.68 68.83 69.12 69.29 69.27 67.86
68.11 68.36 67.98 67.57 67.52 67.51 67.60 68.08 68.41 68.43 68.32 67.49 66.76 66.18 65.39 65.97 67.38 67.86 67.50 68.79 68.42 68.64 68.11 67.35 67.18 67.11 66.69 66.52 66.39 66.68 67.49 68.07 68.17
67.33 67.44 67.39 67.32 67.34 67.75 68.25 68.53 68.52 67.77 66.83 66.22 66.23 65.22 63.91 66.26 66.83 66.51 66.93 68.60 68.33 67.49 66.37 65.95 65.56 65.20 64.93 64.78 64.76 64.81 64.67 65.01 65.51
67.97 67.84 68.11 67.61 68.27 68.54 68.56 68.51 67.51 65.54 64.56 64.68 65.54 63.89 62.91 65.07 65.90 66.39 67.27 67.53 66.49 65.68 65.52 64.73 64.34 63.72 63.51 63.37 63.39 63.30 63.09 63.13 62.94
66.81 66.30 67.30 68.39 69.04 68.72 68.50 68.39 64.82 64.08 65.33 64.47 62.67 60.97 62.61 63.58 65.07 65.57 67.40 66.21 65.47 64.84 64.68 63.63 63.01 62.46 61.61 61.47 61.52 61.44 61.23 60.97 60.55
66.34 65.32 66.67 68.15 68.56 68.56 68.24 67.06 61.93 59.14 59.57 61.57 59.42 60.78 60.99 62.38 62.93 64.46 66.19 65.32 64.48 63.51 63.33 62.79 61.87 60.56 59.75 59.52 59.52 59.34 59.24 59.04 58.83
66.43 66.27 67.16 67.95 66.12 67.68 67.27 64.26 60.69 56.88 54.85 56.25 58.62 58.29 58.46 58.99 59.82 60.93 65.21 64.47 63.45 61.97 61.35 60.54 59.69 58.72 58.50 58.44 58.29 58.34 58.33 58.31 58.15
66.56 65.57 66.33 67.15 67.54 66.21 64.76 61.14 58.04 54.04 52.13 53.93 56.33 56.19 56.09 56.54 59.61 61.53 63.47 63.71 62.27 60.66 59.49 58.75 58.16 57.63 57.62 57.52 57.18 57.09 57.16 57.18 56.85
66.87 66.28 65.53 66.18 66.36 64.90 61.91 58.21 54.58 51.92 50.14 50.93 53.46 53.74 53.78 56.45 58.49 62.28 62.13 63.06 61.07 59.20 58.62 57.41 56.26 56.12 56.50 56.28 55.89 56.09 55.98 55.84 55.71
65.77 66.29 65.53 65.25 65.33 63.89 61.44 57.17 53.06 51.32 49.88 48.47 49.56 51.82 53.47 54.93 56.43 60.02 61.11 61.05 60.00 58.18 56.72 55.20 54.66 54.78 55.19 55.04 55.04 54.80 54.37 54.38 54.54
64.98 65.12 65.36 65.08 64.50 62.57 58.90 53.59 50.51 49.31 48.24 47.96 47.67 49.99 52.02 53.54 54.81 57.20 57.92 57.82 57.70 56.81 54.86 54.32 53.24 53.48 53.69 53.35 53.60 53.31 52.42 52.23 52.52
64.84 64.84 64.74 64.99 63.60 61.18 56.87 51.93 49.42 49.03 48.45 47.17 46.95 47.65 50.48 51.80 52.70 54.28 54.66 53.48 53.25 54.51 52.83 51.40 52.39 51.29 50.92 51.61 51.70 51.09 51.31 51.33 51.59
64.38 64.57 64.92 64.21 63.05 59.99 55.37 50.45 49.83 48.04 47.20 46.57 46.31 46.33 47.10 49.89 49.92 51.55 52.03 50.57 51.06 50.70 50.80 51.08 49.82 48.55 48.63 48.94 49.49 49.91 50.29 50.28 50.60
63.96 63.86 64.32 63.36 61.97 59.53 53.66 51.06 47.76 48.31 47.69 44.35 44.67 46.16 46.55 46.28 48.66 49.06 48.90 48.59 48.52 48.26 48.85 48.24 47.50 47.03 47.29 47.32 47.72 48.54 49.29 50.04 50.01
63.54 63.46 63.16 62.42 61.36 59.34 55.34 50.50 47.26 45.50 45.84 45.19 44.95 45.22 45.00 44.83 45.60 47.25 47.27 46.43 45.84 45.73 45.91 45.28 44.71 44.24 44.08 44.78 46.01 47.31 49.01 49.51 50.16
62.98 62.75 62.10 61.14 60.07 58.08 53.91 49.66 46.16 45.60 45.05 45.83 44.76 43.90 44.02 43.82 43.77 44.38 44.91 45.10 44.75 43.99 43.67 43.02 42.49 43.29 43.47 42.97 44.03 44.61 46.17 47.94 49.32
62.41 62.21 61.80 60.17 59.26 56.60 53.44 49.79 48.89 45.18 43.37 43.98 47.17 41.90 44.44 42.58 41.91 42.15 43.14 43.02 43.24 43.58 42.21 41.41 41.16 41.15 41.94 42.09 43.32 44.63 45.49 47.19 49.00
61.49 61.19 60.90 59.52 58.51 56.93 53.59 50.00 50.15 48.67 45.20 42.61 40.02 40.06 42.70 41.89 40.31 39.38 39.78 40.62 40.99 41.41 40.47 40.24 40.14 40.04 41.35 40.78 41.75 42.68 43.52 45.57 47.46
60.99 61.19 59.70 58.37 57.59 57.01 53.36 50.35 50.00 50.62 48.09 46.19 39.28 39.32 39.19 38.11 39.72 36.99 36.87 37.62 37.66 39.32 37.19 39.44 39.29 38.97 39.41 40.35 40.71 41.32 42.68 44.63 46.09

GFSFLT1_sfc_wetblb_054.txt.gz
Wetbulb
70.65 70.81 70.66 70.51 70.03 69.62 69.22 68.17 67.17 67.96 68.27 68.36 68.21 67.63 66.74 66.00 68.00 69.24 69.08 69.55 69.44 69.33 69.12 69.59 68.21 67.57 68.63 68.13 67.70 67.58 68.16 66.91 67.35
69.47 69.36 69.46 69.33 69.07 68.52 67.59 67.34 67.58 67.94 68.25 68.45 67.56 66.61 66.03 67.43 68.13 68.51 68.46 69.37 69.77 69.90 69.36 69.47 69.48 69.01 68.65 68.34 68.88 69.30 69.81 68.72 67.81
68.69 68.34 68.46 68.26 68.18 67.85 67.56 67.67 68.02 68.19 68.30 67.36 66.70 66.31 67.12 66.95 67.55 67.86 68.38 69.11 69.02 68.33 67.67 67.55 67.13 66.89 66.71 66.27 66.44 66.92 67.71 67.74 67.92
68.39 68.28 67.85 67.68 67.59 67.72 68.29 68.58 68.50 68.05 67.06 66.72 66.59 65.45 65.48 67.72 67.51 66.49 67.99 68.45 67.98 67.42 66.19 65.68 65.52 65.17 65.10 64.90 64.87 64.84 65.00 65.45 65.41
68.13 68.11 67.97 67.50 67.76 68.27 68.65 68.59 67.47 65.99 65.03 66.20 65.48 64.49 64.88 67.03 66.96 67.12 67.45 67.09 66.51 66.50 65.12 64.64 64.30 64.07 63.63 63.49 63.28 63.12 62.97 62.75 62.66
66.85 66.81 67.24 67.69 69.05 68.82 68.76 67.60 65.06 65.62 65.69 65.44 63.31 63.12 66.89 66.53 66.47 66.40 67.16 65.97 65.56 65.59 64.52 63.77 62.84 62.14 61.91 61.51 61.47 61.18 60.97 60.73 60.63
66.53 65.82 66.99 68.33 68.87 68.90 68.85 65.43 62.73 62.66 64.64 64.02 61.63 65.11 64.76 64.95 65.16 65.52 66.86 65.30 64.63 64.06 63.57 62.41 61.11 60.14 59.93 59.78 59.74 59.59 59.54 59.26 59.27
66.51 66.80 67.33 67.99 66.12 67.79 67.97 65.33 63.27 61.84 61.71 62.83 62.85 62.84 62.94 63.36 63.36 62.68 65.29 64.77 63.41 62.64 61.57 60.85 59.48 59.03 59.03 58.65 58.76 58.57 58.44 58.39 58.10
66.01 65.54 66.74 67.48 67.76 67.55 67.55 66.32 63.89 61.07 59.94 60.45 60.90 60.55 60.22 60.12 60.88 61.49 64.67 64.09 62.52 61.19 60.02 59.25 58.43 58.11 58.06 57.74 57.60 57.56 57.51 57.27 57.05
67.09 66.66 66.02 66.55 67.42 67.14 66.55 65.16 62.84 60.87 58.84 58.30 58.88 57.83 57.30 57.88 59.23 60.99 62.93 63.53 61.45 59.86 59.37 58.13 57.05 57.01 57.03 56.59 56.40 56.39 56.09 56.05 56.15
67.23 67.36 67.00 66.44 66.69 66.82 66.28 64.67 61.69 59.60 57.56 55.99 56.17 56.04 56.19 56.96 57.68 60.48 62.63 62.28 60.92 59.26 57.88 56.29 56.02 55.92 56.10 55.67 55.26 54.79 54.31 54.33 54.50
67.29 67.20 67.38 67.39 67.10 66.15 65.82 64.44 61.61 58.78 56.29 55.03 54.04 54.69 55.21 55.84 56.39 58.19 60.17 59.84 58.99 58.63 56.27 55.38 54.38 54.77 54.69 53.94 53.96 53.21 52.27 52.05 52.51
66.87 66.55 66.80 67.55 67.29 65.99 64.55 62.76 59.70 57.84 55.75 54.62 53.36 53.12 54.07 54.87 55.34 56.88 57.61 57.62 56.65 55.91 55.48 53.99 53.61 52.85 51.95 52.67 52.08 51.24 51.29 51.33 51.71
66.66 66.28 66.55 67.19 66.68 65.84 64.10 62.06 60.28 57.26 55.42 54.19 53.12 52.29 52.64 53.67 53.62 54.70 55.53 55.48 54.80 54.50 53.22 53.62 53.00 50.47 50.14 50.12 49.87 49.89 49.98 50.27 50.64
66.56 66.15 66.07 66.53 66.09 65.12 64.19 61.07 59.02 57.97 56.26 51.70 50.65 51.38 51.16 51.69 52.91 53.17 53.90 53.42 53.20 52.91 51.99 50.82 49.78 48.79 48.47 48.11 48.34 48.52 49.21 50.06 50.46
66.70 66.21 65.83 65.88 65.33 64.98 64.26 61.67 57.88 54.77 55.41 51.33 50.53 50.00 49.98 49.73 50.03 51.93 52.05 51.54 51.32 51.35 51.10 50.38 49.19 47.31 46.42 45.76 46.00 47.34 48.66 49.02 49.77
66.85 66.07 65.76 65.53 64.98 64.70 63.98 61.74 57.12 56.52 53.43 52.90 52.98 49.57 48.35 48.01 48.85 49.60 50.16 50.41 50.18 49.19 49.20 48.79 47.81 47.53 47.27 46.70 43.90 44.15 45.61 47.65 49.06
67.20 66.20 66.22 65.60 65.22 64.36 64.41 62.05 57.36 54.82 52.27 53.79 55.20 50.20 50.50 47.80 47.77 47.11 47.57 48.95 48.79 48.69 48.07 47.03 46.60 46.34 46.30 44.21 44.60 44.90 44.85 46.38 48.16
65.23 65.42 65.75 65.51 65.00 63.66 63.67 61.86 59.26 58.40 51.61 50.40 49.42 48.59 50.32 47.27 43.67 42.82 45.50 46.26 45.44 46.20 45.90 45.47 44.80 44.80 45.09 43.36 43.31 42.82 43.08 45.12 47.05
63.65 63.44 64.45 64.05 64.16 63.47 62.52 60.53 58.52 58.79 57.04 51.75 48.24 46.92 46.64 44.96 46.82 44.14 40.58 40.87 43.01 44.17 45.40 44.30 44.07 42.99 43.60 43.72 42.78 41.45 41.99 43.81 45.65

GFSFLT1_sfc_wetblb_057.txt.gz
Wetbulb
71.53 71.48 71.16 70.61 70.95 69.93 69.21 68.05 68.02 68.35 68.44 68.51 68.21 67.31 65.94 66.55 68.12 68.59 69.17 69.36 69.80 70.16 70.12 69.19 68.26 69.44 69.53 68.70 68.63 68.68 67.95 67.27 67.68
70.24 70.26 70.11 69.84 69.40 68.74 67.86 67.37 67.73 68.10 68.40 68.15 67.36 66.36 66.77 67.05 67.62 67.64 68.53 68.99 70.05 70.04 69.77 69.37 68.98 68.47 68.13 68.32 69.10 69.51 69.23 68.83 68.90
68.87 69.26 69.25 69.14 68.65 67.90 67.44 67.50 67.72 68.29 68.34 67.42 66.70 65.64 66.66 66.51 66.49 67.11 67.46 69.05 68.60 67.99 67.39 67.39 67.36 67.03 66.92 66.58 66.86 67.58 67.72 67.85 67.82
68.82 68.49 68.44 68.18 68.02 67.91 68.16 68.34 68.45 68.06 67.17 66.79 66.57 65.39 66.40 66.66 66.08 67.06 67.51 68.49 67.98 67.28 65.93 65.44 65.42 65.30 65.42 64.94 64.88 65.02 65.20 65.41 65.45
68.67 68.41 68.26 67.62 67.65 68.10 68.63 68.59 67.65 66.50 66.23 66.25 65.85 65.43 65.95 66.33 65.87 67.20 66.43 67.14 67.14 66.35 65.45 64.70 64.52 64.13 63.74 63.38 63.16 62.91 62.61 62.77 63.06
66.42 66.93 67.50 68.45 68.55 68.63 68.91 67.67 65.68 65.97 66.45 65.46 64.82 65.09 65.99 65.57 65.21 66.58 67.22 66.07 66.19 65.50 64.69 63.62 62.84 62.61 61.97 61.73 61.30 61.13 60.96 60.88 60.96
65.51 65.75 66.68 67.95 69.17 69.22 68.98 66.40 65.20 65.09 64.48 63.86 62.92 64.33 64.58 64.22 64.14 65.81 66.89 65.28 65.07 64.50 63.50 62.32 60.93 60.62 60.52 60.39 60.36 60.34 60.18 60.08 59.68
66.32 66.62 66.20 66.73 66.20 67.07 67.52 65.10 62.99 62.80 63.81 63.65 63.43 63.14 62.92 62.70 62.70 64.54 66.50 64.86 63.90 63.37 62.28 60.81 59.71 59.67 59.44 59.52 59.34 59.24 59.02 58.66 58.53
64.90 65.36 65.98 66.56 66.83 66.40 67.05 66.48 64.41 62.68 61.47 62.06 62.08 61.90 61.25 60.26 61.18 62.88 65.38 64.54 63.01 62.10 60.91 59.86 59.10 58.89 58.60 58.45 58.42 58.20 57.86 57.85 58.06
65.32 65.21 65.63 66.39 67.14 66.89 66.46 66.24 64.81 62.62 61.12 60.67 60.92 60.26 58.90 57.93 58.94 62.28 63.40 63.82 62.23 60.75 60.27 59.07 58.10 58.25 57.77 57.33 57.54 56.90 56.70 56.76 56.70
66.54 66.02 65.52 65.39 66.39 66.64 66.26 65.57 64.06 62.31 60.77 59.29 59.35 58.77 57.53 57.12 57.79 61.04 62.62 62.81 62.01 60.35 59.64 58.04 57.46 57.50 57.01 56.57 56.27 55.31 54.77 54.84 54.82
67.08 66.73 66.97 66.56 66.24 66.04 65.83 65.39 64.17 61.76 59.85 58.26 57.46 57.54 56.76 56.55 56.48 58.60 61.92 60.69 60.19 60.57 58.46 57.08 56.53 56.27 56.25 55.50 55.05 53.85 52.87 52.57 52.84
67.18 67.00 66.90 67.45 67.29 66.59 65.44 64.74 63.19 61.06 58.85 57.30 56.48 55.88 56.04 55.61 55.58 57.41 58.60 59.83 58.31 58.05 57.89 56.41 55.40 55.65 54.26 54.17 53.55 52.34 51.80 51.15 51.32
67.04 66.87 66.79 66.84 67.09 65.56 65.63 64.31 62.66 60.35 59.17 57.76 56.61 55.09 55.28 54.81 54.55 55.48 56.85 57.42 56.84 55.76 56.48 55.61 55.89 53.78 52.68 53.34 52.06 51.22 50.60 50.22 50.30
67.78 67.07 66.54 66.48 66.22 65.86 64.40 64.05 62.96 61.20 59.37 56.47 54.72 54.79 54.35 54.72 54.20 54.09 54.92 55.20 54.81 54.83 52.53 51.58 51.18 52.11 51.16 50.85 50.26 49.58 49.54 49.85 50.56
68.32 67.48 66.76 66.47 65.72 65.77 64.52 64.35 62.09 59.64 59.84 55.66 53.28 53.51 53.15 51.95 52.41 53.73 53.38 53.23 52.79 52.82 52.03 50.72 50.13 48.72 49.99 49.71 48.84 48.08 48.88 49.30 49.65
68.44 67.55 66.90 66.59 65.58 65.43 64.68 64.22 61.76 59.48 58.63 53.63 53.27 49.93 49.82 50.05 50.56 50.83 51.24 51.58 51.28 50.66 50.61 50.36 49.42 48.46 46.87 47.24 47.11 45.95 46.18 47.69 49.16
68.57 67.83 67.24 66.76 66.00 64.83 65.00 63.94 62.11 58.03 56.58 55.73 55.34 52.05 50.21 47.91 49.26 48.61 49.26 49.81 49.75 49.28 49.10 48.78 47.89 46.63 47.18 46.18 45.01 45.63 46.43 46.63 47.97
65.90 66.60 66.54 66.09 65.91 65.14 64.91 64.51 62.65 59.63 55.13 53.45 54.75 56.04 52.42 49.06 42.95 46.59 47.44 48.32 48.00 48.51 47.88 46.80 45.90 45.47 45.75 46.38 45.80 45.88 44.43 45.07 46.54
65.86 64.99 64.89 64.82 65.03 64.16 64.90 64.18 63.11 59.97 57.86 52.71 52.80 51.58 49.48 49.48 49.65 42.76 42.02 45.11 46.22 46.81 46.50 45.30 44.95 44.66 44.91 44.60 44.34 44.00 43.54 44.21 45.17

GFSFLT1_sfc_wetblb_060.txt.gz
Wetbulb
72.12 71.67 71.47 71.76 71.32 70.06 68.80 68.70 68.67 68.69 68.86 68.62 67.95 66.76 67.13 67.56 68.00 67.86 68.65 67.53 70.53 70.83 69.73 69.85 69.96 70.04 70.15 69.90 70.12 68.98 68.16 68.31 67.28
71.14 70.87 70.41 70.29 69.82 68.96 68.06 68.11 68.45 68.61 68.66 68.19 67.03 66.53 67.37 65.61 66.24 66.86 66.69 67.32 70.04 70.11 69.63 69.25 68.75 68.22 68.19 68.96 69.45 69.48 69.34 69.27 69.30
70.14 70.08 69.86 69.40 68.70 68.22 68.00 67.98 68.30 68.68 68.23 67.50 66.50 66.65 66.46 64.85 65.99 66.19 66.15 68.62 68.05 67.66 67.08 67.10 67.05 66.98 66.51 66.79 67.62 67.85 67.89 67.89 68.10
69.45 69.21 69.29 69.02 68.62 68.26 68.32 68.41 68.52 68.20 67.55 66.90 66.26 66.59 66.18 64.52 64.10 66.45 64.97 68.65 67.60 66.63 65.97 65.76 65.65 65.57 65.35 65.11 64.93 64.97 65.33 65.58 65.62
69.31 68.74 69.01 68.53 68.53 68.68 68.89 68.83 67.99 67.13 66.95 66.38 65.99 65.83 65.61 61.43 63.70 64.23 65.12 67.70 67.04 66.28 65.08 64.82 64.47 64.04 63.74 63.32 62.85 62.91 62.95 63.28 63.34
66.07 66.33 67.46 68.48 69.05 69.10 69.07 68.09 66.59 66.42 66.46 65.95 65.75 64.93 61.98 61.07 63.33 63.84 67.33 66.80 66.49 65.48 64.39 63.47 63.08 62.56 62.12 61.68 61.47 61.39 61.24 61.38 61.35
64.26 64.88 66.65 68.24 68.67 69.03 69.20 67.32 66.56 64.99 62.43 61.30 63.26 60.44 60.68 59.79 63.19 63.60 66.88 65.86 65.61 64.79 63.65 62.04 61.41 61.22 61.01 60.99 60.84 60.68 60.51 60.11 60.17
63.58 63.15 62.91 63.42 65.56 65.79 65.70 63.51 60.71 59.37 60.02 59.93 59.49 59.90 57.99 57.52 61.17 64.65 66.32 65.28 64.80 63.85 62.66 60.96 60.56 60.34 60.32 60.15 59.93 59.60 59.22 59.30 59.42
61.37 63.31 62.44 62.67 63.95 63.22 64.31 62.68 60.48 58.74 57.42 58.58 57.93 57.82 56.92 54.97 58.99 62.99 64.95 65.06 63.94 62.87 61.79 60.50 60.08 59.70 59.52 59.28 59.06 58.47 58.50 58.83 58.37
60.83 60.85 62.68 63.07 63.51 62.79 63.26 63.17 61.62 57.84 56.71 56.18 56.41 56.17 55.02 52.87 54.58 60.92 63.17 64.28 63.30 62.05 61.40 60.35 59.75 59.31 58.82 58.67 58.02 57.50 57.59 57.54 57.50
61.42 60.60 60.87 61.62 62.44 63.51 62.62 61.85 60.36 58.35 56.71 55.14 55.19 54.54 52.76 51.53 53.22 60.49 60.77 63.10 63.02 61.45 60.98 59.98 59.42 59.22 58.45 58.20 57.05 56.01 55.89 55.51 55.66
62.72 61.89 61.37 60.98 61.46 61.81 61.73 61.25 60.36 57.56 56.16 53.92 53.45 53.01 51.56 51.20 51.52 58.90 59.10 60.01 60.93 61.89 60.66 59.31 58.95 58.81 58.27 57.84 56.79 54.96 53.92 53.79 53.57
63.27 62.64 62.36 62.78 62.00 61.36 60.80 60.25 59.02 56.55 54.17 52.35 51.28 51.11 51.27 50.53 50.33 52.64 58.12 56.45 56.06 59.95 60.76 58.97 58.27 57.92 58.12 57.10 56.24 54.38 53.35 52.39 52.18
63.59 62.72 62.78 63.16 62.51 61.82 61.49 60.01 58.96 56.01 53.54 52.51 51.13 49.58 49.73 49.85 51.17 51.07 52.72 55.57 54.33 52.73 58.30 58.55 58.10 57.76 56.36 56.66 55.94 54.52 52.78 51.67 51.12
63.96 62.86 62.65 62.84 61.71 61.68 61.09 59.98 58.77 56.30 54.70 54.32 52.15 48.87 48.97 49.38 48.77 49.04 51.77 51.42 51.70 51.12 50.74 50.11 51.45 56.65 55.12 55.87 55.04 53.86 52.79 51.52 51.10
64.34 63.86 62.63 62.15 61.93 61.93 61.79 61.29 58.50 56.09 54.84 51.04 47.96 47.55 47.95 47.39 48.08 48.42 48.55 49.80 50.09 49.03 47.82 47.79 46.66 49.26 54.29 53.84 53.51 52.96 51.89 51.45 50.57
64.55 63.35 63.18 62.57 61.24 60.70 61.74 61.45 59.30 56.24 54.97 49.08 46.19 43.49 45.35 46.13 46.85 46.84 48.29 47.93 48.62 48.48 48.06 47.44 45.64 45.22 45.60 46.99 51.91 51.03 51.03 50.24 50.33
66.17 65.33 64.02 62.60 62.89 61.63 60.65 61.53 60.08 57.87 54.32 51.83 49.12 46.26 44.59 42.65 44.78 45.79 46.17 46.49 46.26 47.20 47.18 46.83 46.23 44.39 43.72 47.13 47.77 48.55 48.39 49.71 50.40
64.37 63.07 64.65 64.50 64.60 63.82 62.60 62.44 61.05 59.14 54.13 52.12 53.22 51.63 47.90 43.50 39.58 42.87 44.34 45.71 45.53 45.98 44.96 44.61 44.07 43.18 42.87 45.29 45.48 47.69 48.19 48.60 49.08
63.31 63.43 62.94 64.05 63.82 64.05 63.50 62.43 61.71 61.47 58.37 53.93 50.89 51.73 46.33 43.98 43.13 38.28 40.22 43.15 43.83 43.85 45.23 43.44 41.57 42.01 41.77 41.58 46.28 48.32 47.34 47.53 48.07

GFSFLT1_sfc_wetblb_063.txt.gz
Wetbulb
72.02 72.05 72.15 71.91 70.96 69.64 69.30 68.89 68.68 68.87 68.61 67.96 67.37 67.52 67.95 67.88 67.03 67.15 68.43 67.51 70.55 70.33 70.27 69.39 70.10 70.19 70.39 70.31 69.36 68.64 68.51 67.70 67.58
71.40 71.32 70.97 71.01 70.53 68.96 68.83 68.57 68.73 68.81 68.37 67.25 66.96 67.07 66.86 64.51 65.93 66.20 65.83 67.37 70.21 70.15 69.76 68.99 68.40 68.24 68.74 69.61 69.91 69.69 69.64 69.49 69.27
70.93 70.56 70.17 69.50 68.89 68.46 68.42 68.40 68.76 68.66 67.94 66.77 66.38 66.86 66.29 64.20 64.76 64.56 64.81 68.30 68.05 67.77 67.09 66.72 66.83 66.66 66.85 67.58 68.44 68.35 68.30 68.46 68.49
70.30 70.08 69.72 69.18 68.69 68.40 68.25 68.59 68.83 68.26 67.51 66.46 66.22 66.49 66.13 62.49 64.57 65.37 64.71 68.34 67.34 66.82 66.13 65.83 65.59 65.46 65.26 65.11 65.37 65.78 66.17 66.13 66.00
69.74 69.40 69.67 69.39 68.96 68.84 68.77 68.73 68.30 67.64 66.96 66.13 66.77 66.09 64.87 62.05 63.42 63.84 65.44 67.71 66.89 65.97 65.27 64.83 64.51 64.28 63.58 63.08 63.26 63.34 63.63 63.86 63.85
66.64 66.43 67.97 68.98 69.49 69.36 69.09 68.56 67.58 67.27 66.48 66.15 65.74 65.02 60.90 60.65 62.63 63.26 67.93 67.39 66.59 65.33 64.25 63.83 63.33 62.88 62.27 61.89 61.82 61.78 61.92 61.83 61.78
65.64 64.77 66.74 68.64 68.92 69.24 69.23 67.96 67.10 64.91 62.19 61.16 63.48 60.11 59.42 61.33 62.14 63.15 67.46 66.79 66.15 65.04 63.22 62.35 61.90 61.70 61.55 61.43 61.27 60.99 60.59 60.69 60.54
62.62 63.06 64.15 64.05 65.06 66.06 66.64 64.88 62.46 60.12 59.87 58.83 58.67 59.14 57.70 59.76 61.84 64.35 66.65 66.09 65.77 64.76 62.70 61.63 61.34 61.28 61.15 60.77 60.36 59.82 59.99 59.95 59.62
61.71 61.30 61.09 61.59 63.87 63.22 62.76 61.29 59.59 57.56 58.04 58.65 57.48 58.00 55.51 57.98 60.74 63.09 65.20 65.83 65.25 64.18 62.57 61.43 61.06 60.84 60.64 60.43 59.88 59.24 59.61 59.19 59.03
61.62 61.63 61.10 61.17 62.35 62.37 63.10 61.88 60.77 57.83 55.77 56.64 56.07 55.41 55.20 53.76 59.70 60.77 63.20 65.04 64.79 63.41 62.37 61.57 61.23 60.69 60.33 60.02 59.15 58.88 58.68 58.72 58.29
60.50 60.25 61.04 61.09 61.92 62.34 62.19 62.27 61.35 57.86 55.45 54.81 53.83 54.20 53.35 50.46 56.78 59.87 60.97 63.83 64.14 62.93 62.33 61.59 61.10 60.79 60.17 59.91 58.69 57.97 57.85 57.71 57.60
60.56 59.25 59.60 61.23 61.17 62.30 60.88 60.62 59.63 57.22 55.91 54.08 52.95 52.57 51.03 49.40 56.67 59.28 58.99 60.73 62.11 62.91 62.22 61.46 60.77 60.53 60.17 60.03 58.45 57.07 56.38 55.79 55.88
61.25 60.50 60.15 60.58 59.86 60.38 59.61 59.20 58.26 56.35 54.40 52.08 51.34 50.80 50.23 49.03 51.00 58.22 58.43 57.44 57.51 61.10 62.51 61.36 60.36 60.33 59.95 59.72 58.96 56.93 55.50 54.83 54.25
62.79 61.84 61.50 61.73 60.40 59.63 59.66 58.93 58.24 55.44 53.08 51.74 50.53 49.19 49.12 48.95 49.71 52.52 57.22 56.23 55.03 55.21 60.11 60.56 60.04 60.14 59.71 59.49 58.82 57.15 55.30 54.03 53.48
63.59 62.49 61.97 61.75 60.80 60.27 59.54 58.69 57.88 56.24 54.25 53.58 51.83 48.79 47.96 48.18 47.75 47.96 55.21 56.32 54.36 53.14 52.95 54.55 54.63 58.74 59.10 58.36 58.57 57.19 55.41 53.84 53.10
62.59 62.56 61.44 61.26 61.40 61.02 60.52 59.45 57.93 55.97 53.84 50.53 48.18 46.62 46.38 46.69 47.37 47.31 48.11 51.53 53.49 51.89 51.58 51.26 49.38 53.05 58.38 57.68 57.61 56.56 55.80 54.42 53.54
65.20 62.61 61.31 60.95 60.13 59.54 59.97 59.91 58.00 56.85 54.46 50.63 45.96 43.90 44.72 45.85 46.33 46.17 47.42 47.60 49.34 50.46 50.32 49.26 46.68 47.27 48.98 49.88 56.97 55.71 54.92 54.63 53.79
64.27 64.10 63.51 61.70 61.45 59.99 59.22 60.04 59.05 57.91 55.00 52.26 49.49 43.74 42.66 42.40 44.08 45.91 46.33 46.80 47.01 48.54 48.27 48.32 47.13 45.68 45.63 49.55 52.32 54.29 53.09 53.23 53.01
63.75 63.15 63.01 61.96 61.54 61.82 62.45 61.76 61.17 59.34 56.56 54.14 54.23 51.34 47.62 43.17 41.75 43.66 45.61 47.05 46.75 46.81 45.72 46.24 46.01 45.61 44.54 47.54 48.52 51.71 50.56 50.70 52.15
63.38 63.01 61.84 61.32 60.97 61.65 62.25 61.21 61.22 60.93 60.34 56.50 54.42 52.84 51.08 47.60 43.88 41.67 43.68 45.49 46.55 46.50 46.68 45.37 44.81 43.42 44.08 44.69 47.12 49.79 49.87 50.83 50.88

GFSFLT1_sfc_wetblb_066.txt.gz
Wetbulb
71.00 72.16 72.34 71.41 70.57 69.51 68.80 68.46 68.50 68.27 68.03 67.80 67.91 67.85 68.35 67.75 66.52 66.64 68.14 67.14 70.14 70.52 70.18 70.43 70.11 70.29 70.51 68.96 68.40 68.38 68.01 67.22 69.55
71.04 71.95 71.35 70.97 69.70 69.34 68.65 68.53 68.69 68.33 67.81 67.45 67.31 67.22 67.32 65.52 65.09 65.09 66.41 67.97 70.38 70.05 69.38 68.74 68.41 68.70 69.83 69.86 69.65 69.47 69.20 69.33 69.24
70.87 71.01 70.44 69.77 69.05 68.83 68.48 68.47 68.65 68.19 67.45 67.14 66.85 66.94 66.29 65.07 63.83 63.73 64.29 68.48 68.27 67.77 67.07 66.66 66.54 66.61 67.46 68.23 68.76 68.84 68.86 68.92 68.62
70.75 70.42 69.83 69.27 68.86 68.60 68.33 68.51 68.67 68.06 67.22 66.56 66.45 66.38 65.78 63.13 63.59 64.45 64.06 68.13 67.44 66.85 66.34 66.10 65.73 65.41 65.36 65.68 66.06 67.00 66.94 66.63 66.71
70.29 69.74 69.84 69.49 69.12 68.81 68.56 68.73 68.63 67.94 67.10 66.46 66.08 65.41 65.45 62.53 63.21 63.50 64.58 67.55 66.69 66.09 65.39 65.03 64.57 64.22 63.83 64.05 64.24 64.40 64.75 64.71 64.51
67.18 67.08 68.36 69.36 69.53 69.04 68.57 68.55 68.39 67.96 66.56 66.17 65.55 63.49 60.58 61.64 62.14 63.17 68.11 67.07 66.25 65.13 64.33 63.97 63.65 62.95 62.50 62.44 62.46 62.63 62.73 62.73 62.55
65.96 64.82 67.04 68.90 69.09 69.12 69.07 68.48 67.72 65.55 61.51 60.56 63.51 59.37 58.42 61.29 61.55 62.72 68.09 66.85 66.22 64.85 63.70 62.79 62.22 61.83 61.65 61.57 61.48 61.38 61.24 61.19 61.29
63.53 62.60 64.00 64.36 65.19 65.85 67.18 65.44 62.92 59.91 59.45 58.41 58.30 58.52 57.60 60.67 61.33 63.54 67.49 66.90 66.32 64.87 63.06 62.13 61.71 61.46 61.21 61.03 60.93 60.47 60.54 60.25 60.45
60.75 61.53 61.92 62.01 63.34 62.96 63.23 61.70 60.40 58.47 58.75 57.95 56.90 57.06 54.96 59.63 60.63 62.03 65.60 66.90 65.98 65.07 63.00 62.01 61.42 61.41 60.93 60.48 59.85 59.78 60.02 59.61 59.63
60.92 60.82 60.44 60.60 61.64 62.12 62.33 61.04 60.19 57.77 56.15 56.36 57.09 56.09 53.87 57.47 60.00 60.46 63.30 65.61 66.10 64.84 63.28 62.44 61.91 61.39 61.03 60.60 59.67 59.55 59.56 59.29 58.93
61.14 61.02 60.64 60.13 60.94 62.15 62.21 62.04 61.12 59.75 56.30 54.30 55.24 54.49 53.57 53.02 58.52 59.57 60.76 64.47 65.43 64.81 63.81 62.77 62.17 61.73 61.41 60.88 59.69 59.28 59.12 58.85 58.54
60.68 60.79 60.78 60.81 60.88 61.47 61.33 61.14 61.10 59.88 57.16 53.72 52.95 52.75 52.75 49.85 55.49 58.81 58.94 61.24 62.99 64.15 63.58 62.99 62.22 61.66 61.32 61.36 59.95 59.02 58.53 58.27 57.96
60.21 59.55 59.69 61.08 59.95 61.19 60.12 60.04 59.02 58.97 57.76 55.02 52.59 51.37 50.99 49.43 50.36 57.61 58.60 58.12 59.08 62.04 63.44 63.09 62.16 61.76 61.46 61.43 60.41 58.74 57.55 56.79 56.87
61.34 60.65 60.14 59.17 59.39 59.42 60.19 59.04 58.35 56.35 54.51 53.40 52.01 50.27 49.48 48.74 49.12 55.62 57.04 56.83 56.86 56.22 60.60 62.14 61.80 61.87 61.27 61.30 60.94 59.12 57.19 56.25 55.73
62.39 61.69 60.89 60.46 59.61 58.69 57.90 57.73 57.31 56.64 56.82 55.11 52.57 49.53 48.48 48.13 47.10 47.86 57.09 57.07 56.07 54.79 54.88 57.40 57.49 60.39 61.32 60.81 60.84 59.95 57.68 55.84 55.07
62.54 61.85 61.18 60.78 60.35 60.90 59.85 58.43 57.29 56.86 53.65 52.27 50.36 47.41 47.65 46.32 47.02 46.46 48.46 55.65 55.99 54.03 53.74 54.41 53.21 54.83 60.22 60.62 60.27 59.80 58.72 56.50 55.11
63.88 62.05 61.48 60.77 60.70 59.52 59.19 58.84 56.99 56.47 54.12 52.66 49.15 49.03 48.97 46.15 47.25 45.82 46.99 48.08 54.46 54.17 53.32 52.87 50.59 50.11 52.39 53.93 59.17 59.66 58.64 57.78 56.09
63.45 63.47 62.52 61.23 59.86 60.21 58.71 58.25 57.63 58.61 54.41 53.20 54.61 46.10 46.48 43.39 44.74 45.29 46.83 46.72 47.07 51.43 53.16 52.07 51.06 49.14 49.98 52.74 54.36 57.45 58.00 56.75 56.36
62.83 62.56 62.70 62.19 60.38 60.18 60.22 59.58 59.01 57.88 56.68 53.80 55.59 51.93 48.82 45.30 44.88 43.46 45.89 47.32 47.46 47.55 48.30 50.05 49.58 48.31 47.88 49.57 51.18 54.46 55.12 55.01 55.06
62.24 61.77 61.01 60.85 60.57 60.15 60.10 59.48 58.50 59.14 59.06 55.55 54.49 54.93 52.61 49.86 45.82 49.84 45.14 46.68 48.24 49.48 48.81 47.44 47.35 47.55 46.72 46.34 49.41 52.44 53.00 53.58 52.82

GFSFLT1_sfc_wetblb_069.txt.gz
Wetbulb
71.62 72.34 72.48 71.10 70.26 68.93 68.19 67.87 67.58 67.66 67.90 68.07 68.35 68.90 68.88 66.67 63.08 65.62 66.46 65.71 70.33 70.77 70.18 70.07 70.24 70.14 68.64 67.90 68.00 67.87 66.77 69.36 69.53
72.01 72.30 70.86 70.26 69.65 68.77 68.07 68.20 68.14 67.98 67.61 67.71 67.76 68.13 68.01 65.19 64.52 65.10 66.37 68.08 70.30 69.48 68.89 68.21 68.55 69.83 69.44 69.66 69.30 68.09 69.06 69.39 69.31
71.64 71.20 70.25 69.60 69.45 68.58 67.98 68.28 68.16 67.82 67.16 67.34 67.11 68.14 67.14 64.58 63.47 63.54 64.44 68.76 68.19 67.35 66.80 66.50 66.59 66.75 67.82 68.94 69.47 69.41 68.94 68.83 68.76
71.01 70.67 69.97 69.12 68.75 68.45 67.94 68.08 68.07 67.58 66.87 66.51 66.64 66.66 66.44 62.35 62.79 63.81 63.68 68.12 67.03 66.36 65.89 65.45 65.16 64.90 65.38 65.30 65.65 67.88 67.64 67.67 67.45
70.51 69.67 69.70 69.44 69.01 68.74 68.14 68.00 68.21 67.71 66.92 66.61 66.42 65.66 66.14 62.03 62.60 62.87 63.55 67.48 66.51 65.81 65.08 64.79 64.20 63.71 63.85 64.17 64.00 64.06 65.50 65.44 65.22
67.18 67.15 68.32 69.16 69.32 68.79 68.17 68.26 68.54 67.99 66.42 66.16 65.69 63.27 61.70 61.02 61.94 62.64 67.64 67.11 66.22 65.18 64.33 63.81 63.37 62.56 62.28 62.36 62.54 62.76 62.79 62.83 62.59
65.99 64.95 66.95 68.80 68.98 68.98 68.98 68.71 68.26 65.82 60.81 59.63 62.95 59.03 58.65 60.71 61.26 62.37 68.13 67.06 66.32 64.87 63.97 63.24 62.60 61.88 61.53 61.34 61.31 61.30 60.95 61.11 61.34
63.27 62.41 63.70 63.98 64.90 65.29 66.70 65.62 63.22 60.29 58.83 58.49 57.81 58.36 57.35 59.80 60.90 62.69 67.66 67.10 66.60 65.31 63.62 62.49 61.92 61.51 61.26 61.11 60.71 60.52 60.08 60.06 60.11
60.96 60.92 61.42 61.78 62.80 62.56 63.17 62.22 61.13 59.46 58.33 57.35 56.41 56.98 56.12 59.21 60.31 61.04 65.60 67.64 66.62 65.75 63.76 62.57 61.86 61.62 61.17 60.88 60.34 60.10 59.66 59.67 59.46
59.78 60.28 60.60 60.69 61.00 61.40 61.76 61.39 60.23 58.59 56.62 56.59 56.86 55.76 54.82 56.42 59.54 59.76 62.54 65.75 67.05 65.81 64.60 63.02 62.29 61.84 61.43 60.84 60.00 59.74 59.80 59.33 59.05
59.64 60.07 60.14 59.77 60.13 61.32 61.45 61.75 60.33 59.33 58.05 55.99 54.66 55.38 54.28 52.76 57.87 59.10 59.78 64.20 65.95 66.22 65.14 63.89 62.97 62.44 62.08 61.52 60.39 59.79 59.74 59.44 59.00
60.36 60.06 59.84 60.10 59.79 60.29 60.65 60.55 60.55 59.68 59.01 56.28 54.25 53.31 53.43 52.08 53.87 58.08 58.65 60.22 63.33 65.34 64.87 64.46 63.47 62.74 62.35 62.12 61.04 59.97 59.60 59.40 58.80
59.94 59.88 60.15 60.69 59.64 59.92 59.63 60.12 59.51 59.33 58.69 56.97 54.95 52.66 51.73 51.56 49.61 55.61 58.14 58.08 59.61 62.45 64.83 64.87 63.87 63.03 62.48 62.21 61.85 60.25 59.23 58.68 58.47
61.65 60.33 60.06 59.77 59.71 59.49 59.91 58.94 58.85 57.44 57.79 57.61 57.13 53.17 50.96 50.57 50.42 50.48 56.03 57.23 58.21 57.57 60.83 62.82 63.17 63.38 62.52 62.52 62.36 61.15 59.06 57.77 57.31
61.95 61.42 59.97 58.66 58.61 58.26 57.81 58.84 57.46 58.30 58.37 57.28 56.20 52.66 51.05 48.92 48.24 47.38 53.89 56.84 57.47 56.38 55.89 57.41 59.21 61.51 62.67 62.07 62.26 62.02 60.24 58.13 57.10
61.82 61.38 60.70 60.26 59.00 59.08 58.18 57.43 56.83 56.26 54.11 52.36 51.38 50.56 51.14 50.36 48.55 47.24 46.70 53.83 57.08 56.84 55.52 55.32 55.80 56.88 61.48 61.95 61.83 61.67 61.44 59.14 56.96
63.02 61.72 61.63 61.12 60.51 59.54 58.89 58.11 56.20 55.57 53.87 53.56 50.07 52.24 51.99 47.26 48.69 46.81 47.87 47.18 53.18 55.33 55.42 54.85 54.64 54.30 55.38 57.01 60.66 61.64 61.12 60.69 58.37
63.38 63.39 62.39 61.19 59.66 59.47 58.64 57.58 57.14 58.95 55.83 54.57 56.40 49.31 47.94 45.99 46.44 45.61 46.04 47.10 46.04 52.16 54.01 54.53 54.48 54.02 53.34 54.92 57.06 59.26 59.94 60.25 59.81
61.47 61.84 61.85 61.70 60.37 59.10 59.18 58.77 57.88 56.74 57.13 53.10 54.34 54.75 49.39 49.01 49.30 45.87 45.68 46.66 46.64 45.81 48.88 52.77 53.27 53.17 52.59 52.79 54.21 55.98 57.78 58.77 59.07
54.67 57.97 59.83 59.89 59.74 59.28 59.04 58.31 57.13 57.40 56.88 55.25 54.19 53.77 53.93 50.24 48.53 50.56 49.95 48.06 47.66 49.15 49.06 49.61 50.56 50.95 50.74 49.71 51.45 54.72 56.07 57.18 57.31

GFSFLT1_sfc_wetblb_072.txt.gz
Wetbulb
71.66 72.50 71.78 70.53 69.26 68.29 67.58 67.43 68.10 68.06 68.30 68.57 69.16 69.40 68.41 65.06 62.20 64.51 64.66 66.29 70.54 70.74 70.22 70.06 70.45 68.92 68.04 68.08 68.02 67.11 67.88 69.36 69.36
72.16 72.04 70.74 69.90 69.20 68.06 67.76 67.83 68.05 68.06 67.92 67.96 68.42 68.91 67.57 64.90 64.20 65.20 65.72 67.66 69.74 69.36 68.86 67.67 68.54 69.66 69.45 69.30 68.57 68.06 69.11 69.30 69.14
72.50 71.09 70.09 69.65 69.01 68.08 67.95 68.10 67.94 67.72 67.56 67.62 68.21 68.42 66.94 64.07 63.14 63.65 64.42 68.95 68.42 67.78 67.14 66.29 66.02 67.38 67.52 68.65 69.43 69.10 68.79 68.78 68.77
71.68 70.61 69.77 69.30 68.81 68.10 67.66 67.92 67.87 67.57 67.15 66.85 66.57 67.59 66.19 61.81 62.25 63.47 63.35 68.19 67.08 66.34 65.93 65.63 65.26 65.01 65.78 65.88 65.92 67.90 68.04 67.99 67.74
70.95 69.89 69.94 69.45 68.84 68.42 67.74 67.51 67.76 67.81 67.46 66.44 65.83 65.58 66.05 61.04 61.84 62.30 62.91 67.18 66.26 65.64 65.00 64.67 64.12 63.62 63.95 64.37 64.20 63.46 65.44 65.57 65.63
66.89 67.04 68.19 69.28 69.29 68.30 67.70 67.61 68.00 67.84 65.73 65.54 65.42 63.60 61.70 60.61 61.48 61.93 65.58 66.45 65.80 64.78 63.98 63.48 63.14 62.32 62.26 62.49 62.85 62.90 62.54 62.67 62.80
66.08 65.13 66.99 68.67 68.73 68.67 68.21 68.30 68.63 65.87 60.43 59.19 62.58 58.91 59.71 60.30 60.86 61.67 66.15 66.93 66.07 64.71 63.79 62.95 62.29 61.63 61.24 61.07 61.37 61.35 61.27 61.32 61.55
63.12 62.37 63.10 63.36 64.31 64.46 65.64 64.67 63.21 60.41 58.90 57.79 57.32 58.37 57.38 57.34 60.35 62.24 65.62 67.56 66.71 65.62 63.92 62.77 61.95 61.40 61.00 60.86 60.50 60.41 60.00 60.30 60.23
60.75 60.75 60.69 61.13 61.89 62.01 62.40 62.30 61.55 59.88 58.31 56.34 55.83 56.67 56.95 56.35 59.48 60.41 63.97 67.36 67.05 66.47 64.75 63.08 62.12 61.60 61.28 60.94 60.46 60.06 59.65 59.75 59.63
59.71 59.96 59.93 60.14 60.52 60.87 60.80 61.16 60.77 59.37 58.05 56.44 56.17 55.93 55.11 54.21 58.09 59.34 61.55 65.03 67.14 66.64 66.05 64.26 63.06 62.25 61.82 61.22 60.43 59.84 59.83 59.50 59.34
58.96 59.15 59.64 59.65 60.12 60.35 60.44 60.38 60.38 59.57 58.23 57.93 56.11 54.62 54.82 54.22 54.67 58.50 59.21 63.09 65.54 66.71 66.04 65.39 64.18 63.27 62.65 61.97 61.14 60.16 60.25 59.72 59.33
59.43 59.14 59.27 59.68 59.61 59.56 59.68 59.65 59.74 59.16 59.22 58.14 57.94 55.50 53.52 53.75 52.65 55.24 58.05 59.41 62.62 65.05 66.10 65.40 64.87 63.91 63.43 63.06 62.21 60.73 60.26 60.14 59.55
60.44 59.64 59.46 59.84 59.17 58.89 58.53 58.76 58.34 58.68 58.55 58.15 58.72 56.82 53.63 52.18 51.77 51.89 56.30 57.78 59.14 61.99 65.45 65.97 65.19 64.55 63.89 63.58 63.05 61.97 60.51 59.92 59.65
61.59 60.28 60.10 59.72 59.14 58.62 58.61 58.05 58.16 57.20 57.84 58.34 58.35 57.01 55.19 53.61 52.73 49.89 51.75 55.97 58.08 58.07 60.66 63.42 63.99 64.74 64.18 63.96 63.63 63.03 61.42 59.84 59.18
62.17 61.22 59.82 58.62 58.54 58.16 57.58 58.24 57.17 58.44 57.92 57.88 57.44 55.66 55.20 53.18 51.40 52.03 50.15 53.03 55.98 56.92 57.08 57.41 59.86 62.04 64.20 63.71 63.57 63.32 62.79 60.56 58.96
61.84 61.48 59.86 58.73 58.06 58.68 57.93 57.82 57.57 56.58 54.99 55.12 55.48 53.01 52.30 51.77 52.27 53.00 49.31 49.24 53.90 55.72 56.45 56.12 56.70 57.22 62.30 63.46 63.28 62.99 62.96 62.37 60.10
63.06 61.21 60.52 59.77 59.22 58.57 58.04 56.87 55.47 55.28 55.16 56.14 52.37 53.04 54.30 49.13 49.94 48.35 47.79 47.17 48.96 54.18 54.76 54.63 54.41 54.54 55.10 57.85 61.77 62.58 62.33 62.68 62.10
62.65 62.87 62.32 61.06 60.07 59.83 58.74 57.46 56.98 56.87 55.38 56.00 56.91 52.37 50.40 49.19 50.27 48.91 46.59 45.97 44.84 49.01 53.70 53.75 54.30 55.05 55.82 56.07 57.63 59.93 61.50 61.18 61.77
57.10 59.76 61.55 61.83 60.05 59.13 58.93 58.29 57.12 57.03 56.82 52.86 54.44 53.02 52.39 51.45 51.24 49.68 47.62 47.66 45.86 46.16 49.32 52.27 54.00 54.58 54.41 54.51 54.79 56.62 58.93 59.64 60.34
52.54 53.19 55.04 60.30 60.30 58.97 58.69 57.78 56.64 56.05 55.69 53.74 53.68 54.58 53.61 51.06 50.12 51.24 49.87 48.18 47.87 47.04 46.50 47.33 49.87 51.91 51.61 51.68 52.72 55.71 57.64 59.97 60.23

GFSFLT1_sfc_wetblb_075.txt.gz
Wetbulb
72.48 71.77 70.74 69.54 68.70 67.82 68.07 68.89 68.69 68.83 69.06 69.54 69.91 69.30 67.64 65.55 67.89 67.70 67.92 70.41 70.52 70.07 69.53 70.60 69.74 68.73 68.80 68.43 68.15 67.49 69.71 69.60 69.55
72.35 71.35 70.38 69.63 68.50 68.08 68.12 68.48 68.63 68.38 68.54 68.82 69.59 68.57 67.61 68.92 68.96 68.88 70.20 70.37 69.81 69.40 68.47 67.62 69.44 69.66 69.70 69.28 68.65 69.45 69.56 69.30 69.20
72.28 70.90 70.16 69.72 68.73 68.25 68.26 68.28 68.27 68.00 68.13 68.42 69.20 68.25 66.88 67.70 68.77 68.70 69.15 69.16 68.51 67.69 66.83 66.47 66.66 66.81 67.61 68.65 69.36 69.23 68.91 68.73 68.48
71.67 70.60 69.97 69.71 68.91 68.26 68.36 68.40 68.15 67.90 67.50 66.92 67.27 67.60 65.86 67.34 67.21 66.54 67.75 68.19 67.35 66.70 66.07 65.76 65.29 65.21 66.08 66.16 65.99 67.86 67.99 67.82 67.32
71.03 70.02 70.03 69.48 68.88 68.31 67.79 68.10 68.19 67.99 67.17 66.28 65.75 65.53 65.80 67.18 66.77 67.29 67.70 66.85 66.52 65.76 65.06 64.53 64.08 63.71 64.22 64.67 64.81 64.55 64.74 65.56 65.72
69.39 67.65 68.35 69.27 68.99 68.18 67.72 67.74 68.13 67.12 65.38 65.38 64.82 64.40 67.14 67.11 66.89 67.11 65.38 66.79 66.01 65.01 64.14 63.63 63.25 62.63 62.67 62.80 63.15 63.27 63.10 63.19 62.48
68.70 66.74 67.20 68.77 68.76 68.61 67.83 67.90 68.07 66.14 65.97 64.91 63.76 65.14 66.28 66.45 66.61 66.66 65.58 67.55 66.63 65.24 64.00 63.15 62.54 61.83 61.40 61.36 61.61 61.59 61.51 61.58 61.68
68.38 68.24 68.14 68.76 65.99 68.57 68.39 68.43 68.41 66.26 65.01 63.92 63.72 63.98 63.97 64.65 65.08 65.73 65.34 67.52 67.76 66.63 64.59 63.39 62.27 61.57 61.13 61.01 60.74 60.57 60.19 60.39 60.29
66.62 66.52 66.53 66.65 67.30 67.15 67.46 67.49 67.20 66.27 64.62 63.11 62.33 61.86 62.87 63.53 63.45 64.51 63.70 65.85 67.82 67.36 66.31 64.31 62.84 62.09 61.61 61.18 60.73 60.17 59.86 59.87 59.69
65.14 65.30 65.32 65.20 65.73 65.84 66.05 66.11 65.98 65.64 64.80 63.65 61.87 61.72 61.72 62.00 62.15 63.21 62.01 63.83 66.57 67.45 66.98 66.00 64.32 63.17 62.58 62.01 61.36 60.52 60.47 59.93 59.75
63.48 63.56 63.92 64.21 64.63 65.11 65.15 64.98 64.70 64.60 64.65 64.21 63.66 62.48 61.54 61.53 61.03 61.19 63.19 62.79 64.58 66.47 67.09 66.59 65.77 64.58 63.82 63.28 62.28 61.09 60.59 60.18 59.68
63.94 63.43 63.24 63.74 64.24 64.09 64.29 64.10 64.11 63.93 63.95 63.80 64.31 63.88 63.46 61.48 60.48 60.38 61.21 62.63 62.06 64.03 66.36 66.65 66.12 65.39 64.71 64.18 63.43 62.20 60.72 60.56 60.03
65.20 64.32 64.05 64.51 63.87 63.55 63.25 63.15 62.82 62.86 62.89 62.91 63.53 63.75 63.56 63.07 61.56 60.04 59.63 60.41 61.23 62.44 63.89 65.82 66.29 65.77 65.28 64.80 64.27 63.50 61.91 60.78 60.45
65.97 65.21 65.36 65.10 64.28 63.59 63.21 62.73 62.38 62.21 62.36 62.04 62.47 62.89 62.95 63.23 62.35 62.00 60.46 59.56 59.78 61.36 61.86 62.90 64.54 65.51 65.58 65.06 64.84 64.24 63.29 61.73 60.65
66.27 65.84 65.32 64.77 64.02 63.70 63.04 62.60 62.55 62.19 62.30 60.89 60.80 61.90 62.35 62.50 62.18 61.02 60.52 60.21 59.35 60.01 60.79 61.82 62.30 62.47 64.50 64.90 64.58 64.47 64.03 63.00 61.38
65.90 65.69 65.14 64.12 63.35 63.79 63.22 62.56 61.61 61.67 61.46 59.75 60.67 61.05 61.48 59.61 59.54 61.98 60.82 59.18 57.63 58.23 58.94 59.69 60.47 61.33 62.43 63.97 64.61 64.30 64.00 63.81 62.71
65.95 65.06 64.60 64.04 62.69 62.09 62.07 61.32 60.70 60.18 59.93 59.77 57.98 57.20 59.39 58.89 58.36 58.10 56.59 57.02 55.47 55.51 57.19 58.28 58.73 59.68 60.33 61.11 62.44 63.70 63.59 63.70 63.59
64.62 65.33 65.30 64.77 63.31 63.35 63.28 61.86 60.47 60.47 60.12 59.79 58.68 55.73 54.23 53.12 57.17 56.32 54.89 54.71 53.93 54.18 54.82 56.34 57.24 57.68 58.00 59.03 59.37 60.07 62.25 62.86 63.30
56.61 57.90 60.85 63.01 63.06 62.21 62.82 62.35 61.58 60.45 59.43 57.59 57.78 58.26 55.55 53.70 53.26 55.02 54.49 52.41 54.38 54.48 54.34 54.16 55.23 56.31 57.19 57.12 56.62 57.31 59.55 61.60 62.73
53.76 54.48 55.40 58.21 60.92 61.81 61.92 61.73 60.38 60.49 60.10 58.73 57.59 57.36 56.10 55.25 53.24 51.72 54.55 56.71 56.13 54.46 55.08 54.30 53.72 53.94 55.00 56.10 55.97 55.85 57.57 59.93 61.79

GFSFLT1_sfc_wetblb_078.txt.gz
Wetbulb
72.30 71.08 69.68 68.82 68.18 68.67 69.38 69.08 69.29 69.41 69.78 70.12 69.64 68.26 66.64 66.29 70.16 70.07 70.69 69.73 70.28 69.84 68.62 70.26 69.23 70.15 69.55 68.92 67.68 69.78 69.79 69.63 69.63
72.11 70.72 69.75 68.64 68.28 68.31 68.84 69.00 68.88 68.84 69.11 69.87 69.29 68.79 67.86 70.18 70.03 70.73 69.91 69.77 69.51 68.77 67.57 67.48 68.14 68.80 69.69 69.58 69.54 69.54 69.49 69.19 68.89
71.75 70.56 70.00 68.96 68.45 68.46 68.75 68.69 68.45 68.44 68.46 69.54 68.94 67.80 67.82 69.19 69.68 69.42 69.19 68.75 68.00 67.42 66.69 66.64 66.83 67.14 67.70 67.98 69.23 69.09 69.00 68.67 68.14
71.49 70.52 70.12 69.38 68.50 68.49 68.50 68.36 68.13 67.83 67.47 68.00 68.25 67.28 66.42 68.25 67.76 66.96 68.13 67.94 67.35 66.55 66.06 65.50 65.16 65.18 65.92 66.38 66.17 66.76 67.51 67.48 67.00
70.97 70.14 70.25 69.41 68.80 68.11 68.21 68.21 67.99 67.66 66.85 65.87 65.31 66.35 66.41 68.68 68.29 68.51 67.93 66.81 66.62 65.82 65.12 64.54 64.08 63.68 63.73 64.24 64.73 64.82 64.75 64.60 64.66
70.23 68.13 68.72 69.37 68.59 68.13 67.69 67.94 68.10 66.67 65.63 64.95 64.08 64.41 68.78 68.98 68.70 68.50 65.83 67.00 66.23 65.31 64.24 63.68 63.17 62.56 62.45 62.60 62.84 62.96 63.27 63.59 63.23
70.42 67.95 67.77 68.47 68.36 68.04 67.63 67.75 67.81 66.36 67.54 66.54 64.27 66.95 68.01 68.25 68.64 68.32 65.48 66.99 67.30 65.93 64.34 63.34 62.80 61.98 61.48 61.34 61.51 61.41 61.43 61.75 61.62
69.40 69.57 69.19 69.71 66.81 69.41 68.57 68.95 68.61 66.65 66.77 66.37 65.79 65.47 65.76 66.63 67.36 67.61 65.19 66.43 68.04 67.62 65.84 64.26 63.20 62.42 61.74 61.49 61.07 60.73 60.36 60.56 60.39
67.09 66.95 67.21 67.60 68.05 67.90 68.19 68.04 67.97 67.42 66.48 65.40 64.72 64.34 64.54 65.18 65.85 66.35 64.48 65.66 67.28 68.21 67.54 66.04 64.23 63.27 62.65 62.11 61.54 60.48 60.10 59.97 59.85
67.08 66.74 66.29 66.05 66.55 66.64 66.74 66.87 66.48 65.97 65.53 65.47 64.99 64.55 64.44 64.48 64.85 65.23 63.05 63.93 65.63 67.32 67.69 67.49 66.22 64.79 63.74 63.10 62.17 61.19 60.65 59.99 59.78
67.24 67.31 66.75 66.36 66.77 67.13 67.29 67.22 66.64 66.01 65.33 64.71 65.35 65.53 65.59 65.30 64.85 64.57 64.46 63.29 64.26 65.72 67.10 67.46 67.23 66.42 65.34 64.48 63.48 62.26 61.07 60.91 60.29
67.42 67.54 67.61 67.31 67.29 66.76 67.00 67.03 66.91 66.46 66.22 65.64 65.81 66.11 66.47 66.40 65.83 65.11 64.46 64.37 62.39 63.86 65.97 66.81 67.09 66.80 66.25 65.48 64.43 63.41 62.25 61.36 61.04
68.90 67.73 67.94 68.77 68.23 67.53 67.17 66.92 66.24 66.11 66.22 66.12 66.27 66.21 66.55 66.45 66.49 66.36 65.62 65.07 64.64 64.03 63.62 65.25 66.32 66.68 66.46 66.19 65.44 64.63 63.62 62.17 61.46
69.27 68.82 68.63 68.85 68.39 68.11 67.67 67.28 66.97 66.39 66.33 65.65 65.78 66.20 66.15 66.39 65.93 66.15 66.34 66.20 64.96 65.04 63.68 62.94 64.00 65.65 66.16 66.03 65.84 65.33 64.66 63.45 62.16
69.17 69.00 68.90 68.87 68.02 67.60 67.66 67.13 67.66 66.36 66.08 65.24 64.62 65.76 66.03 66.18 66.03 65.79 65.57 65.87 65.72 64.72 64.41 64.40 63.54 61.89 64.33 65.54 65.51 65.28 64.99 64.46 63.34
68.50 68.90 68.92 68.83 67.70 67.54 67.67 67.03 65.94 65.61 66.34 64.11 64.09 64.74 65.26 64.70 64.98 65.36 65.16 64.84 64.13 62.80 62.78 62.93 63.00 62.89 62.74 63.90 64.92 64.88 64.82 64.57 64.24
69.20 68.87 68.45 68.30 67.42 67.31 66.64 65.72 64.64 64.42 65.13 62.72 61.84 58.98 60.50 62.38 63.45 63.57 62.82 62.32 62.48 60.59 60.53 61.22 61.11 61.32 61.48 61.05 61.91 63.61 64.33 64.50 64.33
65.33 66.06 66.00 66.06 66.24 65.11 65.59 65.49 64.14 62.93 64.26 63.53 61.89 58.03 55.59 59.27 61.73 61.17 61.53 60.46 60.51 59.06 59.58 59.44 59.88 60.17 60.40 59.52 59.16 59.49 60.59 62.77 64.01
59.38 60.02 61.33 63.73 64.38 64.15 64.55 64.74 63.60 63.02 61.59 61.81 61.59 62.11 58.94 55.82 54.36 59.32 60.51 59.68 59.90 60.34 60.58 59.50 59.41 59.31 59.25 58.01 56.67 57.21 57.49 59.25 61.38
56.45 57.11 57.97 59.21 61.00 61.18 62.12 62.58 62.48 61.77 60.75 60.92 60.45 59.54 59.93 57.90 55.83 53.66 56.87 59.14 59.00 60.28 59.72 59.26 58.84 58.11 57.34 57.33 56.49 54.20 55.42 57.83 59.53

GFSFLT1_sfc_wetblb_081.txt.gz
Wetbulb
71.07 69.63 68.84 68.50 69.40 69.58 69.36 69.46 69.58 69.88 70.19 69.66 68.83 67.54 66.97 67.67 69.61 69.08 69.81 68.82 69.69 68.50 68.03 69.68 69.53 70.12 70.15 69.42 69.70 70.06 69.85 69.63 69.37
70.74 69.72 68.73 68.38 68.68 69.13 69.16 69.10 69.06 69.42 69.83 69.72 69.36 68.32 68.50 69.54 69.34 69.36 68.49 68.04 68.45 67.64 67.20 67.61 68.10 68.62 68.90 69.80 69.76 69.59 69.43 69.19 68.61
70.78 70.16 69.07 68.51 68.40 68.81 68.87 68.67 68.67 68.56 69.60 69.38 68.69 68.04 68.37 68.32 68.10 67.74 67.50 68.52 67.82 67.13 66.66 66.10 65.75 66.89 67.61 67.55 68.56 69.04 68.88 68.44 67.90
71.06 70.42 69.68 68.68 68.45 68.40 68.39 68.32 68.16 67.91 67.81 68.48 67.91 67.41 67.68 67.40 66.83 66.38 67.11 68.22 67.38 66.57 65.85 65.42 65.04 65.03 65.54 66.07 66.09 65.85 66.21 66.57 66.20
70.85 70.26 70.23 69.24 68.43 68.19 68.22 68.00 67.84 67.25 66.52 65.81 64.98 65.83 67.07 67.60 67.07 67.01 66.73 67.00 66.85 66.01 65.02 64.66 64.13 63.70 63.73 64.02 64.65 64.66 64.82 64.86 64.43
69.24 68.10 69.04 69.43 68.69 68.04 67.51 67.87 67.89 66.59 65.89 65.21 64.56 65.12 67.17 67.27 67.10 66.96 67.12 66.93 66.48 65.67 64.60 63.97 63.48 62.96 62.68 62.79 63.06 63.15 63.40 63.58 63.64
69.93 67.90 67.99 68.74 68.43 68.18 67.80 67.82 67.92 66.54 66.59 65.50 64.53 65.02 66.19 66.58 66.90 67.10 66.70 66.51 67.22 66.38 64.79 63.70 63.04 62.50 62.05 61.95 62.06 62.10 61.99 62.33 62.13
69.00 69.21 68.62 69.04 66.59 68.64 67.90 67.76 67.75 67.23 66.13 65.40 65.04 64.87 64.88 65.03 66.15 66.97 66.59 66.18 67.38 67.79 66.89 64.88 63.64 62.70 62.07 61.70 61.44 61.06 60.72 60.81 60.65
66.54 66.29 66.92 67.16 67.63 67.07 67.60 67.01 67.24 67.09 66.54 65.23 64.34 64.23 64.11 64.23 65.11 65.84 65.46 65.89 66.90 67.81 67.83 67.34 65.49 63.87 62.96 62.42 61.82 60.87 60.36 60.08 59.98
66.29 66.29 65.89 65.56 65.66 65.75 65.87 66.15 65.79 65.57 65.14 64.92 64.48 64.06 64.18 64.32 64.58 64.92 63.73 64.98 65.71 66.79 67.72 67.59 67.57 66.08 64.63 63.67 62.89 61.89 61.01 60.62 60.14
66.77 67.09 66.94 66.07 66.32 66.61 67.01 66.96 66.60 65.95 65.58 64.70 64.66 64.82 65.35 65.42 65.23 65.12 65.00 64.11 64.77 65.53 66.73 67.53 67.48 67.52 66.81 65.47 64.30 63.23 62.07 61.42 60.90
67.25 67.73 67.82 67.57 67.20 66.90 67.19 67.23 67.23 66.76 66.74 66.06 66.11 65.96 66.05 66.27 66.06 66.31 65.88 65.03 62.98 64.74 65.72 66.81 67.16 67.26 67.24 66.91 65.75 64.71 63.69 62.66 62.04
69.00 68.11 68.18 69.07 68.73 67.95 67.44 67.17 66.64 66.45 66.36 66.23 66.61 66.49 66.38 66.33 66.56 66.73 66.64 66.32 65.34 63.94 65.10 65.60 66.08 66.74 67.12 67.09 66.78 65.82 65.00 63.92 62.78
69.42 69.02 68.93 69.05 68.75 68.45 68.03 67.54 67.38 66.50 66.23 66.57 66.70 66.46 66.37 66.49 66.53 66.30 66.63 66.91 66.47 65.96 64.51 63.43 64.12 65.25 66.16 66.78 66.74 66.59 66.09 65.49 63.91
69.71 69.44 69.21 69.25 68.53 67.98 67.94 67.10 67.43 67.09 66.74 65.67 65.32 66.02 66.06 66.54 66.21 65.97 65.88 65.48 65.98 66.45 65.67 64.99 63.26 61.98 63.81 64.84 65.95 66.00 66.05 65.73 64.88
69.08 68.88 68.79 68.64 67.87 67.77 67.37 67.08 66.14 66.00 66.79 64.33 64.16 64.47 65.60 65.24 65.11 65.26 64.90 64.65 64.94 64.58 63.56 63.37 63.33 63.14 63.00 64.09 64.41 64.72 65.60 65.38 65.10
68.68 68.38 67.98 68.51 67.67 66.83 66.72 66.34 65.11 64.83 65.47 62.51 61.96 59.08 60.95 61.96 62.68 64.15 63.43 62.87 63.18 62.27 61.87 61.45 61.36 61.55 61.44 60.46 60.13 60.06 62.08 64.06 64.82
65.63 65.44 65.78 65.99 65.98 65.15 65.14 65.15 64.34 62.46 63.83 63.36 61.27 58.19 55.63 58.90 61.59 62.15 62.14 61.71 61.44 60.76 61.02 60.58 60.58 60.13 60.28 60.15 59.35 58.20 58.15 60.05 61.79
60.41 60.83 61.72 62.73 64.43 64.12 63.94 64.22 64.33 63.83 61.63 63.70 62.15 61.65 60.19 57.07 55.58 60.19 60.50 60.86 60.06 61.14 60.82 59.47 59.57 58.89 58.04 57.60 54.11 54.32 55.52 57.63 59.69
57.19 57.59 58.21 58.76 60.00 61.34 61.02 61.30 61.24 63.05 61.72 61.55 61.17 60.23 59.54 58.87 56.08 54.25 55.86 59.76 59.03 59.62 59.52 58.38 57.06 55.50 55.28 53.81 52.18 52.26 54.09 56.17 57.87

GFSFLT1_sfc_wetblb_084.txt.gz
Wetbulb
69.28 68.76 69.18 70.09 70.22 69.62 69.84 69.79 70.19 70.34 69.72 69.16 68.38 68.19 68.87 69.11 68.42 67.71 67.90 66.13 68.09 67.67 68.76 69.16 69.35 69.51 70.42 70.59 70.28 70.17 69.70 69.43 68.92
69.50 68.69 68.79 69.46 69.43 69.54 69.54 69.35 69.74 70.00 69.92 69.71 69.22 69.10 69.02 67.58 67.23 65.51 64.93 65.22 67.48 67.13 66.56 66.23 67.60 68.75 68.82 69.35 69.93 69.77 69.43 68.93 68.41
70.07 68.94 68.78 68.86 69.30 69.30 69.10 69.03 68.80 69.67 69.50 69.17 68.82 68.75 67.69 65.55 63.75 64.36 64.81 68.23 67.36 66.84 66.25 65.49 65.50 66.80 67.53 67.49 67.30 67.70 68.14 67.67 66.86
70.59 69.83 68.95 68.90 68.78 68.85 68.62 68.47 68.18 67.84 68.39 68.25 67.93 67.65 67.10 63.56 63.42 65.40 64.67 68.29 67.14 66.32 65.65 65.12 64.72 64.77 64.80 65.59 66.01 65.99 66.12 65.85 65.55
70.79 70.00 69.87 69.08 68.68 68.69 68.48 68.13 67.89 67.28 66.41 65.85 66.32 65.48 65.46 63.03 63.77 64.46 64.95 67.59 66.82 65.94 65.07 64.66 64.16 63.88 63.62 63.80 63.98 64.08 64.26 64.49 64.32
68.15 68.03 68.77 69.42 69.12 68.18 68.20 68.21 67.84 67.28 66.20 66.02 65.34 64.73 62.26 62.78 63.27 63.99 67.98 67.27 66.60 65.80 64.82 64.19 63.77 63.31 62.74 62.65 62.84 62.70 62.89 63.26 63.07
67.95 66.43 67.68 68.95 68.74 68.46 68.33 68.30 68.31 66.58 63.30 62.27 64.23 61.08 61.22 61.78 62.74 63.79 67.80 67.31 67.20 66.73 65.17 63.99 63.37 62.77 62.27 62.03 62.00 61.84 61.76 62.00 62.07
66.99 65.77 65.79 65.61 65.52 65.67 67.01 66.43 66.03 63.62 62.41 61.55 60.69 60.86 60.09 59.92 61.03 65.13 67.11 67.03 67.20 67.85 67.69 65.57 64.11 63.10 62.32 61.87 61.55 61.23 60.93 61.03 60.83
63.69 64.98 65.34 65.33 65.17 64.74 64.82 64.60 64.87 63.60 63.29 61.69 60.01 59.54 59.34 59.18 59.66 63.53 65.61 67.04 66.97 67.48 68.01 67.97 66.61 64.98 63.51 62.70 62.05 61.29 60.57 60.14 60.12
61.40 61.34 61.27 61.23 61.22 60.97 60.92 61.59 61.48 61.37 61.38 60.95 60.22 59.69 59.15 59.09 59.41 59.96 63.64 65.49 66.69 66.80 67.47 67.90 67.85 67.51 65.82 64.39 63.33 62.22 61.29 60.75 60.18
62.37 62.38 62.35 61.06 61.22 61.35 61.97 62.18 62.08 61.75 61.18 60.55 60.05 59.67 60.12 60.55 60.64 60.57 61.13 64.44 65.55 66.06 66.44 67.32 67.77 67.72 67.99 66.80 65.21 64.25 63.21 62.11 61.75
62.96 63.23 63.25 62.96 62.34 62.58 62.54 62.91 63.12 62.57 63.26 62.03 62.22 61.80 60.98 61.43 61.65 62.04 61.47 61.90 63.23 64.96 66.06 66.53 67.15 67.56 67.71 67.74 67.12 65.91 64.82 63.88 62.94
64.51 63.99 64.24 65.22 64.16 63.51 63.05 62.74 62.41 62.23 62.16 61.81 62.29 62.19 62.26 62.48 62.68 62.78 62.53 62.28 62.04 62.74 65.44 66.65 66.76 66.82 67.10 67.64 67.53 66.75 66.18 65.26 64.11
65.99 65.46 65.23 65.33 64.97 64.52 64.31 63.72 63.27 62.50 63.21 63.91 64.05 63.30 62.51 62.98 64.05 62.47 62.68 63.00 63.81 62.98 63.50 63.50 64.27 65.47 65.78 66.40 67.12 67.07 66.95 66.28 65.30
66.44 66.14 65.88 65.65 65.60 64.92 64.97 64.69 64.68 64.21 64.25 64.08 63.67 62.77 62.82 62.76 62.44 62.19 63.02 62.30 62.28 63.15 61.92 60.70 60.53 62.23 64.47 64.91 65.63 65.64 66.26 66.14 65.26
66.39 65.73 66.68 66.12 65.63 65.24 65.17 64.33 64.24 62.40 63.00 61.37 60.98 61.54 62.14 62.09 62.23 61.95 61.11 60.54 61.35 59.59 58.81 58.59 58.49 58.53 62.72 63.66 63.78 63.41 63.78 64.54 65.25
67.20 66.63 66.31 66.27 65.86 65.75 65.16 64.72 63.26 63.33 63.21 61.50 60.23 57.50 57.24 59.28 59.20 59.61 59.18 57.73 57.76 57.75 57.22 56.65 56.69 56.42 56.66 57.83 58.55 59.39 60.49 61.68 62.29
62.66 63.61 64.28 64.45 64.61 64.12 64.15 63.78 62.84 61.75 62.64 62.34 59.75 54.17 52.32 54.77 57.05 57.72 57.59 56.61 55.77 55.64 56.18 56.63 56.38 55.26 55.03 53.39 52.91 55.29 56.49 58.70 60.67
57.47 57.40 58.10 58.09 61.51 63.09 62.75 62.91 62.44 62.19 58.32 59.29 61.02 59.39 58.10 53.41 52.90 56.36 56.16 55.94 56.43 55.91 57.02 55.55 54.34 53.14 52.21 50.96 52.12 53.40 54.91 57.56 59.15
54.73 54.91 55.17 55.57 56.34 57.17 57.44 57.25 57.38 57.75 58.15 58.87 58.86 56.95 57.02 57.28 55.82 52.94 54.47 55.91 56.44 54.72 55.15 52.52 50.65 50.58 49.18 48.06 49.54 51.91 53.41 55.44 56.87

GFSFLT1_sfc_wetblb_087.txt.gz
Wetbulb
69.52 69.85 69.93 69.73 70.00 70.05 70.21 70.51 70.43 69.81 69.44 69.49 69.63 69.77 69.50 68.97 65.35 64.42 65.93 63.61 67.24 67.48 67.82 68.91 69.04 69.74 70.04 70.47 70.29 70.06 69.46 68.59 68.12
68.94 69.69 69.75 69.61 69.73 69.74 69.65 70.22 70.06 70.04 69.86 69.83 69.56 68.91 67.97 66.47 63.84 63.78 63.75 64.00 67.11 66.66 66.05 66.22 67.92 68.47 68.66 69.11 69.18 69.02 68.89 67.96 67.19
68.74 69.01 69.36 69.49 69.50 69.44 69.32 69.24 69.80 69.51 69.13 69.02 68.61 68.33 67.17 63.81 63.27 63.74 64.12 67.83 67.12 66.57 65.86 65.19 65.40 66.94 67.47 67.40 67.13 67.30 67.26 66.56 66.22
69.20 69.36 69.04 69.25 69.25 68.98 68.84 68.65 68.23 68.33 68.10 67.61 67.43 66.85 66.32 61.96 63.55 64.70 64.18 68.19 67.06 66.09 65.54 64.88 64.70 64.42 64.49 65.14 65.35 65.51 65.59 65.29 64.99
70.25 69.32 69.35 69.03 68.77 68.59 68.36 68.24 67.83 67.12 66.12 66.09 65.99 65.22 64.94 61.31 62.76 63.64 64.75 67.86 66.93 65.92 65.11 64.54 64.16 63.63 63.52 63.62 63.63 63.80 63.80 63.95 63.88
67.85 67.48 68.36 69.11 68.91 68.53 68.39 68.19 67.67 67.01 66.10 65.98 65.39 64.57 60.95 60.32 62.16 63.31 68.02 67.91 67.14 66.10 65.02 64.22 63.66 63.11 62.60 62.72 62.81 62.68 63.15 63.06 63.01
67.56 66.27 67.50 68.98 68.62 68.27 68.31 68.35 68.20 66.19 62.69 61.60 63.88 60.72 59.60 59.53 61.77 63.35 68.18 67.85 67.62 67.08 65.60 64.30 63.47 62.84 62.42 62.25 62.11 61.73 61.85 61.73 61.86
65.58 64.92 65.61 65.14 65.12 65.30 66.72 66.06 65.50 63.31 62.09 61.07 60.51 60.14 59.04 58.23 59.05 64.19 67.64 67.99 67.57 67.75 67.93 66.21 64.74 63.47 62.57 62.14 61.84 61.27 60.75 60.82 60.67
64.51 64.11 64.04 63.91 64.39 63.31 63.73 63.55 63.89 63.82 62.88 60.38 59.37 58.34 58.04 57.93 57.97 62.36 65.80 67.81 67.37 67.35 67.85 68.17 67.41 65.79 64.10 63.17 62.38 61.55 60.77 60.22 60.05
61.89 62.94 63.63 63.58 63.23 62.65 62.72 62.16 61.69 61.16 60.91 60.89 59.87 58.42 58.00 57.61 57.92 59.47 63.47 65.83 67.49 67.00 67.03 67.57 67.89 68.13 67.05 65.47 64.22 63.16 62.25 61.49 60.69
59.95 59.78 59.74 59.09 59.11 59.23 59.64 60.21 60.27 60.09 59.79 59.24 58.54 58.00 58.02 58.49 58.87 58.66 60.66 64.60 65.85 67.07 66.63 66.72 67.27 67.78 68.02 67.53 66.41 64.97 63.96 63.19 62.48
61.32 61.36 61.41 61.32 60.54 60.72 60.65 61.23 61.55 61.29 61.93 61.02 61.27 60.96 59.88 59.29 60.07 60.34 59.78 61.39 63.41 65.41 66.55 66.92 67.11 67.42 67.81 67.63 67.38 66.76 65.73 64.73 63.73
62.12 62.20 62.79 63.33 61.77 61.19 61.24 61.25 60.93 60.90 60.86 60.77 61.34 61.70 61.27 61.02 61.19 61.54 61.36 61.22 61.96 62.93 65.78 67.12 67.38 67.15 67.18 67.15 67.20 67.06 66.47 65.91 65.15
64.49 63.66 63.63 64.04 63.69 62.87 62.58 62.43 62.03 61.30 61.87 63.51 63.64 63.10 62.45 61.70 62.96 61.79 61.76 62.39 62.86 62.00 62.95 63.96 64.53 65.20 65.47 65.99 66.50 66.33 66.06 65.84 65.20
65.28 64.99 64.74 64.66 65.01 64.77 64.46 64.14 64.20 63.59 63.69 63.99 63.04 62.89 62.11 62.10 61.65 61.52 61.96 61.40 60.71 61.36 61.86 61.39 60.20 61.92 63.62 64.44 64.88 64.80 64.39 64.38 64.78
66.29 65.69 65.82 66.03 65.22 64.98 64.95 64.01 63.97 63.32 63.39 62.39 61.34 60.67 61.29 61.28 61.07 61.03 60.63 60.20 59.17 58.22 57.42 58.31 56.59 57.58 60.62 60.92 61.22 61.77 62.24 62.47 62.62
66.53 66.22 65.96 65.81 65.44 65.25 64.91 64.46 63.39 62.98 63.00 60.91 60.33 55.76 55.71 56.92 57.04 57.76 58.01 57.74 57.99 56.98 56.23 55.64 55.02 54.93 54.86 54.69 56.54 57.58 59.24 60.63 61.54
61.65 61.88 63.53 63.92 64.02 63.65 63.79 63.56 62.66 61.35 62.21 62.46 59.89 54.47 51.30 53.37 55.77 56.50 56.26 56.45 55.47 54.98 54.72 54.20 54.38 52.78 50.75 51.05 52.01 54.77 56.28 58.64 60.32
56.41 56.16 56.58 57.08 57.47 58.79 59.97 61.12 59.86 61.08 59.03 59.42 59.09 57.78 58.20 54.91 51.77 54.66 55.21 55.49 56.55 54.86 53.88 52.72 53.26 51.35 49.51 50.25 52.46 53.21 54.54 56.49 57.94
54.27 54.06 54.19 54.56 55.07 55.19 55.52 55.54 55.50 55.55 55.24 56.29 57.37 57.28 57.63 55.66 53.60 50.46 52.55 54.77 54.83 53.16 52.33 50.74 50.27 48.98 48.75 48.02 50.34 52.25 54.15 55.91 56.34

GFSFLT1_sfc_wetblb_090.txt.gz
Wetbulb
70.22 69.89 69.73 70.03 69.63 69.81 70.04 70.22 69.86 69.61 69.72 70.14 70.38 69.23 69.54 66.56 63.56 63.38 64.43 62.47 66.56 66.72 68.04 68.28 69.19 70.50 70.22 70.16 69.94 69.53 68.70 67.76 67.21
69.95 69.71 69.69 69.79 69.78 70.09 70.28 70.03 70.20 70.04 70.04 70.05 69.13 68.25 68.29 63.91 62.77 62.85 62.49 63.13 66.73 66.37 66.12 67.40 67.93 67.74 68.13 68.72 68.59 68.37 67.63 66.63 66.69
69.70 69.55 69.62 69.72 69.66 69.49 70.01 69.87 69.65 69.52 69.36 68.98 68.10 67.64 66.28 63.86 62.82 63.14 63.29 67.44 66.73 66.19 65.46 65.09 65.72 66.65 67.13 67.04 66.85 66.74 66.30 65.73 65.42
69.06 69.33 69.41 69.44 69.32 69.12 68.81 68.83 68.91 68.56 67.77 67.05 66.78 66.24 65.50 61.62 62.56 64.13 63.64 68.13 66.72 65.96 65.24 64.68 64.29 64.10 64.25 64.52 64.68 64.84 64.93 64.60 64.42
69.48 69.09 69.41 69.16 68.80 68.56 68.41 68.07 67.61 66.72 65.82 66.35 65.99 65.12 63.94 61.15 62.44 63.09 63.88 67.80 66.83 65.77 65.02 64.48 64.04 63.57 63.56 63.34 63.32 63.41 63.65 63.63 63.16
67.04 66.76 68.16 69.10 68.74 68.26 68.07 67.80 67.29 66.98 65.98 65.75 65.38 64.50 59.99 59.15 61.20 62.38 67.50 67.90 67.24 66.25 65.08 64.27 63.75 63.13 62.63 62.65 62.39 62.60 62.71 62.83 62.38
67.02 65.81 67.12 68.65 68.54 68.40 68.37 68.15 67.82 65.52 61.48 61.00 62.84 60.32 58.86 58.43 60.80 62.35 67.94 67.97 67.74 67.08 65.86 64.54 63.69 62.93 62.33 62.09 61.83 61.42 61.64 61.54 61.48
65.26 64.55 65.14 64.79 64.89 64.49 66.02 65.07 64.49 62.34 61.23 60.35 60.34 59.89 58.94 56.99 58.85 63.35 67.49 68.23 67.90 67.83 67.83 66.20 64.91 63.75 62.80 62.30 61.81 61.18 60.58 60.69 60.57
63.72 63.25 63.34 62.98 63.51 62.35 62.49 62.58 62.73 62.87 62.49 61.14 59.43 58.98 57.28 57.02 56.96 60.57 65.75 68.01 67.93 67.49 67.46 68.02 67.77 66.43 64.94 63.92 63.06 62.11 61.20 60.43 60.16
63.49 63.00 62.79 62.55 62.68 62.37 61.96 62.25 62.34 62.09 62.30 61.19 59.47 58.65 56.93 56.67 56.97 57.43 63.04 65.89 67.92 67.52 67.08 67.22 67.69 68.12 67.68 66.58 65.11 63.88 62.88 62.11 61.19
61.52 61.27 62.10 62.05 61.65 62.24 59.98 61.46 60.31 58.67 58.75 58.50 57.72 57.44 57.01 57.16 57.43 57.58 58.48 64.42 66.16 67.61 67.04 67.01 67.22 67.65 67.98 67.88 67.00 65.97 64.76 63.89 63.02
59.57 59.19 59.04 59.08 58.51 58.40 58.83 59.63 60.50 60.35 60.93 60.37 60.80 60.33 59.45 58.74 58.27 59.17 58.69 59.99 63.30 65.58 67.12 67.38 67.58 67.56 67.41 67.03 67.03 66.78 66.20 65.61 64.68
60.68 60.82 61.64 61.73 60.56 59.63 59.48 60.02 59.95 60.08 60.11 60.08 60.76 61.13 62.56 62.00 60.80 60.49 60.45 60.48 61.51 62.91 65.66 67.33 67.85 67.47 66.59 66.54 66.60 66.39 66.06 65.64 65.61
62.31 61.84 62.34 62.90 62.73 61.14 60.86 60.97 61.06 60.63 61.31 62.25 63.42 63.33 62.75 62.22 62.43 61.26 61.31 61.53 62.35 61.67 61.76 63.66 64.07 64.35 64.97 65.34 65.61 65.60 64.82 64.61 64.82
63.99 63.64 63.64 63.70 63.92 64.02 63.86 63.57 63.74 63.48 63.16 63.61 63.45 63.13 63.19 62.18 61.42 61.29 61.58 60.89 60.40 60.24 61.46 60.16 60.14 62.84 63.76 63.95 63.84 63.73 63.12 62.79 62.93
64.95 64.62 64.31 65.31 64.76 64.45 64.37 63.73 63.26 63.44 63.48 62.42 60.91 59.57 60.71 60.01 60.24 60.07 59.77 59.57 58.72 58.83 58.15 57.39 57.97 57.84 59.26 59.77 60.22 60.88 61.54 61.52 61.67
65.98 65.51 65.50 65.80 65.45 65.08 64.73 64.39 63.40 62.88 62.91 60.21 59.32 54.78 55.42 56.00 56.23 56.22 56.96 55.89 56.92 56.92 56.52 56.00 55.06 53.49 53.11 54.26 56.30 57.19 58.93 60.16 60.81
62.85 63.44 64.24 64.06 64.04 63.66 63.70 63.47 62.66 61.27 61.62 60.54 58.12 55.28 51.56 53.01 55.48 55.33 54.99 55.62 55.52 54.95 53.89 54.00 52.24 51.04 51.26 52.53 52.86 54.87 56.15 58.09 59.31
57.85 57.02 56.46 56.92 57.52 57.49 57.98 58.85 57.74 57.61 56.18 56.58 57.99 57.31 58.74 55.17 52.40 54.11 53.84 54.40 54.20 52.45 52.67 51.30 50.38 49.75 50.39 52.09 53.04 53.63 54.89 56.92 58.01
54.48 54.51 54.44 54.14 54.78 54.75 55.20 55.02 54.75 54.85 54.38 54.87 55.02 56.10 55.96 54.34 55.21 52.37 51.85 52.62 50.80 49.56 48.81 48.90 48.67 48.67 48.72 49.40 50.51 53.09 54.38 55.91 56.43

GFSFLT1_sfc_wetblb_093.txt.gz
Wetbulb
70.08 69.80 70.16 70.59 70.63 70.37 70.23 70.01 69.83 69.86 70.46 70.21 69.79 69.69 67.93 65.31 62.41 61.89 63.64 61.63 66.29 67.39 68.05 68.05 68.81 70.28 70.13 69.49 68.88 68.62 67.54 66.57 66.89
69.70 69.68 69.27 69.44 69.77 69.77 70.03 69.82 70.03 70.15 70.31 69.31 68.95 69.17 66.55 62.59 62.03 61.77 61.69 62.57 66.45 66.20 66.81 67.31 67.15 66.83 67.11 67.39 67.07 66.88 66.50 66.03 65.89
69.50 69.56 69.51 69.62 69.73 69.97 69.93 69.92 69.90 69.92 69.64 68.45 68.11 68.10 65.79 63.02 62.10 62.31 62.70 66.89 66.46 65.75 65.32 64.89 65.50 66.03 66.30 66.31 66.25 65.96 65.62 65.18 64.84
69.40 69.51 69.63 69.52 69.31 69.32 69.47 69.25 69.16 68.88 68.14 67.18 66.70 66.22 65.06 61.33 62.06 63.42 63.01 67.81 66.40 65.78 65.03 64.39 64.12 63.94 63.89 63.92 64.20 64.10 64.24 64.25 63.65
69.54 69.30 69.63 69.29 68.99 68.64 68.21 67.86 67.22 66.47 65.94 66.15 65.96 64.88 63.99 60.51 61.95 62.52 62.96 67.34 66.24 65.60 64.87 64.36 63.82 63.58 63.34 63.17 63.18 63.56 63.53 63.35 62.94
66.54 66.38 68.15 69.04 68.61 68.09 67.82 67.29 66.80 66.63 64.88 65.14 64.98 63.09 58.90 58.41 60.37 61.81 65.22 67.38 66.55 65.80 64.92 64.12 63.54 62.84 62.52 62.62 62.40 62.57 62.45 62.56 61.95
65.77 65.08 66.98 68.59 68.41 68.29 67.87 67.67 67.53 65.00 60.54 60.20 61.93 59.06 58.24 57.77 59.49 61.62 65.82 67.94 67.42 66.54 65.48 64.48 63.65 62.90 62.26 62.03 61.72 61.30 61.49 61.44 61.13
64.38 63.80 64.48 64.03 64.41 63.73 65.06 63.90 63.42 61.19 60.36 59.66 59.44 59.73 58.44 57.07 57.16 62.41 65.89 68.02 68.25 67.77 67.53 66.44 65.31 64.14 63.15 62.52 62.01 61.33 60.70 60.62 60.41
63.09 62.61 62.66 62.47 62.81 61.59 61.57 61.80 61.69 61.74 61.76 60.34 60.24 58.83 57.68 56.25 56.25 57.63 64.02 67.68 68.30 68.03 67.77 68.09 68.10 66.95 65.90 64.67 63.65 62.58 61.61 60.81 60.24
62.75 62.30 61.98 61.68 61.65 61.59 60.96 61.30 61.54 61.25 61.29 61.79 60.38 58.89 57.48 56.05 56.15 56.11 60.56 65.60 67.65 67.95 67.79 67.59 67.79 68.23 68.35 67.45 66.12 64.80 63.84 62.85 61.84
63.00 62.44 62.08 61.42 61.54 61.83 61.36 60.37 61.08 60.58 58.04 58.25 57.75 57.07 56.65 56.38 56.51 56.92 57.29 62.41 65.98 67.37 67.65 67.80 67.68 67.86 67.72 67.31 66.86 66.17 65.91 64.99 63.90
62.70 61.18 60.61 61.12 61.08 60.18 58.94 57.66 58.73 59.03 59.75 59.56 60.17 59.98 59.37 58.89 58.23 58.09 58.22 58.91 62.37 65.21 67.01 67.65 67.98 67.66 66.51 66.49 66.28 66.22 65.84 65.92 65.59
59.56 59.04 58.96 59.68 58.69 57.83 57.91 58.61 59.01 59.21 59.41 59.48 60.25 60.45 62.30 62.60 61.84 61.29 60.02 60.28 61.24 62.40 65.06 66.78 67.28 66.28 65.86 66.10 66.15 66.02 65.14 65.29 65.32
60.61 60.34 61.01 61.93 60.96 59.84 59.57 59.57 59.97 59.90 60.71 61.38 62.92 63.27 63.10 63.11 63.15 62.46 61.21 61.07 61.26 61.27 61.81 62.76 63.85 64.66 65.26 65.80 65.73 64.67 63.69 63.35 63.33
61.84 61.57 61.68 62.37 62.32 62.23 62.11 62.14 62.65 62.93 63.05 63.20 63.55 62.91 61.75 62.30 60.51 60.02 60.71 60.65 60.66 59.71 60.61 59.70 60.85 63.32 63.97 63.64 63.42 63.00 62.56 62.15 62.08
63.47 63.26 63.12 63.42 62.90 64.02 64.04 63.65 63.05 62.94 63.28 62.54 59.32 58.82 58.68 58.30 57.89 56.99 57.27 59.15 58.91 58.55 58.10 59.49 58.53 59.38 60.62 60.57 60.59 60.64 60.61 60.80 60.86
64.99 64.88 64.60 65.38 64.83 64.85 64.72 64.55 63.59 63.06 63.02 59.97 58.69 53.53 54.85 55.10 55.47 55.26 55.33 55.06 55.46 55.60 55.99 55.74 53.62 52.88 52.56 54.94 57.10 57.99 58.67 59.43 59.89
64.23 64.11 64.35 64.03 64.18 63.87 63.52 63.36 62.69 61.14 59.56 59.09 57.47 53.83 50.04 51.88 55.05 55.08 54.53 54.47 53.26 52.69 53.06 51.79 51.20 50.66 50.97 52.61 53.39 55.45 56.71 57.88 58.82
60.62 60.33 59.97 59.11 59.12 58.08 58.16 58.18 57.73 57.30 55.91 55.53 56.68 55.99 56.29 52.83 51.22 53.54 53.72 54.18 53.04 51.79 51.63 49.54 49.00 49.14 49.89 51.21 52.85 54.20 55.61 56.76 57.15
56.61 56.02 55.73 55.89 56.87 55.59 56.06 55.09 54.13 54.49 53.95 53.89 53.75 53.11 53.15 54.53 53.07 48.74 49.91 50.95 49.68 48.82 48.41 47.51 48.07 48.39 49.50 49.34 50.73 54.01 55.95 56.00 56.24

GFSFLT1_sfc_wetblb_096.txt.gz
Wetbulb
70.14 69.73 70.18 70.10 70.28 70.01 70.09 70.11 70.22 70.72 70.36 70.38 69.87 68.75 66.79 64.42 61.22 61.03 63.13 61.37 66.90 67.98 67.95 68.08 68.33 68.71 68.79 68.28 67.53 66.92 66.62 66.15 65.89
69.81 70.08 70.34 70.38 70.34 70.23 70.21 70.18 70.33 70.60 69.48 69.47 69.91 67.66 65.54 61.75 61.12 61.06 61.20 62.42 66.58 66.64 67.15 67.35 67.09 66.95 66.84 66.73 66.62 66.58 66.23 65.74 65.11
69.14 68.86 69.23 69.56 70.09 70.14 70.15 70.25 70.30 70.11 68.80 68.99 69.25 66.83 65.17 62.39 61.42 61.65 62.09 66.97 66.51 66.04 65.54 65.08 65.12 65.57 65.53 65.36 65.22 65.21 65.02 64.79 64.31
68.90 68.77 69.04 69.31 69.70 69.89 69.84 69.87 69.78 69.34 67.94 67.00 66.93 66.43 64.78 60.62 61.55 62.84 62.53 67.79 66.45 65.90 65.32 64.95 64.65 64.38 64.22 64.09 63.96 64.08 64.14 63.86 63.66
68.96 69.09 69.47 69.31 68.95 68.78 68.72 68.53 68.04 67.03 66.34 66.18 65.49 65.10 63.81 60.02 61.44 61.88 62.28 66.70 66.01 65.62 65.08 64.74 64.26 64.09 63.86 63.47 63.38 63.51 63.62 63.34 63.05
66.42 66.54 68.21 69.07 68.58 68.12 67.78 67.42 66.67 65.47 64.09 64.93 64.75 62.32 58.37 57.64 59.48 61.19 64.56 67.31 66.46 65.63 64.87 64.29 63.83 63.21 62.85 62.69 62.44 62.68 62.66 62.60 62.07
65.09 64.80 66.94 68.42 68.15 67.99 67.43 67.11 66.62 63.25 59.57 59.43 61.33 58.21 57.58 57.18 57.95 60.97 65.03 67.57 67.57 66.61 65.55 64.63 63.91 63.29 62.61 62.30 61.92 61.53 61.59 61.42 61.11
63.08 62.85 63.78 63.36 64.04 63.07 64.12 62.86 62.34 60.04 59.49 59.21 58.80 58.94 58.09 56.84 56.32 60.26 65.14 67.14 68.45 67.85 67.75 66.79 65.99 64.99 64.12 63.18 62.46 61.79 61.07 60.83 60.52
62.28 62.00 61.96 61.72 62.11 60.72 60.79 61.14 60.84 60.82 60.85 59.75 59.90 58.84 57.69 56.01 55.95 56.52 61.77 65.99 68.16 68.53 67.94 67.88 68.36 67.95 66.98 65.47 64.52 63.51 62.46 61.61 60.81
62.43 61.94 61.31 61.11 60.91 60.78 60.14 60.27 60.54 60.27 60.55 60.54 60.60 59.71 58.37 56.87 55.78 55.59 59.36 62.57 66.93 67.99 68.21 68.05 68.08 68.24 67.61 66.92 66.40 66.08 65.29 64.30 63.06
62.52 61.92 61.40 60.85 60.86 61.02 60.78 60.11 59.99 60.34 58.58 57.89 57.91 57.29 56.32 56.21 56.16 56.40 56.86 61.03 63.91 66.89 67.75 67.97 68.31 67.53 66.36 66.32 66.14 65.55 65.87 66.21 65.29
63.56 62.38 61.78 61.50 61.13 60.79 59.89 58.64 57.92 58.17 59.08 58.66 59.60 59.62 59.33 59.03 58.63 58.33 57.96 59.15 61.10 63.55 66.59 67.41 68.01 67.18 66.02 65.95 65.96 66.10 65.74 66.04 65.88
63.10 62.21 60.90 60.36 59.66 59.13 56.95 57.27 58.05 58.70 58.95 59.19 60.03 60.29 61.39 62.48 62.36 61.66 61.06 60.98 61.52 62.39 64.38 65.82 66.98 65.62 65.57 65.72 66.52 65.13 64.16 64.00 64.12
62.51 60.74 59.63 59.62 59.19 58.09 57.99 58.22 58.82 58.97 59.81 61.12 62.25 62.87 62.86 63.08 62.23 61.35 60.80 60.97 60.88 60.57 61.67 62.41 63.94 65.62 66.30 66.26 65.53 63.98 63.11 62.68 62.54
61.12 60.01 60.20 61.36 61.27 60.72 59.92 59.49 61.42 62.11 62.59 63.00 63.22 62.76 61.15 60.52 58.93 58.51 59.42 59.64 60.19 59.79 59.65 60.15 61.15 63.87 65.04 64.21 63.65 62.63 61.37 60.91 60.83
61.03 60.86 60.63 61.60 61.93 62.04 62.27 63.10 62.78 63.08 62.65 61.36 58.01 57.83 57.72 56.73 55.27 55.46 55.74 57.18 57.82 57.45 57.84 58.03 57.80 58.56 60.31 60.78 60.82 60.78 60.56 60.34 60.15
63.18 62.63 62.37 62.88 63.79 63.91 63.73 63.48 63.03 63.04 62.91 59.01 58.11 52.06 53.74 54.09 54.74 54.03 54.49 53.62 54.15 54.43 54.36 53.71 52.51 53.19 53.71 54.81 56.61 57.62 58.89 59.65 59.91
64.01 63.98 64.48 63.58 63.02 62.67 62.83 63.30 62.13 58.95 57.99 57.80 57.39 53.45 49.35 50.74 53.59 53.21 53.31 52.95 52.03 52.17 50.54 49.93 50.89 50.41 51.11 52.00 52.80 55.45 56.57 58.10 58.81
62.30 62.89 63.47 62.65 61.06 60.75 60.03 59.86 59.17 57.96 55.93 55.71 56.10 54.65 54.46 53.42 51.14 52.24 51.36 51.06 51.20 50.86 50.74 49.73 50.02 50.21 50.05 51.16 53.88 55.24 56.48 57.50 58.04
58.98 59.31 58.58 58.40 58.25 58.57 58.29 56.24 55.45 54.87 53.91 53.76 53.33 52.40 51.94 52.54 50.99 47.81 48.69 48.78 47.89 48.30 48.73 48.16 48.48 48.99 49.48 50.08 52.54 54.70 56.36 58.02 56.70

GFSFLT1_sfc_wetblb_099.txt.gz
Wetbulb
70.46 70.24 70.98 71.10 71.14 70.31 70.66 70.71 71.15 70.90 70.79 70.22 69.13 67.36 66.25 65.31 65.94 66.17 66.34 66.77 67.77 67.96 68.23 68.21 68.23 68.17 67.78 67.64 67.19 66.82 66.41 65.81 65.18
70.06 69.95 70.12 70.16 70.47 70.55 70.49 70.69 70.84 69.84 70.08 70.28 68.53 66.74 65.15 65.63 65.88 66.24 66.61 66.71 66.88 67.01 67.17 66.90 66.85 66.71 66.54 66.60 66.17 65.88 65.64 65.14 64.67
69.38 70.26 70.41 70.21 70.45 70.45 70.44 70.61 70.55 69.13 69.77 70.14 67.75 66.18 65.11 65.11 65.93 66.35 66.84 67.86 66.92 66.53 65.88 65.52 65.36 65.02 64.97 65.00 64.98 65.16 64.95 64.47 64.59
69.44 69.64 69.70 69.70 69.85 70.33 70.36 70.38 70.03 68.54 67.99 68.82 67.56 66.18 64.46 66.01 66.14 65.72 67.07 67.78 66.84 66.25 65.80 65.41 65.15 64.82 64.65 64.54 64.69 64.56 64.38 64.00 64.06
68.23 69.07 69.55 69.65 69.58 69.80 69.75 69.57 68.62 67.22 66.67 66.05 65.67 65.50 63.88 66.26 66.33 66.76 67.40 66.71 66.49 65.79 65.30 65.05 64.66 64.34 64.11 63.88 64.05 64.01 63.99 63.26 63.51
67.96 67.36 68.37 69.34 68.90 68.45 68.08 67.58 66.53 65.25 64.90 65.27 64.56 62.95 64.82 64.79 65.18 66.79 64.64 67.31 66.62 65.76 64.94 64.45 64.03 63.42 63.17 63.22 63.01 63.07 62.90 62.67 62.21
67.83 66.68 67.31 68.62 68.21 68.03 67.52 66.90 65.81 63.87 64.50 64.93 63.04 64.54 64.16 64.09 63.93 66.17 64.76 66.93 67.85 66.89 65.82 64.98 64.32 63.76 63.10 62.76 62.42 62.08 61.92 61.62 61.27
67.25 67.73 67.62 67.77 65.44 67.01 67.03 66.86 66.20 64.01 64.64 65.00 65.10 64.62 64.41 64.06 63.63 63.51 64.48 66.61 68.31 68.33 67.99 67.56 66.68 65.62 64.47 63.64 63.08 62.47 61.72 61.27 60.74
65.88 66.14 66.48 66.51 66.92 65.92 66.39 66.41 66.14 65.68 65.67 65.92 65.73 65.31 64.50 64.06 63.35 63.23 60.56 64.28 67.34 68.75 68.43 68.28 68.34 68.08 67.18 66.53 65.69 64.79 63.71 62.82 61.57
66.07 65.70 65.76 66.31 66.36 66.15 65.58 65.98 65.92 65.87 65.63 65.31 65.00 65.52 64.95 64.29 63.99 63.38 59.79 61.27 64.21 67.71 68.37 68.44 68.46 67.77 67.32 66.57 66.65 66.78 66.10 65.68 64.44
65.95 65.88 65.41 65.75 65.84 65.78 65.63 65.41 65.53 65.43 65.26 63.49 63.76 64.03 63.84 63.57 63.21 63.80 63.90 61.06 62.82 65.07 67.24 68.11 68.33 67.49 66.67 65.94 65.91 65.72 65.91 65.85 66.40
65.99 65.80 65.76 65.70 65.18 64.81 64.89 64.58 63.34 62.99 63.37 63.64 64.79 65.17 65.39 65.11 64.84 64.40 64.52 63.57 61.34 62.70 65.73 67.33 68.05 67.10 66.03 66.16 66.51 65.86 65.09 65.02 65.68
66.96 66.45 66.12 66.11 65.53 65.12 64.19 62.99 61.83 62.69 63.44 63.98 64.67 64.97 65.14 64.08 64.01 64.37 65.62 65.20 65.75 64.49 64.35 65.33 66.38 66.43 66.08 66.48 66.35 64.67 63.90 63.49 63.42
67.09 66.40 66.69 65.25 63.84 63.02 62.48 61.77 62.90 63.33 63.59 63.15 63.79 64.67 64.25 65.49 65.13 65.46 65.22 65.23 65.13 65.56 63.60 62.14 63.61 65.81 66.23 66.49 65.51 63.92 62.56 61.82 61.34
66.59 66.24 65.46 63.87 62.37 62.27 61.90 62.19 62.63 63.45 63.54 63.77 65.00 66.27 65.82 65.13 63.42 62.52 62.21 62.66 63.21 64.32 64.13 65.02 64.43 64.15 65.58 64.80 63.83 62.49 61.73 61.36 61.15
64.62 64.39 64.37 63.64 63.49 63.94 63.57 63.54 63.10 63.46 64.25 64.74 63.65 63.26 62.61 61.25 61.09 60.78 61.56 61.27 61.27 62.13 62.88 62.96 62.33 60.45 60.24 60.94 61.12 61.01 60.58 60.48 60.58
64.47 64.05 63.51 63.23 63.66 64.37 64.40 64.59 64.27 65.33 65.15 62.38 60.97 57.81 59.20 59.68 59.23 59.35 58.76 58.43 59.86 59.55 59.00 58.54 57.82 56.82 55.71 56.75 56.93 57.76 58.63 59.60 59.84
64.90 63.96 64.18 64.24 64.95 65.02 64.84 64.77 64.39 63.14 62.71 62.59 61.24 56.60 54.56 57.04 58.80 57.49 57.62 57.15 57.17 56.79 55.75 55.46 54.43 54.20 53.97 54.40 54.73 56.32 57.31 58.43 59.50
63.38 63.94 64.41 64.27 63.08 62.31 61.50 61.73 61.78 61.84 60.33 60.53 60.13 60.32 58.76 55.81 54.20 57.00 55.76 55.53 54.87 54.96 54.39 53.80 52.81 51.65 51.88 53.28 54.73 56.16 57.78 58.97 58.37
59.48 60.13 60.08 58.90 58.98 58.14 58.65 58.03 58.47 58.49 59.05 59.40 58.51 58.04 57.69 58.85 56.75 52.78 54.42 53.79 53.26 53.13 53.19 52.71 51.96 51.53 51.70 52.69 54.06 55.45 56.99 59.27 57.19

GFSFLT1_sfc_wetblb_102.txt.gz
Wetbulb
71.06 71.76 71.74 71.80 71.49 71.37 71.21 71.59 71.00 70.91 70.22 68.88 67.36 66.75 65.74 67.18 66.78 66.82 66.84 66.98 67.45 68.35 68.26 68.17 67.94 67.46 67.19 66.99 66.46 66.02 65.55 65.30 65.56
70.69 70.80 71.22 71.09 71.16 70.87 70.95 71.14 70.49 70.61 70.24 68.70 67.29 66.15 65.03 66.73 66.76 67.12 67.20 67.16 66.86 66.92 66.60 66.51 66.29 66.06 65.75 65.57 65.69 65.54 65.15 64.97 65.28
70.10 70.45 70.79 71.18 70.97 70.63 70.85 70.77 69.64 69.92 70.52 68.53 67.02 65.64 66.20 66.84 67.49 67.55 67.19 67.31 66.89 66.49 66.07 65.83 65.60 65.43 65.22 65.21 65.20 64.95 64.64 64.71 64.72
70.42 70.83 70.78 70.72 70.78 70.69 70.82 70.63 69.16 69.05 70.16 68.09 66.92 65.60 64.45 68.02 67.72 67.14 67.84 67.55 66.70 66.34 65.89 65.64 65.38 65.15 64.88 64.96 64.73 64.62 64.14 64.12 64.42
69.72 69.53 69.29 69.57 70.72 70.56 70.52 70.17 68.86 67.46 67.16 66.59 66.49 65.68 65.06 68.01 68.27 68.43 67.77 66.62 66.32 65.73 65.35 65.08 64.99 64.74 64.37 64.15 64.17 64.17 63.90 63.40 63.66
67.72 67.69 68.65 69.85 69.91 69.75 69.59 68.76 67.25 66.16 65.80 65.02 64.52 63.78 68.02 67.32 67.66 68.76 65.45 67.25 66.68 65.74 64.95 64.51 64.29 64.05 63.68 63.35 63.14 63.07 62.95 62.49 62.40
68.52 67.36 67.87 69.03 68.84 68.63 67.93 67.00 65.76 63.98 66.33 65.52 63.25 66.20 67.22 66.74 66.40 67.81 64.93 66.33 68.14 67.23 66.28 65.35 64.67 64.22 63.51 63.08 62.76 62.27 62.03 61.65 61.21
68.04 68.21 67.73 67.54 65.61 66.86 66.87 66.48 65.87 65.06 65.89 66.71 66.74 67.00 66.49 66.62 66.43 64.95 63.82 66.33 67.76 68.78 68.42 68.29 67.05 66.13 65.33 64.66 64.11 63.25 62.38 61.76 61.10
66.85 66.58 66.72 66.42 66.06 66.02 66.33 66.31 66.03 65.29 66.39 67.10 66.93 66.60 66.46 66.74 66.68 65.73 61.61 62.77 66.46 68.36 68.88 68.72 68.31 68.02 67.73 67.37 66.64 65.70 64.62 64.01 62.83
66.18 66.40 66.71 66.89 67.42 66.76 66.55 67.19 67.02 66.90 67.24 67.41 66.91 66.87 66.98 66.78 67.45 67.47 61.20 61.77 63.67 66.22 68.12 68.57 68.53 67.69 67.20 66.90 67.13 66.93 66.72 66.35 65.86
67.64 67.39 67.16 67.23 66.90 67.01 66.73 67.16 67.13 66.93 66.99 66.55 66.63 66.89 67.17 67.08 67.26 67.75 67.36 62.14 63.08 64.62 66.67 67.95 68.55 67.80 67.21 66.55 66.10 65.79 65.79 65.89 65.90
68.07 67.75 67.67 66.89 67.32 67.06 67.38 66.97 66.74 66.11 66.53 66.52 66.98 67.44 67.53 67.40 66.99 66.95 67.13 66.56 61.94 62.64 65.20 67.04 68.16 67.44 66.92 67.09 66.58 65.76 64.74 64.27 64.73
68.42 68.33 67.94 68.18 67.55 66.78 66.38 66.02 65.08 65.20 66.15 66.47 67.01 67.18 67.23 66.75 66.63 66.93 67.21 67.49 67.42 65.32 64.95 64.67 65.40 66.83 66.94 67.19 66.25 64.87 63.52 62.58 62.54
69.06 68.94 68.80 68.34 67.46 66.97 66.47 65.48 64.88 64.86 65.89 66.13 66.41 66.28 66.48 66.78 66.93 66.60 66.37 66.30 66.31 66.32 64.17 62.75 63.22 65.41 66.29 66.78 65.90 63.79 62.04 61.38 61.44
69.21 69.01 68.74 68.33 66.87 65.86 65.69 64.82 65.39 66.35 65.93 65.20 64.99 66.33 67.13 66.92 65.95 65.11 64.61 64.81 64.96 65.79 66.21 67.07 64.96 64.11 66.24 65.76 64.39 62.61 61.52 61.13 60.97
68.76 68.68 68.50 68.11 66.33 65.41 65.57 65.67 65.31 65.38 66.08 65.29 64.54 65.06 65.20 64.21 64.14 64.20 64.93 63.93 64.26 65.11 66.44 67.06 65.01 62.82 61.36 61.94 61.60 60.84 60.47 60.22 60.18
67.82 67.68 67.44 67.64 66.62 65.78 65.95 65.85 65.66 66.09 66.57 63.28 63.31 59.16 60.76 62.26 62.57 63.57 62.83 62.34 63.43 63.20 63.29 63.50 62.94 62.65 60.93 58.84 57.60 58.12 58.94 59.31 59.89
67.03 66.36 66.04 66.21 66.48 65.61 66.53 66.78 66.17 64.15 65.71 65.35 62.33 58.60 56.36 59.41 61.77 61.44 61.90 61.56 61.95 61.69 60.89 60.07 59.45 59.12 57.71 57.73 56.25 56.93 57.79 59.25 60.03
64.52 64.63 64.61 64.23 64.75 65.16 65.38 63.55 64.32 63.97 62.22 63.23 62.55 63.69 62.42 56.87 55.06 59.73 60.30 60.22 59.50 60.07 59.75 59.13 57.55 56.43 56.05 54.12 55.05 56.75 58.28 59.66 59.01
63.47 64.14 63.55 60.60 58.91 57.81 58.09 58.21 58.42 58.44 59.79 60.06 60.95 60.75 60.50 60.28 57.34 53.85 56.20 58.47 58.45 58.79 58.75 58.36 57.72 56.41 56.49 56.06 54.91 55.79 57.68 60.47 59.15

GFSFLT1_sfc_wetblb_105.txt.gz
Wetbulb
71.97 72.52 72.58 71.51 71.52 72.04 71.74 71.39 70.73 70.24 68.55 67.52 67.00 66.05 65.58 67.49 66.51 66.29 66.74 66.14 67.80 68.30 67.88 67.52 66.93 66.95 66.54 66.45 66.19 65.84 65.66 65.87 65.85
71.90 72.08 71.64 71.23 71.82 71.35 71.42 71.03 70.89 70.27 68.88 67.61 66.66 65.38 65.96 66.41 66.64 66.65 66.60 66.39 67.16 67.12 66.68 66.36 66.08 65.97 65.84 65.81 65.77 65.31 65.24 65.51 65.48
71.54 71.51 71.32 71.47 71.19 71.16 70.96 70.45 70.39 70.65 69.17 67.61 66.46 65.01 66.44 66.63 66.80 66.79 66.30 67.71 67.10 66.90 66.53 66.08 65.95 65.86 65.86 65.71 65.43 65.01 64.89 65.05 64.72
70.70 70.91 69.77 71.48 70.94 71.09 70.88 69.85 69.78 70.57 69.21 67.79 66.36 65.14 66.14 67.11 66.90 67.08 66.58 67.82 66.97 66.61 66.27 66.15 65.95 65.65 65.43 65.21 65.12 64.70 64.35 64.51 64.16
69.79 69.66 70.38 71.33 71.30 71.31 70.85 69.73 68.57 69.50 69.33 67.71 66.86 66.00 66.08 67.28 67.23 67.35 66.60 67.07 66.61 65.94 65.67 65.52 65.34 64.99 64.63 64.53 64.50 64.37 63.77 63.61 63.55
68.25 67.99 68.66 69.98 70.89 70.65 70.36 69.47 67.90 67.37 66.58 65.98 65.79 65.13 66.78 65.77 66.53 67.22 67.70 67.41 66.78 65.81 65.08 64.77 64.63 64.19 63.85 63.64 63.50 63.35 63.05 62.50 62.53
68.21 66.98 68.04 69.45 69.41 69.48 69.20 67.99 66.59 65.21 66.27 64.44 63.53 64.00 65.94 65.25 65.00 66.71 66.65 66.60 68.09 67.54 66.61 65.60 64.96 64.53 63.95 63.59 63.21 62.73 62.39 61.88 61.43
68.49 68.06 67.76 67.90 66.10 67.25 67.01 66.00 65.68 65.48 64.98 65.35 65.47 65.72 65.45 65.28 65.17 64.80 66.18 66.41 67.52 68.65 68.74 68.50 67.54 66.67 66.08 65.34 64.71 63.94 63.10 62.50 61.83
66.87 66.77 66.78 66.13 65.82 65.67 65.70 65.40 65.04 64.53 64.79 65.82 65.78 65.60 65.45 65.62 65.64 63.74 63.92 65.12 66.69 67.75 68.67 68.95 68.78 68.70 67.97 67.85 67.09 66.26 65.42 64.82 64.06
66.35 66.03 66.08 66.00 65.52 65.63 65.55 65.70 65.30 64.41 65.25 66.57 66.36 66.19 66.31 66.07 66.06 66.22 62.59 63.70 64.56 65.60 67.29 68.63 68.83 68.69 67.90 67.83 67.15 66.82 66.85 66.61 66.72
65.59 65.43 65.38 66.23 66.87 66.87 66.26 65.90 66.05 65.88 66.34 66.10 66.11 66.05 66.39 66.27 66.51 66.94 65.11 63.46 64.04 64.83 66.19 67.42 68.61 68.63 67.79 67.17 66.27 65.83 66.06 65.78 65.70
66.54 66.49 66.64 66.69 66.82 66.06 65.86 65.91 66.33 65.84 66.04 65.95 66.26 66.63 66.71 66.85 66.74 66.95 66.90 65.65 62.61 64.32 65.55 66.79 67.63 67.82 67.61 67.06 66.82 66.06 64.85 64.09 63.72
67.47 67.11 67.13 67.17 66.50 66.00 65.84 65.83 65.03 64.52 65.00 65.53 66.15 66.39 66.84 66.57 66.13 66.30 66.23 67.31 66.62 64.51 65.96 65.06 65.22 66.20 67.19 67.69 66.31 65.04 63.32 62.29 62.02
67.77 67.99 68.08 67.42 66.84 66.13 65.72 65.22 64.85 63.72 64.86 65.48 66.25 66.30 65.71 65.85 65.68 65.71 65.91 66.10 65.96 65.68 64.40 63.29 63.22 64.78 66.50 67.14 66.10 63.87 62.40 61.62 61.41
68.54 68.51 68.04 67.76 66.78 66.11 65.84 65.02 65.08 64.88 65.15 63.72 64.33 65.14 64.69 65.17 65.86 65.08 64.69 64.53 64.76 65.32 65.87 65.40 62.73 64.02 66.27 66.58 64.77 63.08 61.83 60.98 60.91
68.51 68.42 68.38 68.87 66.84 66.03 65.41 65.08 64.52 64.84 66.37 64.45 63.59 63.32 65.17 64.54 64.16 63.93 63.45 63.50 63.81 64.39 65.24 65.13 63.44 62.03 62.35 63.07 62.35 61.29 60.56 60.25 60.55
68.04 68.35 68.52 67.65 67.38 66.68 65.69 65.13 64.73 65.64 66.23 63.33 62.50 58.87 60.68 62.21 61.81 62.52 62.14 62.06 62.86 62.62 63.20 63.48 62.80 61.92 59.85 58.11 57.92 58.32 58.83 59.58 60.46
68.38 68.07 67.86 66.74 65.54 66.04 65.63 66.21 65.42 63.90 65.74 65.49 61.89 58.06 56.45 59.01 61.53 61.39 61.28 61.05 61.35 61.33 61.04 60.87 60.55 59.92 57.79 57.29 56.54 57.46 58.86 60.18 60.76
67.52 66.86 65.64 64.29 64.30 64.10 61.27 62.23 63.68 64.93 62.21 63.85 62.74 63.03 61.03 57.48 54.39 59.78 60.14 60.04 59.55 60.13 59.72 59.25 58.22 57.49 57.00 54.85 55.27 56.81 58.42 60.32 59.24
65.14 65.37 63.86 63.28 61.53 60.15 59.52 58.98 58.37 59.22 59.93 60.20 59.33 57.96 58.01 59.00 56.62 52.84 55.68 58.45 58.99 59.18 59.00 58.67 57.84 56.78 56.88 56.57 54.80 56.31 57.96 60.81 60.84

GFSFLT1_sfc_wetblb_108.txt.gz
Wetbulb
72.66 73.06 72.53 71.60 71.34 71.22 70.62 70.44 69.71 68.19 67.84 66.98 66.11 66.18 67.09 67.14 62.72 62.68 66.01 64.03 67.87 67.72 67.30 66.98 66.65 66.48 66.49 66.40 66.03 65.97 66.09 66.01 66.13
72.79 72.48 71.57 71.46 72.19 72.20 71.30 70.83 70.20 68.81 67.94 66.94 65.91 66.00 66.86 64.03 62.74 63.07 63.34 64.13 67.57 67.35 66.94 66.71 66.53 66.31 66.36 66.17 65.77 65.63 65.69 65.51 65.53
72.54 71.69 71.19 71.48 71.72 71.29 71.11 70.88 70.45 69.31 68.19 67.20 65.87 66.64 66.19 64.66 63.03 63.27 63.58 67.81 67.55 67.44 66.86 66.46 66.27 66.27 66.15 65.97 65.55 65.23 65.32 65.03 65.12
71.74 70.90 69.93 71.81 71.38 71.11 70.41 70.27 70.68 69.76 68.50 67.15 66.22 66.33 65.90 63.05 63.66 65.02 63.76 68.16 67.40 67.14 66.80 66.49 66.25 66.02 65.85 65.73 65.55 65.00 64.92 64.68 64.47
69.99 69.44 69.93 71.37 71.45 71.50 70.64 69.52 70.46 70.40 68.47 67.86 67.52 65.96 65.63 62.21 63.99 64.22 64.67 67.79 66.91 66.54 66.25 66.02 65.73 65.43 65.10 64.96 64.94 64.82 64.21 64.14 63.81
67.57 67.64 68.63 70.03 70.74 71.23 70.36 68.82 68.39 67.90 66.76 66.44 66.12 65.20 62.61 61.87 63.20 64.01 68.08 68.01 67.10 66.35 65.70 65.27 64.94 64.68 64.32 64.10 64.00 63.90 63.61 63.04 62.98
67.66 66.79 67.73 69.28 69.63 69.99 70.06 68.80 67.64 65.56 62.24 61.46 63.44 60.02 60.81 60.47 61.76 63.75 68.18 68.32 68.05 67.57 66.63 65.68 65.07 64.78 64.30 64.00 63.67 63.23 62.86 62.60 62.10
65.81 66.80 67.43 67.13 65.67 66.29 66.84 65.48 63.52 62.02 62.21 60.91 59.36 59.79 60.70 60.01 60.49 64.39 66.87 67.22 67.75 68.49 68.75 68.47 67.54 66.87 66.28 65.64 65.11 64.32 63.67 63.16 62.64
65.43 65.29 64.88 64.38 64.28 63.78 63.78 62.88 62.21 61.70 60.55 60.45 61.21 61.40 60.76 60.61 60.63 62.33 65.21 66.98 67.14 67.70 68.37 68.76 69.02 68.96 67.99 67.88 67.28 66.59 65.58 65.03 64.81
64.56 64.34 64.13 63.02 62.64 61.79 62.21 61.66 60.68 59.91 59.78 60.81 62.55 61.64 61.29 61.43 61.25 59.28 62.58 64.54 65.95 66.07 66.86 67.89 68.52 68.61 67.79 67.69 66.82 66.53 66.32 66.13 66.12
62.25 62.03 61.75 61.53 61.46 62.06 62.20 62.24 61.59 60.71 60.86 62.24 62.63 61.80 61.73 61.45 62.12 60.59 60.67 63.75 64.72 65.95 66.36 67.11 67.68 68.18 67.70 67.26 66.76 66.40 66.09 65.22 64.77
61.66 61.29 61.69 62.40 63.15 63.01 62.28 61.81 61.96 61.42 62.26 61.62 62.23 62.34 62.09 63.33 63.82 64.20 63.10 62.23 62.90 65.19 66.72 66.88 67.03 66.87 67.28 67.50 67.02 66.26 64.77 63.51 62.97
62.96 63.23 63.11 63.42 62.78 62.37 62.16 62.13 61.17 60.83 60.78 61.05 61.62 61.97 63.00 62.91 63.53 62.64 62.33 63.75 64.26 63.45 65.50 66.43 65.00 65.31 66.68 67.83 66.94 65.28 63.22 62.64 62.27
64.66 64.81 64.69 64.57 63.18 62.57 62.60 61.68 60.84 59.84 59.91 61.36 63.26 63.53 62.96 62.84 63.05 61.49 61.97 61.65 61.27 61.34 63.61 62.82 63.20 64.68 66.56 67.52 66.60 64.07 62.76 62.16 61.44
65.26 65.21 65.38 65.01 63.65 63.17 62.64 61.31 61.53 60.56 60.06 62.34 62.26 60.82 61.01 62.37 63.02 60.85 60.95 60.81 61.12 61.53 61.73 61.69 60.89 63.79 66.04 66.84 65.16 63.77 62.36 61.23 60.55
66.15 65.70 65.65 65.73 64.46 63.39 62.89 62.11 61.10 60.07 61.50 60.78 61.26 61.50 61.41 62.09 59.02 59.14 58.74 59.75 60.45 60.61 61.98 62.73 61.17 60.24 62.41 64.34 63.37 62.25 61.09 60.18 60.09
66.27 65.46 65.97 65.82 65.12 64.55 63.74 61.79 60.91 61.21 62.12 59.46 58.66 55.53 57.40 57.54 57.81 58.02 58.46 57.79 59.02 59.61 60.30 60.37 61.30 59.71 57.85 57.64 58.62 58.70 59.20 59.76 60.68
65.96 65.77 65.59 64.56 63.98 63.08 62.85 63.27 63.10 60.45 61.53 61.86 58.59 54.05 51.52 54.31 57.11 57.11 57.07 56.76 57.15 57.34 57.69 57.63 57.58 56.74 55.27 55.81 55.27 57.73 58.31 59.69 60.80
65.27 64.36 64.15 63.71 63.55 62.25 60.93 61.98 61.67 62.35 60.91 60.93 61.46 59.37 58.53 53.88 51.65 56.63 57.13 56.85 56.11 56.29 56.06 55.56 54.89 54.16 52.85 54.20 55.53 57.04 59.21 60.81 59.72
63.88 63.46 63.31 62.29 61.71 60.66 60.01 60.06 60.09 60.29 59.64 59.68 58.13 55.71 55.63 56.33 55.20 52.48 53.37 55.25 55.28 56.04 54.61 54.43 53.33 53.44 53.18 52.59 53.91 56.38 58.40 60.34 60.79

GFSFLT1_sfc_wetblb_111.txt.gz
Wetbulb
73.49 72.97 72.46 71.82 71.28 70.41 69.89 68.53 68.05 67.73 67.45 67.04 67.51 67.77 68.05 65.45 62.38 62.74 65.09 63.20 67.53 67.43 67.12 66.93 67.04 67.01 66.86 66.53 66.50 66.44 66.28 66.33 66.46
73.20 72.73 71.77 71.54 71.50 70.69 70.18 69.07 68.16 67.72 67.27 67.11 66.96 67.21 67.17 62.13 61.95 62.20 62.57 63.91 67.61 67.57 67.29 67.07 67.08 66.92 66.72 66.35 66.20 66.19 65.88 65.85 65.87
72.60 71.90 71.97 72.19 71.84 71.22 70.65 70.04 68.85 68.12 67.42 66.76 66.54 66.85 66.11 63.24 62.33 62.51 63.15 67.88 67.64 67.66 67.12 66.83 66.75 66.66 66.57 66.29 65.83 65.73 65.53 65.41 65.40
71.98 71.26 71.63 71.89 71.89 71.14 70.96 70.49 69.65 68.52 67.55 66.49 66.52 66.24 66.02 61.39 62.71 64.03 63.43 68.24 67.71 67.45 67.06 66.80 66.61 66.37 66.23 66.09 65.67 65.20 65.13 64.76 64.89
70.52 69.13 70.44 71.37 71.58 70.88 70.25 70.44 70.52 68.84 67.89 67.23 67.27 65.92 65.10 61.09 63.04 63.29 64.14 67.73 67.14 66.74 66.46 66.20 66.01 65.66 65.28 65.18 65.01 64.80 64.28 64.44 63.95
67.45 66.74 68.75 70.21 71.38 70.80 69.60 69.86 70.37 69.14 67.47 66.71 65.88 64.93 61.45 60.66 62.85 63.45 68.02 67.87 67.08 66.28 65.67 65.40 65.19 64.92 64.54 64.24 64.22 64.13 63.82 63.44 63.34
66.76 65.69 67.71 69.47 70.10 70.12 69.83 68.71 67.95 65.82 62.02 61.42 63.55 60.03 58.96 58.62 62.21 64.15 68.50 68.35 67.87 67.20 66.35 65.57 65.19 64.86 64.43 64.13 63.85 63.47 63.32 63.16 62.81
66.28 66.20 67.20 67.45 66.41 67.08 67.51 66.47 64.30 62.02 61.26 60.53 58.73 58.17 57.91 58.36 61.95 64.76 67.90 68.52 68.69 68.90 68.78 68.20 67.39 66.91 66.33 65.69 65.13 64.43 63.86 63.47 63.09
65.40 65.71 66.28 65.43 64.34 63.98 63.98 63.18 62.60 61.59 61.23 60.17 59.04 59.01 59.34 58.80 60.61 62.89 65.63 67.83 67.77 68.24 68.52 68.88 69.11 68.81 68.16 68.02 67.44 66.43 65.57 65.08 65.12
64.19 62.88 63.69 63.22 63.37 62.65 62.36 62.01 61.34 60.29 59.47 59.18 59.50 59.53 59.67 59.71 59.76 59.83 63.35 65.81 67.65 67.49 67.41 67.94 68.37 68.58 68.58 67.64 67.31 66.88 66.50 65.78 65.15
63.89 63.62 63.41 62.40 61.63 61.89 61.42 60.71 60.04 59.62 58.96 58.74 60.36 60.60 60.42 60.33 59.69 58.68 60.08 64.05 65.29 66.96 66.94 67.40 67.49 67.55 67.69 67.49 67.24 66.59 65.81 64.49 63.83
63.09 63.25 62.61 62.43 61.04 60.40 60.43 60.45 60.73 60.53 60.36 60.34 61.13 60.66 60.42 60.94 62.43 61.16 61.10 61.54 62.95 65.43 67.31 67.11 66.87 66.61 67.11 67.59 67.33 66.41 64.59 63.26 62.51
61.37 61.56 61.47 61.46 61.62 61.27 60.41 59.96 59.92 60.21 60.35 60.20 60.96 60.79 61.58 61.77 62.64 63.24 62.46 61.89 63.34 63.55 65.60 66.65 65.09 65.54 66.42 67.90 67.60 65.70 63.44 62.59 61.87
62.21 62.07 61.92 62.02 61.38 61.00 60.90 60.47 60.37 59.64 58.89 60.18 60.59 60.97 62.67 62.96 62.64 60.82 60.39 61.56 60.85 61.23 63.24 62.73 63.36 64.47 65.78 68.07 67.26 64.80 62.86 61.83 61.27
63.51 63.91 63.76 63.21 61.62 61.23 61.15 60.41 60.62 60.22 59.73 60.79 61.20 61.15 61.75 62.23 60.65 60.74 61.15 60.27 60.66 60.67 61.12 60.57 60.96 63.61 66.31 67.20 65.82 63.78 62.26 61.13 60.56
64.57 64.53 64.36 63.90 62.95 62.52 61.73 61.28 60.17 59.81 60.12 60.07 59.61 60.97 60.87 59.69 59.77 58.48 58.51 59.36 59.62 60.51 60.67 60.13 58.92 59.57 62.94 64.84 64.06 62.54 61.25 60.28 60.59
65.24 64.95 64.77 64.56 63.81 62.31 61.91 61.05 60.30 60.52 60.65 59.28 59.62 56.63 57.16 58.30 57.70 57.09 57.94 57.37 58.73 58.81 60.33 59.39 58.48 56.76 57.97 58.27 58.78 59.23 59.84 60.48 61.31
65.89 65.21 65.16 64.44 64.36 62.70 62.94 63.16 62.12 59.90 61.13 61.17 59.19 54.96 52.13 54.32 56.25 56.11 56.27 56.17 56.67 56.75 56.92 56.94 56.66 55.36 55.32 55.81 55.72 57.25 58.34 60.72 61.77
63.80 63.87 64.00 63.22 62.72 62.12 61.79 62.10 61.77 61.28 59.96 60.26 61.17 60.12 58.44 52.99 52.79 56.42 56.49 56.62 56.37 55.65 55.41 54.21 53.82 53.30 52.53 54.29 55.80 57.24 58.63 61.15 61.18
63.38 63.17 62.93 62.45 62.13 61.52 60.77 60.14 60.07 60.32 59.98 59.52 57.42 56.80 57.02 56.65 54.57 52.06 53.33 55.31 55.40 55.36 54.48 53.87 52.96 53.24 52.12 51.52 53.94 56.17 57.95 59.79 60.36

GFSFLT1_sfc_wetblb_114.txt.gz
Wetbulb
73.60 72.99 72.15 71.42 70.73 69.56 69.27 69.15 68.60 67.96 68.35 68.33 68.74 68.16 67.94 65.55 62.44 62.53 64.75 62.81 67.55 67.66 67.40 67.25 67.35 67.12 66.94 66.79 66.61 66.31 66.37 66.19 66.00
73.26 72.41 71.65 71.17 70.85 69.52 68.46 67.93 67.32 66.97 67.79 67.90 68.21 67.72 66.10 61.59 61.22 61.59 62.32 63.79 67.82 67.76 67.50 67.39 67.23 67.04 66.71 66.51 66.43 66.12 66.05 65.97 65.73
72.66 72.15 71.78 71.27 70.31 69.80 69.11 68.25 67.65 67.20 67.29 67.20 67.40 67.19 65.35 62.60 61.63 62.09 62.96 67.90 67.84 67.73 67.43 67.06 67.00 67.03 66.88 66.28 66.05 65.79 65.52 65.60 65.42
72.39 71.79 71.52 71.21 71.12 70.98 70.02 69.17 68.44 67.79 67.20 66.47 66.72 66.75 65.02 60.92 61.99 63.44 63.32 68.43 67.95 67.54 67.13 66.87 66.68 66.44 66.39 66.20 65.66 65.41 65.28 65.17 65.21
70.77 70.69 71.15 72.20 72.02 71.52 71.13 70.09 69.07 68.10 67.21 67.00 66.56 65.51 64.38 60.60 61.95 62.58 63.48 67.87 67.43 67.10 66.60 66.25 66.01 65.69 65.47 65.30 65.14 64.83 64.56 64.32 63.98
67.78 67.11 69.30 70.74 71.08 70.76 70.41 70.89 70.05 68.53 67.27 66.88 66.03 64.15 60.59 61.10 62.13 62.63 67.75 67.80 67.06 66.50 66.08 65.63 65.30 64.98 64.67 64.39 64.41 64.25 63.94 63.58 63.20
67.01 64.87 67.53 69.99 70.08 69.71 70.01 70.34 69.86 67.13 62.38 60.65 62.65 59.32 58.41 58.80 61.66 63.02 68.31 68.30 67.60 66.94 66.20 65.69 65.30 64.95 64.49 64.19 63.94 63.60 63.41 63.16 62.82
65.60 65.20 66.84 68.01 66.85 67.31 67.37 66.22 63.89 61.49 60.24 59.64 58.32 57.67 57.06 58.12 61.59 64.20 68.08 68.95 68.73 68.61 68.04 67.45 66.99 66.77 66.28 65.73 65.24 64.50 63.95 63.60 63.31
65.24 64.85 66.41 66.13 65.18 65.06 64.18 63.45 62.77 61.53 60.80 60.05 59.72 58.18 58.04 57.85 60.94 62.23 66.32 68.80 68.52 68.81 69.06 69.14 69.18 68.71 68.37 68.05 67.39 66.40 65.62 65.12 65.33
64.95 64.51 65.11 64.78 63.60 63.27 62.80 62.34 61.82 60.75 60.24 59.87 58.73 58.93 58.36 58.00 59.68 60.26 63.32 66.15 68.42 68.28 68.35 68.51 68.43 68.69 68.47 68.23 67.61 67.35 66.88 65.87 64.70
64.40 63.76 63.92 62.55 62.79 62.56 62.19 61.36 60.94 59.87 59.01 57.82 57.72 59.02 58.76 58.61 58.58 58.59 60.24 64.63 66.25 68.01 67.49 67.55 67.64 67.69 67.78 67.79 67.34 66.97 66.26 64.45 63.37
64.04 63.08 62.86 63.12 61.98 62.30 61.00 60.42 59.97 58.96 58.59 57.51 58.46 60.00 59.69 60.06 59.15 59.26 59.30 61.91 63.16 65.54 67.50 67.66 67.34 66.94 66.70 67.47 67.65 66.78 65.46 63.59 62.61
64.04 63.04 62.98 63.30 61.71 61.01 60.23 59.57 58.59 58.77 58.80 58.67 59.23 59.96 60.21 60.15 60.45 61.41 61.00 60.89 61.02 63.14 65.42 66.84 65.83 65.59 66.12 67.03 67.66 66.58 64.11 62.74 62.07
63.26 62.88 62.76 62.00 61.24 60.57 60.05 58.77 59.03 58.44 58.25 58.96 59.65 60.19 60.56 60.78 61.62 60.44 60.65 60.47 60.75 60.31 63.12 62.87 63.40 64.48 65.01 67.19 67.57 65.91 63.19 62.01 61.38
62.61 62.22 61.84 61.70 61.36 60.62 59.99 59.31 59.47 59.03 58.90 59.53 59.84 60.13 61.01 61.98 61.04 59.92 60.12 60.05 59.80 60.78 60.52 59.86 60.40 63.39 65.42 67.23 66.64 64.54 62.60 61.25 60.46
62.46 62.26 61.99 62.25 61.57 61.36 60.62 59.89 59.41 59.04 59.18 58.71 58.25 59.41 59.43 60.36 59.80 59.65 58.26 59.32 59.72 60.01 59.49 59.17 58.63 59.52 63.85 65.26 64.74 63.55 61.91 60.47 60.40
62.67 63.08 63.09 62.99 62.16 61.39 60.99 60.69 59.57 59.66 59.57 58.03 58.38 55.68 57.15 57.21 57.42 57.22 58.44 57.85 58.81 59.86 59.43 58.30 57.35 56.81 56.94 58.19 60.10 60.28 59.76 60.38 61.34
63.68 63.89 64.09 63.78 63.47 61.98 61.63 61.15 60.53 58.95 59.45 60.28 58.85 54.35 53.09 54.41 55.78 55.92 57.22 56.54 56.64 57.37 57.94 57.76 56.08 54.98 54.10 54.97 55.91 57.33 58.01 60.49 62.06
64.31 64.08 64.01 63.79 63.10 61.69 61.78 61.75 61.03 60.91 58.52 59.01 60.62 58.82 57.73 52.57 52.55 56.07 56.22 56.70 56.47 55.79 56.08 55.91 54.40 52.97 52.13 54.35 55.51 56.96 58.48 60.67 61.92
62.78 62.56 62.58 62.14 61.86 61.92 61.00 60.65 60.42 60.68 59.74 59.13 58.10 58.00 57.61 56.48 53.98 51.71 54.44 55.32 55.92 56.42 55.64 54.13 53.28 53.17 52.90 51.96 54.22 56.17 57.74 59.57 60.63

GFSFLT1_sfc_wetblb_117.txt.gz
Wetbulb
72.55 71.83 71.26 70.88 70.34 70.36 69.33 70.07 69.73 67.93 69.28 68.61 70.05 70.18 68.52 65.70 62.62 62.53 64.53 62.62 67.65 67.78 67.60 67.46 67.30 67.21 67.22 66.88 66.56 66.54 66.34 66.15 66.05
72.74 72.22 71.28 70.76 69.59 69.44 69.43 68.86 67.92 67.71 68.48 68.36 68.66 67.79 65.42 61.11 60.67 61.26 62.00 63.54 67.97 68.15 67.83 67.50 67.36 67.17 66.89 66.66 66.34 66.24 66.14 65.94 65.92
72.79 71.72 71.14 70.32 69.53 68.76 68.21 67.75 67.29 67.83 68.05 68.00 67.67 66.10 64.72 62.10 61.11 61.68 62.54 67.86 67.91 67.81 67.52 67.29 67.32 67.25 66.84 66.43 66.16 65.92 65.95 65.84 65.66
72.27 71.62 70.82 70.07 69.60 68.96 68.56 67.83 67.59 67.73 67.59 67.19 67.15 66.38 64.59 60.35 61.53 63.08 63.13 68.47 67.93 67.66 67.07 66.90 66.79 66.69 66.44 66.09 65.68 65.51 65.20 65.42 65.43
71.37 70.54 70.56 70.92 70.90 70.56 69.89 68.64 68.13 68.04 67.72 67.23 66.56 65.63 64.41 60.07 61.70 62.29 62.85 68.02 67.52 67.15 66.77 66.47 66.01 65.82 65.61 65.43 65.13 64.61 64.57 64.26 64.00
68.90 68.27 69.25 70.58 71.13 70.96 70.29 69.58 69.12 68.12 66.66 66.13 65.34 63.42 60.49 60.27 61.29 61.93 66.37 67.90 67.22 66.70 66.30 65.92 65.56 65.16 64.78 64.60 64.49 64.25 63.91 63.70 63.46
68.25 66.59 68.43 70.56 70.34 70.21 70.79 70.69 69.42 66.59 62.45 60.55 62.70 58.80 58.61 59.71 61.11 62.10 67.49 67.79 67.57 66.85 66.19 65.76 65.45 65.09 64.70 64.41 64.02 63.72 63.48 63.19 62.90
65.73 64.97 68.13 68.27 66.43 66.89 67.93 67.87 65.73 62.79 60.12 59.01 57.84 57.19 56.17 57.05 61.13 62.99 67.25 68.47 68.22 67.94 67.44 67.08 66.74 66.51 66.35 65.81 65.27 64.60 63.94 63.69 63.57
63.96 63.67 65.03 66.76 66.92 65.08 64.06 62.92 61.99 60.83 60.00 59.04 59.10 57.38 56.38 56.93 60.83 61.70 65.66 68.62 68.73 68.94 69.25 69.35 69.20 68.73 68.36 68.16 67.41 66.45 65.48 64.98 65.51
64.44 63.97 64.85 65.64 65.91 65.12 63.39 62.40 61.67 60.73 60.27 59.91 59.17 58.52 57.51 57.23 59.28 60.42 63.02 66.23 68.82 68.69 68.55 68.58 68.43 68.49 68.51 68.23 68.08 67.69 67.01 66.01 64.63
64.61 63.97 64.17 64.28 65.26 63.84 63.71 62.20 61.40 60.80 60.13 59.52 58.08 57.47 57.81 57.36 57.54 59.36 60.17 64.41 66.36 68.49 68.27 68.14 67.92 67.90 67.75 67.55 67.91 67.13 66.53 64.70 63.20
64.33 63.98 63.63 63.58 63.80 62.69 61.93 61.42 60.66 59.63 58.85 57.47 57.09 56.94 57.91 57.97 58.02 58.61 58.58 60.63 63.23 65.89 67.57 67.94 67.69 67.41 66.79 67.07 67.61 67.09 65.91 63.66 62.44
64.18 63.29 63.10 63.45 62.70 61.87 60.73 59.92 59.02 58.63 57.95 57.19 57.35 58.17 59.15 58.98 58.90 59.07 58.55 59.30 60.26 61.99 65.02 67.02 66.75 65.82 66.04 66.61 67.19 67.03 64.83 63.01 61.87
64.18 63.51 63.49 63.13 62.63 61.04 60.90 59.11 58.69 57.58 57.63 58.16 58.74 58.90 59.16 59.38 60.56 59.36 59.25 59.38 59.30 59.77 62.41 63.07 63.19 64.18 64.90 65.86 67.05 66.73 63.93 62.55 61.32
64.06 63.74 63.48 63.08 62.13 61.06 59.96 59.52 58.60 58.04 58.05 59.17 59.06 58.75 59.31 59.81 59.75 59.43 60.37 60.14 59.50 59.91 60.04 59.88 60.18 63.04 64.66 66.79 67.34 65.48 63.43 62.00 60.92
64.41 63.51 63.01 62.33 61.51 61.18 60.32 59.31 58.36 58.72 58.44 57.57 57.17 58.50 59.25 59.30 59.60 58.67 59.57 59.43 60.08 59.52 59.23 58.89 58.46 60.00 64.66 66.28 65.78 64.62 63.52 61.68 60.95
63.91 63.09 62.15 61.58 61.37 60.90 60.32 59.92 58.54 58.98 58.94 57.47 56.99 54.93 56.62 56.50 57.38 57.25 58.21 58.48 59.46 59.90 58.76 57.97 57.02 56.61 57.16 59.31 62.34 62.49 60.96 60.46 61.37
63.51 63.04 62.45 61.72 61.67 60.79 60.74 60.60 59.62 58.26 58.70 59.26 57.84 53.16 52.98 54.30 55.04 55.09 56.77 56.98 56.98 58.03 57.44 56.83 56.13 55.43 54.67 55.60 56.18 57.65 58.11 59.81 61.69
62.71 62.72 62.63 62.42 62.36 61.62 61.14 60.59 59.94 59.77 58.13 58.98 59.58 57.91 55.36 52.68 51.74 54.73 54.58 56.00 55.99 56.67 57.54 56.90 56.01 53.81 53.43 54.16 54.89 57.00 58.48 59.81 61.20
63.00 62.71 62.60 62.47 62.67 62.21 60.97 60.30 59.97 59.80 58.86 58.40 58.57 58.46 57.81 55.74 52.33 50.10 52.46 54.02 55.21 56.30 57.03 56.44 54.48 53.78 53.37 53.20 54.94 56.87 57.66 59.15 60.27